GFSSGP_700_temp_000.txt.gz
Temp
9 9 8 8 9 9 9 9 9 10 10 10 10 11 10 9 9 9 10 9 9 8 9 9 9 9 9 8 8 8 8 8 8 8 7 7 7 7 6 6 6 6 6 6 5 5 5 5 5
9 9 8 9 9 9 9 9 10 10 9 9 10 9 9 9 8 8 9 8 8 8 8 9 8 8 8 8 8 8 8 8 8 7 7 7 7 6 6 6 6 6 6 6 5 5 5 4 4
9 8 9 9 9 9 9 9 9 9 9 9 9 9 9 9 8 9 8 8 8 8 8 8 8 8 8 8 7 8 8 7 7 7 7 6 6 6 6 6 6 6 6 5 4 5 4 5 4
8 9 9 9 9 9 9 9 9 9 9 9 8 8 9 9 8 8 8 8 7 7 8 8 7 7 8 7 7 7 7 7 6 6 6 6 6 6 6 6 7 6 6 5 4 3 3 4 4
8 9 9 9 9 9 9 9 9 8 8 8 8 8 8 8 7 7 8 7 7 7 7 7 7 7 7 6 6 6 6 6 6 6 5 5 6 5 6 6 6 5 5 4 4 4 4 3 3
8 8 9 9 9 9 9 9 8 8 8 8 8 8 8 7 7 7 7 7 7 7 6 7 6 6 6 5 5 5 5 5 5 5 5 5 5 5 5 5 6 5 5 4 4 3 3 3 3
8 8 8 8 8 9 8 9 8 8 8 8 8 8 7 7 6 7 7 7 7 6 6 6 6 5 5 5 5 5 4 4 4 4 4 4 4 5 5 4 4 4 4 4 4 3 2 3 3
8 8 8 8 8 8 8 8 8 8 8 7 7 7 7 7 6 6 6 6 6 6 5 5 5 4 4 4 4 4 4 4 4 4 4 4 4 4 4 4 4 4 5 5 4 4 4 3 2
9 8 8 8 8 8 8 8 7 7 7 7 7 7 7 6 6 6 5 5 5 5 5 5 4 4 4 4 4 4 4 4 4 4 4 4 4 4 4 4 4 4 4 4 5 4 5 5 5
9 9 8 8 8 8 8 8 7 7 7 7 7 6 6 6 6 6 5 5 5 4 4 4 4 4 4 4 5 5 5 5 4 5 4 4 4 4 4 4 4 4 4 4 4 4 4 4 4
8 8 8 8 8 8 8 8 7 7 7 7 6 6 6 7 6 6 5 5 4 3 3 4 4 4 5 5 5 5 5 5 5 5 4 4 4 4 3 3 3 3 3 3 3 3 3 3 3
8 8 9 9 9 9 8 8 7 7 7 7 7 7 7 7 7 6 6 5 5 4 4 4 4 4 5 5 5 5 5 5 4 4 4 4 3 3 3 3 3 2 2 2 2 2 2 2 3
8 8 9 8 8 9 9 8 8 8 7 7 7 7 7 7 7 6 5 5 6 5 5 5 5 5 5 5 4 4 4 4 4 3 3 3 3 3 2 2 2 2 2 2 2 2 2 2 2
8 9 8 8 8 8 8 8 8 8 8 8 8 8 7 7 7 7 6 6 5 5 5 5 5 5 5 4 4 3 3 3 3 3 2 2 2 2 2 2 1 1 1 1 1 1 1 1 1
8 8 8 9 8 8 8 8 8 8 7 7 8 8 7 7 7 7 6 6 5 5 5 4 4 4 4 4 3 3 3 3 3 3 2 2 1 1 1 1 1 1 1 1 0 0 0 0 0
8 8 8 9 8 8 8 8 8 8 8 8 8 8 7 7 6 5 5 5 4 4 5 4 4 4 4 3 3 3 2 2 2 2 2 1 1 0 1 1 0 0 0 -0 -0 -0 -1 -1 -1
8 8 8 8 7 7 7 8 8 8 8 8 8 7 7 6 7 6 5 5 4 4 3 3 3 3 3 3 2 2 2 2 2 2 1 1 1 0 0 -0 -1 -1 -1 -1 -1 -1 -2 -2 -2
7 8 8 8 8 8 8 8 8 8 8 8 8 8 7 7 7 6 6 5 5 4 3 3 3 3 2 2 2 2 2 1 1 -0 -0 -0 -0 -1 -1 -1 -2 -2 -2 -2 -2 -2 -2 -2 -2
7 7 7 8 7 8 9 9 9 9 8 8 8 8 7 7 6 6 6 6 5 4 4 3 3 2 2 2 1 1 1 1 1 -1 -1 -2 -1 -1 -2 -2 -3 -3 -3 -3 -3 -3 -3 -4 -4
7 7 7 8 7 7 8 9 10 10 8 8 8 8 7 7 6 6 5 5 5 4 4 4 3 3 2 1 1 1 1 1 0 -0 -1 -2 -2 -3 -3 -3 -4 -4 -4 -4 -4 -5 -5 -5 -5
7 6 6 6 7 7 7 8 8 8 8 8 8 8 7 7 6 5 4 4 4 4 3 4 3 2 2 1 1 1 0 0 -0 -1 -1 -2 -3 -3 -4 -4 -5 -6 -6 -6 -6 -5 -5 -6 -6
6 6 7 6 6 6 6 6 8 8 8 7 7 7 6 5 4 4 4 4 3 3 3 3 2 2 1 0 -1 -1 -1 -1 -1 -2 -2 -3 -3 -3 -3 -4 -5 -5 -6 -7 -7 -7 -7 -7 -6
5 6 6 7 7 6 6 6 8 7 7 7 7 6 5 4 4 3 3 2 2 2 1 1 1 0 -0 -1 -1 -1 -1 -1 -2 -2 -3 -3 -3 -3 -3 -4 -4 -5 -6 -7 -7 -7 -7 -7 -7
4 5 6 7 7 5 5 5 7 6 6 6 5 4 4 4 3 3 2 1 1 1 1 1 -0 -0 -1 -2 -2 -1 -2 -1 -2 -2 -3 -4 -4 -4 -5 -5 -5 -6 -6 -7 -6 -7 -7 -8 -7
5 5 5 3 1 1 6 5 4 5 5 5 4 4 4 3 2 2 1 1 1 0 1 -0 -1 -2 -2 -2 -2 -1 -1 -1 -2 -3 -3 -4 -4 -4 -4 -5 -6 -6 -7 -7 -7 -7 -7 -8 -7
4 3 3 0 -2 2 5 5 4 5 5 4 4 3 3 3 2 2 2 1 1 0 -1 -2 -2 -2 -2 -2 -2 -2 -2 -2 -3 -3 -3 -3 -4 -5 -5 -6 -6 -7 -7 -7 -7 -7 -8 -8 -9
3 3 3 3 2 1 4 5 5 6 5 3 3 3 2 2 2 2 2 1 -0 -1 -2 -2 -2 -1 -1 -2 -2 -2 -2 -3 -3 -3 -4 -4 -5 -6 -5 -6 -6 -6 -7 -8 -9 -9 -9 -10 -10
3 3 3 2 -3 -1 3 4 4 5 5 3 2 2 2 2 2 2 1 0 -1 -1 -1 -1 -2 -2 -2 -2 -2 -2 -3 -3 -4 -5 -6 -7 -7 -7 -6 -6 -7 -8 -9 -9 -9 -10 -10 -10 -10
3 2 2 2 1 -0 -2 2 3 3 2 2 2 2 2 1 1 0 -1 -1 -2 -2 -2 -2 -2 -3 -3 -2 -3 -3 -3 -4 -5 -6 -7 -8 -8 -8 -8 -8 -9 -9 -10 -10 -11 -11 -11 -11 -11
2 2 1 -1 0 -0 -0 0 3 2 2 1 1 1 0 0 0 0 -0 -1 -1 -1 -2 -2 -2 -3 -3 -3 -3 -4 -4 -5 -7 -7 -8 -8 -9 -9 -9 -10 -10 -10 -11 -11 -11 -11 -12 -12 -12

GFSSGP_700_temp_003.txt.gz
Temp
9 9 8 8 8 9 9 9 9 9 9 9 9 8 9 9 9 9 9 9 9 9 9 8 8 7 8 7 8 8 8 8 7 6 6 6 6 6 6 6 6 6 6 6 5 4 5 5 4
9 8 8 8 9 9 9 8 9 9 9 8 9 8 9 9 9 9 9 8 8 8 8 8 8 8 7 8 7 7 7 7 6 6 6 6 6 6 6 6 6 7 6 6 5 5 5 4 4
8 8 8 9 9 9 8 9 9 9 9 8 8 8 8 8 8 8 8 8 7 7 8 8 8 8 7 7 6 6 7 6 6 6 6 6 6 6 6 6 6 6 6 6 5 4 4 4 4
8 8 8 8 8 8 8 9 8 8 8 8 8 8 8 8 8 8 8 7 7 7 8 7 7 7 6 6 6 6 6 5 5 5 5 5 5 5 5 5 5 5 5 5 5 4 4 4 4
8 8 8 8 8 8 8 8 8 8 8 8 8 8 8 7 7 7 7 7 7 7 7 7 6 6 5 5 5 5 5 5 5 4 4 4 4 4 4 4 4 4 4 4 4 4 4 3 3
8 9 9 9 8 8 8 8 8 8 8 8 8 8 7 6 7 7 7 7 7 6 6 5 5 5 5 5 5 4 4 4 4 4 4 4 4 4 3 3 4 4 4 4 4 4 4 3 4
8 8 8 8 8 8 8 8 8 7 7 7 7 7 6 7 7 7 6 6 6 6 5 5 5 5 5 5 4 4 4 4 4 4 4 4 4 3 3 3 4 4 4 4 4 5 5 4 4
8 9 8 8 8 8 8 8 8 8 7 7 7 7 6 6 7 6 7 7 7 6 5 5 4 4 4 4 4 5 5 5 4 4 4 5 5 4 4 4 4 4 4 4 4 4 4 4 4
9 9 8 8 8 7 7 7 7 7 7 7 7 6 6 6 6 6 6 6 6 5 5 5 4 4 4 4 4 4 4 4 4 4 4 4 4 4 4 4 4 4 4 4 4 4 4 4 4
9 9 8 8 7 7 7 7 7 7 6 6 6 6 6 6 6 6 6 6 5 5 5 4 3 3 3 3 4 4 4 4 4 4 4 4 4 3 3 3 3 3 3 3 3 3 4 3 3
8 8 8 8 8 8 7 7 7 7 7 7 7 6 6 6 6 6 6 6 5 4 4 3 3 3 3 4 4 4 4 4 3 4 3 3 3 3 3 3 3 3 3 2 2 2 3 3 3
9 8 8 8 8 8 8 8 8 8 7 7 7 7 7 7 7 7 6 6 6 5 4 4 4 4 4 4 4 4 4 4 3 3 3 3 3 2 2 2 2 2 2 2 2 2 2 2 2
8 8 8 8 8 8 7 8 8 8 8 8 8 7 7 7 7 7 6 6 5 5 4 3 3 3 3 3 4 4 4 3 3 3 3 3 2 2 2 2 1 1 1 1 1 1 1 1 1
8 8 8 8 8 8 8 8 8 8 8 8 7 7 7 7 7 6 6 5 5 4 4 3 3 3 3 3 3 3 3 3 3 3 3 2 2 2 1 1 1 1 1 1 1 0 0 0 0
8 8 8 8 8 8 7 8 8 7 7 8 8 7 7 6 6 6 6 5 5 4 4 3 3 3 3 3 3 3 3 2 2 2 1 1 1 1 1 1 0 0 0 0 0 0 -0 -0 -0
8 8 8 8 8 7 7 8 8 8 7 7 8 7 7 6 6 7 6 5 5 4 4 3 3 3 3 3 2 2 2 2 2 2 1 1 1 0 0 0 0 -0 -0 -0 -0 -1 -1 -1 -1
8 8 8 8 7 7 7 7 8 8 8 8 8 7 7 6 6 6 5 5 5 5 4 3 3 3 3 3 2 2 2 2 1 1 1 1 1 0 -0 -1 -1 -1 -1 -1 -1 -1 -2 -2 -2
7 7 7 7 7 8 8 8 8 8 8 8 8 8 7 6 7 6 5 5 5 4 3 3 3 3 3 2 2 2 1 1 1 0 0 -0 -0 -1 -1 -1 -2 -2 -2 -2 -2 -2 -3 -3 -3
7 6 7 7 7 8 8 8 9 9 9 8 8 8 7 7 6 5 5 5 5 4 3 3 2 2 2 2 2 1 1 1 0 -0 -1 -1 -1 -2 -2 -2 -2 -2 -2 -3 -3 -3 -3 -3 -3
6 6 7 7 7 7 7 9 9 9 8 7 7 8 7 6 6 5 5 5 4 3 3 3 3 2 1 2 1 1 1 0 0 -0 -1 -2 -2 -2 -2 -2 -2 -3 -3 -3 -3 -3 -3 -3 -4
6 6 6 6 6 6 7 8 8 8 7 7 7 6 6 6 5 4 4 4 3 2 2 2 2 1 1 0 -0 -0 -1 -1 -1 -1 -1 -1 -2 -2 -3 -3 -3 -4 -4 -4 -5 -4 -4 -4 -4
6 6 6 6 5 6 7 7 7 7 7 6 6 6 5 4 4 4 3 2 2 2 2 1 1 1 1 0 0 -0 -1 -1 -2 -2 -2 -1 -2 -3 -4 -4 -4 -4 -5 -6 -6 -6 -6 -6 -6
5 6 6 6 6 6 6 6 5 6 6 5 5 5 4 4 4 3 3 3 2 2 1 1 1 0 -1 -1 -1 -1 -2 -2 -1 -1 -1 -1 -2 -2 -3 -4 -4 -5 -6 -6 -7 -7 -7 -7 -7
5 6 6 6 6 4 4 4 4 5 5 6 4 4 4 3 3 3 3 2 2 1 1 0 0 -0 -0 -1 -2 -1 -2 -2 -1 -1 -2 -2 -2 -3 -3 -4 -4 -5 -6 -5 -7 -7 -7 -7 -7
4 6 5 2 1 1 4 4 4 4 3 4 4 3 3 3 2 2 2 2 1 0 -0 -1 -1 -1 -1 -2 -2 -2 -2 -2 -2 -2 -2 -2 -3 -3 -3 -4 -5 -6 -5 -5 -6 -7 -7 -8 -7
3 3 2 -0 -3 1 4 4 4 3 3 3 3 2 2 2 2 1 1 1 -0 -1 -1 -1 -1 -2 -2 -2 -2 -2 -2 -2 -3 -3 -3 -3 -4 -4 -5 -5 -6 -6 -6 -6 -6 -6 -7 -7 -7
3 2 2 2 2 -0 3 4 3 4 3 2 2 2 1 1 1 0 0 -0 -1 -1 -1 -1 -1 -1 -2 -2 -2 -2 -3 -3 -3 -3 -3 -4 -5 -6 -6 -7 -7 -7 -7 -7 -7 -7 -8 -8 -9
2 2 2 2 -3 -2 2 3 4 3 3 3 2 1 1 0 -0 -0 -0 -1 -1 -1 -2 -2 -1 -2 -2 -2 -3 -3 -3 -3 -3 -4 -5 -6 -7 -8 -8 -9 -9 -8 -8 -8 -8 -9 -9 -9 -9
2 2 1 1 1 -1 -4 1 3 3 1 1 1 0 0 -0 0 0 -0 -1 -2 -2 -2 -2 -2 -2 -3 -3 -3 -3 -3 -3 -3 -4 -6 -8 -9 -9 -9 -10 -10 -8 -9 -9 -9 -9 -9 -10 -10
2 1 1 -0 -0 -0 -1 -0 2 1 1 1 -0 0 -0 -0 -1 -1 -1 -2 -2 -3 -3 -2 -3 -3 -4 -3 -3 -4 -4 -4 -5 -5 -7 -10 -10 -10 -10 -10 -11 -10 -11 -11 -10 -10 -10 -11 -11

GFSSGP_700_temp_006.txt.gz
Temp
8 8 8 8 9 9 9 8 9 8 8 8 8 8 9 9 9 8 9 8 8 8 8 8 8 7 8 7 7 7 7 7 7 6 6 6 6 6 6 6 6 6 6 5 5 4 5 5 4
8 8 8 8 9 8 8 9 9 9 9 8 8 8 8 8 8 9 8 8 7 7 7 7 7 7 7 7 7 6 6 6 6 5 5 5 6 6 6 6 6 6 5 5 4 4 5 4 4
8 8 8 9 9 8 8 8 8 8 8 8 8 8 8 8 8 8 8 8 7 7 7 7 7 6 6 7 6 6 6 6 5 5 5 4 5 5 5 5 5 5 5 5 4 5 5 4 4
8 8 8 9 8 8 8 8 8 8 8 7 8 8 7 7 8 7 7 7 7 7 7 6 6 6 6 6 6 5 5 5 5 5 4 4 4 4 4 4 4 4 4 4 4 4 4 4 3
8 8 8 8 8 8 8 8 7 8 8 8 8 7 7 7 7 7 7 7 7 7 6 6 5 5 5 5 5 5 5 5 4 4 4 4 4 4 4 4 3 4 4 4 4 4 4 3 3
8 9 8 8 7 7 7 7 7 8 8 8 8 7 7 7 7 7 7 7 7 6 6 5 5 4 4 4 4 5 5 5 4 4 4 4 4 4 4 4 4 4 4 4 4 4 3 3 3
9 9 8 8 8 8 8 7 7 7 7 7 7 7 7 6 6 7 7 6 6 6 5 4 4 3 4 4 4 4 4 5 4 4 4 4 4 4 4 4 4 4 5 4 4 4 4 4 3
9 9 8 8 8 8 8 7 7 7 7 6 6 6 6 6 6 6 6 5 5 5 5 4 4 3 4 4 4 4 5 5 4 4 4 4 4 4 4 4 3 3 3 4 4 4 4 4 4
9 9 8 8 8 8 7 7 7 7 6 6 6 6 6 6 6 6 6 6 5 5 4 4 4 4 4 4 4 4 4 4 4 4 4 3 3 3 3 3 3 3 3 3 3 3 3 3 4
9 9 8 8 8 7 7 7 7 6 6 6 6 7 6 7 7 7 7 6 6 6 5 5 4 3 3 3 4 4 4 4 4 4 3 3 3 3 3 3 3 3 3 3 3 3 3 3 3
8 8 8 8 7 7 7 7 7 7 7 7 7 7 7 7 7 7 7 6 5 5 4 4 3 3 4 4 4 4 4 3 3 3 3 3 3 3 3 2 2 2 2 2 2 2 2 3 3
8 8 8 8 7 7 7 7 7 7 7 7 7 7 7 7 7 7 6 6 5 4 4 3 3 3 3 4 4 4 4 4 3 3 3 3 3 3 2 2 2 2 2 2 2 2 2 2 2
8 8 8 8 7 7 7 7 7 8 8 7 7 7 6 6 6 7 6 5 5 4 3 3 3 3 3 4 4 4 3 3 3 3 3 2 2 2 2 2 2 2 2 2 1 1 1 1 1
8 8 8 7 7 7 8 8 8 7 7 7 7 7 7 6 6 6 6 5 5 4 4 3 3 3 4 4 3 3 3 3 3 2 2 2 2 2 2 1 1 1 1 1 1 1 1 0 0
8 8 8 8 8 8 7 8 8 7 7 7 7 7 7 6 6 6 6 5 5 4 4 3 3 3 3 3 3 3 3 3 2 2 2 1 1 1 1 1 1 0 0 0 0 0 0 0 0
8 8 8 8 8 7 7 8 7 7 7 7 7 7 7 6 6 6 6 5 5 4 3 3 3 3 3 3 2 2 2 2 2 2 1 1 1 0 0 0 0 -0 -0 -1 -1 -1 -1 -1 -1
8 7 7 7 7 7 6 7 8 7 7 7 7 7 7 6 6 6 6 5 5 4 4 3 3 2 2 2 2 2 2 1 1 1 1 0 -0 -0 -0 -0 -1 -1 -1 -1 -1 -1 -1 -1 -2
7 7 7 7 7 7 7 8 8 8 8 8 8 8 7 6 6 5 5 5 5 4 4 3 3 2 2 2 1 2 1 1 1 0 0 0 -1 -1 -1 -1 -1 -2 -2 -2 -2 -2 -2 -2 -2
6 6 6 7 6 7 7 7 8 9 8 8 8 7 7 6 6 5 5 5 4 4 3 3 2 2 2 2 1 1 0 1 0 -1 -0 -1 -1 -1 -1 -1 -1 -2 -2 -3 -3 -3 -3 -3 -3
6 6 6 6 6 6 7 7 8 8 8 7 7 7 7 6 6 5 5 5 4 3 3 3 2 2 1 1 1 0 -0 -0 -1 -1 -1 -1 -1 -1 -2 -1 -1 -2 -2 -3 -3 -3 -3 -3 -3
6 6 5 5 6 6 6 7 7 7 7 7 6 6 6 5 5 4 4 4 3 3 2 2 1 1 0 -0 -1 -1 -1 -1 -1 -2 -2 -2 -2 -2 -2 -2 -2 -2 -3 -3 -4 -4 -5 -5 -4
6 5 5 5 5 6 6 6 6 6 6 6 5 5 5 4 4 4 3 3 2 2 1 1 1 0 -0 -0 -1 -1 -1 -2 -2 -2 -2 -2 -2 -1 -2 -2 -2 -3 -3 -4 -5 -5 -6 -6 -6
5 5 6 6 6 5 5 5 4 5 5 5 4 4 4 4 3 3 2 2 2 1 1 0 0 -0 -0 -1 -1 -2 -2 -2 -2 -2 -2 -2 -2 -2 -2 -2 -2 -3 -3 -4 -4 -6 -6 -6 -7
5 6 5 5 5 4 4 4 4 4 4 4 4 4 3 3 3 2 2 2 1 1 1 0 -0 -1 -1 -1 -2 -2 -2 -2 -2 -2 -2 -2 -2 -2 -2 -2 -2 -3 -3 -4 -5 -5 -6 -6 -6
4 6 5 2 0 0 4 4 4 3 4 4 3 3 3 2 2 2 2 1 1 0 -0 -1 -1 -1 -2 -2 -2 -2 -2 -2 -2 -2 -2 -2 -2 -2 -2 -2 -3 -3 -4 -5 -5 -6 -6 -6 -6
3 4 2 0 -3 -0 4 3 3 2 3 3 3 3 2 2 2 1 1 0 -0 -1 -1 -2 -2 -3 -3 -2 -2 -2 -2 -3 -3 -3 -3 -3 -3 -3 -3 -4 -5 -5 -6 -7 -7 -7 -6 -6 -7
3 3 3 2 1 -1 3 3 3 3 2 1 1 2 1 1 1 0 -0 -1 -2 -3 -3 -3 -3 -2 -2 -3 -3 -3 -3 -3 -3 -3 -3 -3 -3 -4 -6 -7 -8 -8 -9 -9 -8 -7 -7 -7 -8
3 2 2 2 -4 -2 2 3 3 2 2 2 2 1 -0 -0 -1 -1 -2 -2 -2 -2 -2 -3 -3 -3 -3 -3 -3 -4 -4 -3 -3 -3 -3 -3 -4 -6 -8 -9 -9 -9 -10 -10 -9 -9 -9 -9 -9
2 2 1 1 1 -3 -4 1 2 2 1 1 1 -0 -1 -1 -1 -1 -2 -2 -2 -2 -3 -3 -2 -3 -4 -4 -4 -4 -4 -3 -4 -3 -3 -4 -7 -9 -10 -10 -10 -10 -10 -10 -10 -10 -11 -11 -11
1 1 1 0 -0 -1 -1 -1 1 1 1 0 -0 -0 -1 -2 -2 -2 -2 -2 -3 -2 -2 -4 -4 -5 -5 -5 -5 -4 -4 -5 -4 -4 -5 -6 -8 -10 -10 -10 -10 -11 -11 -11 -11 -11 -12 -12 -12

GFSSGP_700_temp_012.txt.gz
Temp
9 9 9 9 10 11 10 9 8 8 8 9 9 8 9 9 9 8 8 8 8 8 7 7 7 7 6 6 6 6 7 7 7 6 6 6 6 5 5 5 4 4 4 4 4 4 4 4 3
9 9 8 9 11 11 10 8 9 8 8 8 8 8 8 9 9 9 8 8 7 7 7 7 7 7 7 7 7 7 7 7 7 6 6 6 5 5 5 5 5 5 4 4 4 4 5 4 4
8 8 8 10 11 11 9 9 7 8 8 8 8 8 8 8 8 8 7 7 7 7 7 7 7 7 7 6 6 6 6 6 5 5 5 5 5 5 4 4 4 4 4 4 5 5 5 5 4
8 8 9 10 10 8 9 8 7 8 8 8 7 8 8 8 7 7 7 7 7 7 7 7 6 6 6 6 6 5 5 5 5 5 4 4 4 4 4 4 4 4 4 4 4 4 4 4 4
8 8 10 10 9 8 8 7 7 7 7 7 7 7 7 7 7 7 7 7 7 6 6 6 6 6 6 5 5 5 5 5 5 5 4 4 4 4 4 4 4 3 3 4 4 4 4 4 3
8 9 10 10 8 7 7 7 7 7 7 7 7 7 7 7 7 7 7 7 7 7 6 6 6 6 5 5 5 5 5 5 5 5 5 4 4 4 4 4 4 4 3 3 4 4 4 4 4
9 10 10 9 8 7 7 7 7 7 6 6 7 6 7 7 7 6 7 6 6 6 6 5 5 5 4 5 5 5 5 5 5 5 5 5 4 4 4 4 4 4 4 4 4 4 4 4 4
9 9 8 8 8 8 7 7 7 6 6 6 6 6 6 6 6 6 6 6 5 5 5 5 4 4 5 5 5 5 5 5 5 5 5 4 4 4 4 4 3 3 3 3 3 3 3 3 3
9 9 9 8 8 7 7 7 6 6 6 6 6 6 6 6 6 6 5 5 5 5 5 4 4 5 4 4 4 5 5 5 4 4 4 4 4 4 4 3 3 3 3 3 3 3 3 3 3
8 9 8 8 7 7 7 7 6 6 6 6 6 6 6 6 6 6 5 5 5 5 5 4 4 4 4 4 4 4 4 4 4 4 4 3 3 3 3 3 3 3 3 3 3 3 2 2 2
8 8 8 7 7 7 7 6 7 7 7 6 6 6 7 7 6 6 6 5 5 5 4 4 4 4 4 3 4 4 4 3 3 3 3 3 3 3 3 3 3 2 2 2 2 2 2 2 2
8 8 8 8 7 7 7 7 7 7 7 7 6 6 6 6 6 6 6 4 3 4 4 4 4 3 3 3 3 4 3 3 3 3 3 3 2 2 2 2 2 2 2 2 2 2 2 2 2
8 8 7 7 7 7 7 7 7 7 7 7 7 6 6 6 6 6 5 3 3 4 4 3 3 3 3 3 3 3 3 3 3 2 2 2 2 2 2 2 2 1 1 1 1 1 1 1 1
8 8 8 7 7 7 7 7 7 7 7 7 7 6 6 6 6 6 5 5 4 4 3 3 3 3 3 3 3 2 2 2 2 1 1 1 1 1 1 1 1 1 1 0 0 0 -0 -0 0
8 8 7 8 7 8 8 7 7 7 7 7 7 7 6 6 6 6 5 5 4 4 4 4 3 3 3 2 2 2 2 2 1 1 1 1 0 0 0 0 -0 -0 0 0 0 0 0 0 0
7 8 9 7 7 8 7 9 7 7 7 7 7 7 7 6 6 6 5 5 5 4 4 4 3 3 3 2 2 2 2 1 1 0 0 0 -0 -0 -0 -0 -1 -1 -1 -0 -0 -0 -0 -0 -0
8 9 8 7 7 7 7 8 7 8 8 7 7 7 7 7 6 6 5 5 5 4 4 4 3 3 2 2 2 2 2 1 0 -0 -0 -0 -1 -1 -1 -1 -0 -1 -1 -0 -0 -0 -0 -0 -1
8 8 8 7 7 7 7 7 8 8 8 7 7 7 7 7 6 6 5 5 4 4 4 3 3 3 2 2 2 1 1 0 -0 -1 -1 -1 -1 -1 -2 -1 -1 -0 -0 -1 -1 -1 -1 -1 -1
7 7 7 6 7 6 6 6 7 8 8 8 7 7 7 7 6 5 4 4 4 4 4 3 3 3 2 1 1 1 0 -0 -1 -1 -1 -1 -1 -2 -2 -2 -1 -1 -1 -1 -1 -2 -1 -2 -2
7 6 6 5 6 6 6 6 7 7 7 7 7 7 7 6 5 4 4 4 4 4 3 3 2 2 2 1 1 0 -0 -1 -1 -1 -1 -2 -2 -2 -2 -2 -2 -2 -2 -2 -1 -1 -1 -1 -2
6 6 5 5 5 6 6 6 6 6 6 6 6 6 6 5 4 4 4 3 3 3 2 2 2 1 1 0 0 -0 -1 -1 -1 -2 -2 -2 -2 -2 -2 -2 -2 -2 -2 -2 -2 -2 -2 -2 -2
6 5 5 5 5 8 6 10 5 6 6 5 5 5 4 4 4 3 3 3 2 2 2 1 1 0 0 -0 -1 -1 -1 -1 -1 -1 -2 -2 -2 -2 -2 -3 -2 -2 -2 -2 -2 -2 -2 -2 -2
4 5 5 5 5 5 6 8 6 5 5 3 4 4 3 3 3 3 2 2 2 1 1 0 0 -0 -0 -1 -1 -1 -1 -2 -2 -2 -2 -2 -2 -3 -3 -3 -3 -3 -3 -2 -2 -2 -2 -2 -2
5 5 5 5 5 7 5 6 6 5 3 3 3 3 3 3 2 2 2 1 1 1 0 -0 -1 -1 -1 -2 -2 -2 -2 -2 -2 -2 -2 -3 -4 -4 -4 -4 -3 -3 -3 -3 -3 -3 -3 -3 -4
4 5 7 6 7 7 4 5 4 3 4 3 3 3 2 2 2 2 1 1 1 0 -0 -1 -1 -2 -2 -2 -2 -2 -2 -3 -3 -4 -4 -4 -4 -4 -4 -4 -3 -3 -4 -4 -4 -4 -5 -6 -6
4 4 5 5 6 7 4 6 4 3 3 3 2 2 2 2 1 1 0 0 0 -0 -1 -1 -1 -2 -2 -2 -2 -3 -4 -4 -4 -5 -5 -5 -5 -5 -4 -4 -5 -5 -5 -6 -7 -8 -8 -9 -9
3 3 3 3 2 3 5 4 3 2 2 2 2 1 1 1 0 -0 -1 -1 -1 -1 -2 -2 -2 -2 -2 -3 -3 -3 -3 -4 -5 -5 -6 -6 -5 -5 -5 -5 -6 -7 -8 -9 -9 -10 -10 -10 -10
3 3 3 3 3 4 6 5 6 2 1 1 1 1 -0 -0 -1 -1 -2 -2 -2 -2 -2 -3 -3 -3 -4 -3 -3 -4 -5 -6 -6 -6 -6 -6 -6 -6 -6 -8 -9 -10 -10 -11 -11 -11 -11 -11 -11
2 2 2 2 2 4 4 5 3 2 1 1 0 -0 -0 -0 -1 -2 -2 -3 -2 -2 -3 -3 -3 -4 -4 -5 -6 -6 -6 -6 -6 -6 -6 -7 -8 -9 -10 -10 -11 -11 -11 -11 -11 -12 -12 -12 -12
2 1 1 2 2 1 -0 2 1 1 1 -0 -1 -2 -1 -2 -3 -2 -3 -3 -3 -3 -3 -3 -4 -5 -6 -7 -7 -6 -6 -6 -6 -7 -8 -10 -10 -11 -12 -12 -12 -12 -12 -12 -12 -13 -13 -13 -13

GFSSGP_700_temp_015.txt.gz
Temp
9 10 9 10 10 13 13 12 12 11 10 9 9 10 10 9 9 8 8 9 9 8 7 7 7 7 7 7 7 7 7 7 7 7 6 6 6 6 5 5 4 4 4 4 4 4 4 4 4
9 9 9 10 12 14 13 11 12 11 9 9 9 9 9 8 10 9 8 8 8 8 8 8 7 7 7 7 7 7 7 7 6 6 6 6 5 5 5 5 5 5 4 4 4 4 5 4 4
9 9 9 11 13 15 12 11 10 9 9 9 9 8 8 7 6 6 8 8 8 8 8 7 7 7 7 7 7 7 6 6 6 6 5 5 5 5 5 5 4 4 4 4 4 4 5 4 4
8 9 10 12 13 12 11 10 9 9 8 9 9 8 8 6 5 8 8 7 7 7 7 7 7 7 7 6 6 6 6 5 5 5 4 4 4 4 4 4 4 4 4 4 4 4 4 4 4
9 9 12 13 11 11 10 10 9 10 9 9 9 8 6 7 7 7 7 7 7 7 7 7 7 6 6 6 6 5 5 5 5 5 5 4 4 5 5 5 4 4 4 4 4 4 4 4 4
9 11 13 12 10 10 9 9 9 10 9 8 8 7 6 7 7 7 7 7 7 7 6 6 6 6 6 5 5 5 5 5 6 6 5 5 5 5 5 5 4 4 4 4 4 4 4 4 4
10 12 13 11 10 9 9 9 9 9 9 8 8 7 6 7 7 7 7 7 7 6 6 6 6 5 5 5 5 5 5 6 6 5 5 5 5 4 4 4 4 4 4 4 4 4 4 4 4
10 11 11 11 10 10 8 8 8 9 8 7 7 7 6 6 7 7 6 6 6 6 6 6 5 5 5 6 6 6 6 5 5 5 4 4 4 4 3 3 3 3 3 3 3 3 3 3 3
10 11 11 10 10 9 8 9 8 7 7 7 7 7 6 7 6 6 6 6 6 5 5 5 5 5 5 5 5 5 5 5 4 4 4 4 3 3 3 3 3 3 3 3 3 3 3 2 2
10 11 11 10 10 9 9 9 8 8 7 7 6 6 5 6 6 6 6 5 4 4 4 5 5 5 5 5 5 5 4 4 4 4 4 3 3 3 3 3 3 3 3 2 3 2 2 2 2
10 11 9 8 9 9 9 8 8 8 8 8 7 6 5 7 7 5 4 4 3 3 3 4 5 4 4 4 4 4 4 4 3 3 3 3 3 3 3 2 2 3 3 2 2 2 2 2 2
9 9 9 8 8 8 9 8 8 9 9 8 7 6 6 7 5 4 4 4 4 3 3 3 5 4 4 4 3 3 3 3 3 3 3 3 3 3 3 2 2 2 2 2 1 1 1 1 2
9 8 8 8 8 8 8 8 8 8 8 7 7 6 6 5 5 5 5 5 4 4 3 3 4 4 4 3 3 3 3 3 3 3 3 2 2 2 2 1 1 2 1 1 1 1 1 1 1
9 8 8 8 7 7 8 8 8 8 8 7 7 7 6 6 6 5 5 5 4 4 4 3 2 3 3 3 3 3 3 2 2 2 2 1 1 1 1 1 0 0 1 1 1 1 1 1 1
8 8 8 8 8 8 8 8 8 8 7 7 7 7 7 6 6 5 5 4 4 4 4 3 2 4 3 3 3 2 2 2 2 2 1 1 0 0 -0 -0 -1 -1 -0 -0 0 0 0 1 1
9 9 10 8 8 8 8 10 9 8 8 8 8 7 7 7 6 5 5 4 4 4 3 3 3 3 3 3 3 2 2 2 1 1 1 0 0 0 0 0 0 -0 -0 0 0 0 0 0 0
9 11 10 9 8 8 9 11 9 8 7 8 8 7 7 7 6 5 5 5 4 3 3 3 3 3 3 3 2 2 2 1 1 0 -0 -0 -0 -0 -1 -1 -1 -1 -1 -0 -0 -0 -0 -0 -0
11 11 10 10 8 8 9 9 9 7 8 8 8 8 7 7 6 4 5 5 5 5 4 4 4 3 4 2 2 2 1 1 1 0 -0 -0 -1 -0 -1 -1 -1 -1 -1 -1 -1 -1 -1 -1 -1
9 9 10 10 7 8 9 9 8 7 7 7 7 7 7 6 5 5 6 5 5 4 4 4 4 3 3 2 2 1 1 1 0 -0 -0 -1 -1 -1 -1 -1 -2 -2 -2 -1 -2 -2 -1 -1 -1
8 9 9 8 7 7 9 9 7 6 6 7 6 6 5 5 4 6 5 4 4 4 3 3 3 2 2 2 1 1 1 0 -0 -0 -1 -1 -1 -2 -2 -2 -2 -2 -2 -2 -2 -2 -2 -2 -2
8 8 7 7 7 7 8 9 7 6 6 6 5 5 5 4 3 4 4 4 3 3 3 3 2 2 2 1 1 1 0 -0 -1 -1 -1 -2 -2 -2 -2 -2 -2 -2 -2 -3 -3 -3 -3 -2 -2
8 6 6 6 7 10 8 11 8 7 6 5 5 4 3 3 3 4 3 3 3 2 2 2 2 1 1 1 0 -0 -1 -1 -2 -2 -2 -2 -2 -2 -2 -2 -2 -3 -3 -3 -3 -3 -3 -3 -2
7 6 5 6 7 9 9 10 8 7 6 5 4 3 2 4 3 3 3 3 2 2 2 1 1 1 0 -0 -1 -1 -2 -2 -2 -2 -1 -2 -2 -2 -3 -3 -4 -4 -4 -4 -4 -3 -3 -3 -4
6 5 6 6 8 9 9 9 9 8 6 5 4 2 2 2 3 3 2 2 2 2 1 1 0 -0 -1 -1 -1 -1 -1 -1 -1 -1 -2 -2 -3 -3 -4 -5 -5 -5 -5 -4 -4 -4 -4 -4 -4
6 7 9 8 9 9 7 8 6 5 4 4 3 2 1 2 2 2 1 -0 0 0 0 -0 -1 -1 -2 -1 -1 -1 -2 -2 -2 -3 -3 -3 -4 -4 -5 -5 -5 -5 -5 -5 -5 -5 -5 -5 -7
5 6 6 7 8 9 7 8 7 4 3 3 2 1 1 2 2 1 1 0 -1 -0 -1 -1 -1 -1 -1 -2 -2 -2 -3 -3 -3 -3 -4 -4 -4 -5 -5 -5 -5 -5 -6 -7 -8 -9 -10 -10 -10
5 5 4 5 4 4 8 7 5 3 2 2 2 1 1 0 -1 -1 -2 -2 -1 -1 -1 -1 -2 -2 -2 -2 -2 -2 -3 -4 -4 -5 -5 -5 -5 -6 -6 -6 -7 -8 -8 -9 -10 -11 -11 -11 -11
4 4 5 5 4 6 9 8 7 4 3 2 2 1 0 -0 -1 -1 -2 -3 -3 -2 -2 -2 -2 -3 -3 -4 -4 -5 -5 -5 -6 -6 -6 -6 -6 -7 -8 -9 -10 -10 -10 -11 -12 -12 -12 -12 -12
5 5 4 4 4 5 6 7 4 4 3 2 1 0 -0 -1 -1 -2 -2 -3 -4 -4 -4 -4 -4 -4 -4 -4 -5 -6 -6 -6 -6 -6 -7 -8 -9 -9 -11 -11 -12 -12 -12 -12 -12 -12 -12 -13 -13
3 4 4 3 4 3 2 3 3 2 2 1 1 0 -1 -2 -2 -3 -3 -3 -4 -4 -4 -4 -5 -5 -5 -6 -7 -7 -7 -7 -7 -8 -8 -9 -10 -11 -12 -12 -12 -13 -13 -13 -13 -13 -13 -13 -13

GFSSGP_700_temp_018.txt.gz
Temp
10 10 10 11 9 11 13 14 13 12 11 10 11 10 9 10 10 7 7 9 9 8 8 7 7 7 7 7 7 7 7 7 7 7 7 7 6 6 5 5 5 5 5 4 4 5 5 4 5
10 11 10 10 10 12 14 13 12 11 10 10 10 10 9 9 9 9 8 8 8 9 8 7 7 7 7 7 7 7 7 7 7 7 6 6 5 5 5 5 5 5 4 4 4 4 4 5 5
10 11 10 9 11 12 13 12 11 10 10 10 9 9 8 7 6 9 8 8 8 8 8 8 7 7 7 7 7 7 7 6 6 6 6 5 5 5 5 5 5 5 5 4 4 4 4 4 5
9 10 10 10 12 13 13 11 10 10 9 10 9 9 7 6 7 7 7 8 8 8 8 7 7 7 7 7 7 6 6 6 6 5 5 5 5 5 5 5 5 5 5 4 4 4 4 4 4
9 10 10 11 12 12 11 11 10 10 10 10 9 7 6 5 7 7 7 8 8 8 7 7 7 7 6 6 6 6 6 6 6 5 5 5 5 5 5 5 5 4 4 4 4 4 4 4 4
9 10 10 12 11 11 10 10 11 10 9 9 9 7 5 5 7 7 7 7 7 7 7 7 6 6 6 6 6 6 6 6 6 5 5 5 5 5 5 4 4 4 4 4 4 4 4 4 4
10 9 10 12 11 10 10 10 10 10 10 9 9 7 5 5 7 7 7 7 7 7 7 6 6 6 6 6 6 6 5 5 5 5 5 5 5 4 4 4 4 4 3 3 3 3 3 3 3
9 9 10 11 11 10 9 9 10 10 9 8 8 8 7 7 7 7 7 7 7 6 6 6 7 6 6 6 6 6 6 5 5 5 4 4 4 4 4 4 4 4 4 3 3 3 3 3 3
9 11 12 11 11 10 9 9 9 9 8 8 7 7 6 7 7 7 7 6 6 6 6 6 6 5 6 5 5 5 5 5 5 4 4 4 4 4 5 4 4 3 3 3 3 3 3 3 3
10 11 11 11 10 10 9 10 9 8 8 7 7 6 6 7 7 7 6 6 5 4 4 4 5 5 5 5 5 5 5 5 4 4 4 4 4 4 3 3 3 3 3 3 3 3 3 2 2
10 10 10 10 10 10 9 9 8 9 8 8 7 6 7 7 7 6 5 4 3 3 3 3 4 4 4 4 4 4 4 3 4 4 3 3 3 3 3 3 3 3 2 2 2 2 2 2 2
10 10 10 9 9 9 9 9 9 9 9 8 8 6 5 6 7 5 4 4 4 4 4 3 4 4 4 4 4 4 4 3 3 3 3 3 3 3 3 2 2 2 2 2 2 1 1 1 2
10 9 9 8 8 9 9 9 9 9 8 8 8 6 6 5 5 4 5 5 4 4 4 3 4 4 5 4 4 4 4 4 3 3 3 3 2 2 2 2 2 1 1 1 1 1 1 1 1
9 9 9 8 8 8 8 8 9 9 8 8 7 7 6 6 5 5 5 5 5 4 4 4 3 4 4 4 4 4 4 3 3 3 3 2 2 2 1 1 1 1 1 1 1 1 1 1 2
9 9 9 8 8 8 8 9 9 9 8 8 7 7 7 7 6 6 5 5 5 4 4 4 4 3 5 4 4 3 3 3 2 2 2 2 2 1 1 1 1 1 1 1 1 1 1 0 1
9 10 10 9 9 9 8 10 9 9 8 8 8 8 7 7 7 6 5 5 4 4 4 3 3 4 4 3 4 3 3 2 2 1 1 1 1 1 1 0 0 -0 -0 -0 -0 -0 -0 -0 -0
10 11 11 10 9 10 9 10 10 9 8 8 9 8 8 7 7 6 5 5 4 4 4 4 3 3 3 4 4 3 2 2 1 1 0 0 0 -0 -0 -1 -1 -1 -1 -1 -1 -0 -1 -1 -1
10 12 11 11 9 9 10 10 10 9 8 8 8 9 8 7 7 6 5 5 4 5 4 4 3 4 3 3 3 2 2 2 2 1 0 0 -0 -0 -1 -1 -1 -2 -2 -2 -2 -2 -2 -1 -1
10 11 11 10 9 9 9 10 10 9 8 8 8 9 8 7 7 6 5 5 4 4 4 4 4 3 3 3 3 2 2 1 1 0 -1 -1 -1 -1 -1 -1 -2 -2 -2 -2 -2 -2 -2 -2 -2
9 10 10 10 9 8 9 9 9 7 7 8 8 7 7 6 6 6 5 5 4 4 4 3 3 3 3 2 2 2 2 1 0 0 -1 -1 -2 -1 -2 -2 -2 -2 -2 -2 -2 -3 -3 -3 -3
10 9 8 8 8 8 9 9 8 7 7 7 6 6 5 5 5 5 5 4 3 3 3 3 3 2 2 1 1 1 1 0 -1 -1 -2 -2 -2 -2 -2 -2 -2 -3 -3 -3 -3 -4 -4 -4 -4
9 7 7 7 8 9 9 10 9 7 6 6 5 5 4 3 2 2 4 3 3 3 3 2 2 2 2 1 1 0 0 -1 -1 -1 -2 -2 -2 -2 -2 -2 -3 -3 -3 -3 -4 -4 -4 -4 -4
7 7 7 7 8 9 10 10 9 8 6 5 4 4 3 2 2 3 3 3 3 3 2 2 2 1 1 0 0 -0 -1 -1 -1 -1 -1 -1 -1 -2 -3 -3 -3 -4 -4 -4 -4 -4 -5 -5 -5
7 7 7 7 8 9 10 10 8 8 7 6 4 3 2 2 2 2 2 1 2 3 2 1 1 -0 -1 -2 -1 -1 -1 -1 -1 -1 -1 -2 -3 -3 -4 -4 -4 -5 -5 -5 -5 -5 -6 -6 -6
7 8 8 7 8 8 8 9 7 6 6 5 4 2 2 1 1 0 -0 -0 -1 -0 1 1 0 -1 -1 -2 -2 -3 -2 -2 -2 -2 -3 -4 -4 -4 -5 -5 -6 -6 -6 -6 -6 -7 -7 -9 -10
7 7 6 6 6 7 8 9 6 5 5 4 3 2 1 0 0 -0 -0 -1 -1 -2 -1 -1 -1 -1 -2 -2 -2 -2 -2 -3 -3 -3 -4 -5 -5 -6 -6 -6 -7 -7 -8 -8 -8 -10 -11 -11 -11
6 6 6 6 5 5 8 7 5 4 3 3 2 2 1 1 0 -0 -1 -1 -2 -2 -2 -2 -2 -2 -2 -3 -3 -3 -3 -4 -4 -5 -5 -5 -6 -6 -7 -8 -8 -8 -9 -10 -11 -12 -12 -12 -12
6 5 6 6 5 5 8 8 5 4 3 2 3 2 1 1 0 -1 -1 -2 -2 -2 -3 -4 -4 -4 -4 -4 -5 -5 -5 -5 -5 -6 -6 -6 -7 -7 -8 -9 -10 -11 -12 -12 -12 -12 -13 -13 -13
6 6 5 5 5 5 5 6 5 4 4 3 2 2 1 0 -0 -1 -2 -1 -1 -2 -3 -3 -4 -4 -4 -5 -5 -5 -6 -7 -7 -7 -7 -8 -8 -9 -10 -11 -12 -12 -12 -13 -13 -13 -13 -13 -14
4 5 4 4 4 4 3 3 4 3 3 2 1 1 -1 -2 -1 -1 -1 -2 -3 -3 -3 -4 -5 -4 -5 -5 -6 -7 -7 -8 -8 -8 -8 -9 -9 -10 -11 -12 -13 -13 -14 -13 -13 -13 -14 -14 -14

GFSSGP_700_temp_021.txt.gz
Temp
10 10 10 10 10 10 11 12 12 11 11 10 11 11 10 9 9 8 7 7 8 8 8 7 7 7 7 7 7 7 7 7 7 7 7 7 6 6 6 6 5 5 5 5 5 4 4 4 4
10 10 10 9 9 10 11 10 11 11 10 10 10 9 10 9 9 8 6 9 7 7 7 7 7 7 7 7 7 7 7 7 7 7 7 6 6 5 5 5 5 6 5 5 5 4 4 4 4
9 9 9 10 10 11 11 11 10 10 10 10 10 9 10 9 7 8 6 9 8 8 7 7 7 7 7 7 7 7 7 7 6 6 6 6 6 5 5 5 6 5 5 5 5 5 5 4 5
9 9 9 10 11 11 11 10 10 10 10 10 9 9 8 7 7 6 8 8 8 8 8 7 7 7 7 7 7 7 6 6 6 6 6 6 6 5 5 5 5 5 5 5 5 5 5 5 5
9 8 9 10 10 10 10 11 10 10 9 9 9 7 7 6 7 7 8 7 8 8 7 7 7 7 7 7 6 6 6 6 6 6 6 6 6 5 5 5 5 5 4 4 4 4 4 4 4
8 8 9 10 10 10 10 10 10 10 9 8 9 8 7 7 7 7 8 7 7 7 7 7 7 7 7 6 6 7 6 6 6 6 6 6 5 5 5 5 4 4 4 4 4 4 4 4 4
9 8 9 9 10 10 10 10 10 9 9 8 8 8 7 7 7 7 7 7 7 7 7 7 7 7 7 7 7 6 6 6 6 6 5 5 5 5 4 4 4 4 4 4 3 3 3 3 3
9 8 10 10 10 10 10 9 9 9 9 8 7 8 8 7 7 7 7 7 7 7 6 6 6 6 6 6 6 6 6 6 5 5 5 5 5 4 4 4 4 4 4 4 3 3 3 3 3
8 9 10 10 10 10 10 9 9 9 9 8 8 8 7 7 7 7 7 7 7 7 6 7 6 6 6 5 5 5 5 5 5 5 5 5 5 4 4 4 4 4 4 4 3 3 3 3 3
9 9 10 11 10 10 9 9 9 9 8 8 8 7 7 7 7 7 6 6 6 6 6 7 5 6 6 5 5 5 5 5 5 4 4 4 4 4 4 4 4 4 4 4 3 3 3 3 3
10 10 10 10 10 9 9 9 9 8 8 8 8 7 6 6 7 7 6 6 5 5 5 5 4 5 5 6 5 5 5 5 4 4 4 3 3 3 3 3 3 3 3 3 3 3 2 3 3
10 10 10 9 9 9 9 9 9 9 9 8 8 7 7 7 7 7 6 5 5 5 4 5 4 4 4 4 4 4 4 4 4 4 4 3 3 3 3 3 2 2 2 2 2 2 2 2 2
10 9 9 9 9 9 9 9 9 9 8 8 7 7 7 7 7 6 5 4 5 4 4 5 4 3 3 4 4 3 4 3 4 4 3 3 3 3 3 2 2 1 1 1 1 1 1 1 1
9 9 9 9 9 9 9 9 9 8 8 8 7 7 6 6 6 5 5 5 5 5 4 4 4 3 4 5 3 4 4 3 3 3 3 3 3 2 2 1 1 1 1 1 1 0 1 1 1
9 9 8 8 8 9 8 8 9 8 8 8 7 7 7 7 6 5 5 5 4 5 4 4 4 4 4 4 4 4 4 3 2 2 2 2 2 2 1 1 0 0 0 0 0 0 0 -0 -0
9 9 9 9 9 9 9 9 9 8 9 8 8 8 7 7 7 6 6 5 5 5 4 4 3 4 3 3 3 4 3 2 2 2 1 1 2 1 1 1 -0 -1 -1 -1 -1 -1 -1 -0 -0
9 9 9 9 9 9 9 9 9 9 8 8 8 8 8 7 7 6 6 5 5 4 4 4 4 4 4 3 3 3 2 2 1 1 0 -1 -1 -0 -0 -1 -1 -1 -1 -1 -1 -1 -1 -1 -1
10 10 10 9 9 9 9 9 9 9 8 8 8 8 8 7 7 6 6 5 5 4 5 4 3 3 3 3 3 3 2 2 2 1 1 0 -0 -1 -1 -1 -1 -1 -1 -2 -2 -2 -2 -2 -2
10 10 10 9 9 9 9 10 9 9 8 8 8 8 8 8 7 6 6 6 5 5 5 4 4 4 3 3 2 2 2 1 -0 -1 -1 -1 -2 -1 -1 -1 -1 -1 -2 -1 -2 -2 -2 -2 -3
10 10 9 8 8 9 9 9 8 8 8 8 8 8 8 8 7 6 6 6 5 4 4 4 3 3 3 2 2 2 1 1 1 0 -0 -1 -1 -2 -2 -2 -2 -2 -2 -2 -2 -2 -2 -2 -3
8 9 9 8 9 9 9 8 8 8 8 7 7 7 7 7 6 6 5 5 4 4 3 3 3 2 2 2 1 1 1 0 -0 -1 -1 -1 -2 -1 -2 -2 -2 -2 -3 -3 -3 -4 -4 -4 -4
8 8 8 8 8 8 8 7 7 7 6 6 6 6 6 6 6 6 6 5 4 3 3 3 2 2 2 1 1 0 0 -0 -1 -1 -1 -1 -2 -2 -2 -2 -3 -3 -4 -4 -4 -4 -5 -5 -5
7 7 8 8 7 7 9 8 7 6 6 5 5 5 5 5 5 4 4 3 3 2 2 2 1 1 1 1 1 -0 -1 -1 -1 -1 -1 -2 -3 -3 -3 -3 -4 -4 -4 -4 -5 -5 -6 -6 -6
7 7 7 7 7 6 7 8 7 6 6 5 4 4 4 3 2 2 2 3 3 2 2 2 1 -0 -1 -2 -2 -2 -2 -2 -2 -3 -3 -3 -3 -3 -4 -4 -4 -5 -5 -5 -6 -6 -7 -7 -8
7 7 7 5 3 3 7 7 6 6 6 5 5 3 3 2 2 2 1 0 -0 -0 0 1 0 -0 -1 -1 -2 -2 -3 -3 -4 -4 -4 -4 -4 -5 -5 -6 -6 -6 -6 -7 -7 -8 -9 -10 -11
6 6 6 4 0 4 7 6 4 5 4 4 3 3 2 1 1 0 0 0 -0 -1 -1 -1 -2 -2 -2 -1 -2 -2 -3 -3 -4 -4 -4 -4 -5 -6 -6 -7 -7 -7 -8 -9 -10 -10 -11 -11 -12
6 6 6 5 5 4 6 4 4 4 4 3 3 2 1 1 0 -0 -1 0 -0 -0 -1 -2 -2 -3 -4 -4 -3 -4 -4 -4 -5 -5 -5 -5 -6 -7 -7 -8 -9 -9 -10 -11 -12 -12 -12 -13 -13
6 6 5 5 2 3 5 4 4 3 3 2 2 1 1 1 0 -0 -0 -0 -0 -1 -2 -2 -3 -3 -4 -3 -4 -5 -5 -5 -6 -6 -6 -7 -8 -8 -9 -10 -10 -11 -12 -12 -13 -13 -13 -14 -14
5 5 5 5 5 1 -1 3 4 3 3 2 1 1 1 1 1 0 -0 -0 -1 -2 -2 -2 -3 -3 -3 -3 -5 -6 -6 -7 -7 -7 -8 -8 -9 -10 -10 -10 -11 -12 -12 -13 -14 -14 -14 -14 -14
5 5 4 4 4 3 3 3 4 3 3 2 1 1 1 1 1 -0 -1 -1 -2 -2 -3 -3 -4 -4 -5 -6 -7 -7 -7 -8 -9 -9 -8 -9 -10 -10 -11 -11 -12 -13 -13 -14 -14 -15 -14 -15 -15

GFSSGP_700_temp_024.txt.gz
Temp
9 9 10 9 9 9 10 11 10 10 11 10 10 10 10 9 9 10 10 8 8 8 7 7 7 7 7 7 8 7 7 7 7 7 7 7 6 6 6 5 6 6 6 6 5 5 5 4 4
9 9 9 8 9 9 10 10 10 10 9 10 11 11 10 10 9 10 10 9 7 7 7 7 7 7 7 7 7 7 7 7 7 7 7 6 6 6 6 6 6 6 6 6 5 5 5 4 4
9 9 8 9 9 9 10 10 10 9 9 10 10 9 10 9 8 9 8 8 8 8 7 7 6 7 7 7 7 7 7 7 7 6 6 6 6 6 6 6 6 6 6 5 5 5 5 5 5
9 8 8 9 9 9 10 10 10 9 9 9 9 10 9 7 7 8 8 8 7 7 7 6 6 7 7 7 7 7 6 6 6 6 6 6 6 6 6 6 6 5 5 5 5 5 5 5 4
9 8 8 9 9 9 10 10 10 9 10 9 9 9 9 8 8 7 7 7 7 7 7 7 7 7 7 7 7 7 6 6 6 6 6 6 6 6 6 6 5 5 5 5 5 5 5 4 4
8 8 9 9 9 9 9 10 10 10 9 8 9 9 8 8 8 7 7 7 6 7 7 7 7 7 7 7 6 7 6 6 6 6 6 6 5 5 5 5 5 5 4 4 4 4 4 4 4
7 8 9 9 9 8 7 9 9 9 9 8 9 9 8 8 7 7 7 6 7 7 7 6 6 6 7 7 7 6 6 6 6 6 5 5 5 5 5 4 4 4 4 4 4 4 3 3 3
8 8 9 9 9 7 7 9 9 9 8 8 8 8 8 7 7 7 6 6 7 6 6 6 6 6 7 7 6 6 6 6 6 5 5 5 5 5 5 5 4 4 4 4 4 3 3 3 3
9 9 9 9 9 8 9 9 8 8 9 8 8 8 8 7 7 7 6 6 6 6 6 6 6 6 6 6 6 5 5 5 5 5 5 5 5 4 4 4 4 4 4 4 4 4 3 3 2
9 9 10 11 10 9 9 10 9 9 8 8 8 8 8 7 6 6 6 6 6 6 6 6 6 5 5 5 5 5 5 5 5 5 5 5 5 4 4 4 4 4 4 3 3 3 3 3 2
9 9 10 9 10 10 10 9 9 9 9 8 9 8 7 6 6 6 6 6 6 5 5 5 5 5 5 5 5 5 5 5 4 4 5 4 4 4 4 3 3 3 3 3 3 3 3 2 2
9 9 9 9 9 9 9 9 8 8 8 8 8 8 7 7 6 6 6 6 5 5 4 4 4 5 5 5 4 5 4 4 4 4 4 3 3 3 3 2 2 2 2 2 2 1 1 1 1
9 10 9 9 9 9 9 9 8 9 8 8 7 7 7 7 7 7 6 5 4 4 4 4 4 4 4 4 4 5 4 4 4 3 3 3 3 3 2 2 1 1 1 1 1 1 1 1 1
9 9 9 9 8 8 9 9 8 8 8 8 7 7 7 6 7 6 6 5 4 4 4 4 4 4 4 5 3 4 3 3 2 2 2 2 2 2 2 1 1 1 1 1 1 0 1 1 1
9 9 9 9 9 9 9 8 8 8 8 8 8 8 7 6 6 6 5 5 4 4 4 4 4 4 4 4 3 3 3 2 2 2 2 2 2 2 1 1 0 0 0 0 0 -0 -0 0 0
9 8 8 9 8 9 9 9 8 8 8 8 8 8 7 6 6 5 5 5 5 5 4 4 4 4 4 3 3 3 3 2 2 2 2 2 1 1 1 0 0 0 -0 -1 -1 -1 -1 -0 0
9 9 8 8 9 9 9 9 8 8 8 8 8 8 7 6 6 5 5 5 5 4 4 4 4 4 3 3 3 3 2 2 2 1 1 -0 -1 -1 -1 -1 -1 -2 -2 -2 -1 -1 -1 -1 -1
9 9 9 9 9 8 9 9 9 8 8 8 8 7 7 6 6 5 5 5 5 4 4 4 3 3 3 3 2 2 1 1 1 1 1 0 -0 -1 -1 -2 -2 -2 -2 -1 -1 -1 -1 -1 -1
9 10 9 9 9 9 9 9 8 8 8 8 8 8 7 7 6 6 5 5 5 4 4 3 3 3 3 2 2 1 1 1 1 0 -0 -1 -1 -2 -3 -2 -3 -3 -2 -2 -2 -2 -2 -2 -1
9 9 9 9 9 9 8 8 8 8 8 8 8 8 8 7 7 6 6 5 5 5 4 3 3 3 2 1 1 1 1 0 -1 -1 -1 -1 -2 -3 -4 -3 -3 -3 -3 -3 -3 -3 -3 -3 -3
8 8 8 8 8 8 8 7 8 7 8 7 7 7 7 7 6 6 6 6 5 4 3 3 3 2 2 2 2 1 1 -0 -1 -1 -2 -2 -3 -3 -2 -2 -3 -3 -4 -4 -4 -4 -5 -5 -4
8 7 7 8 8 8 8 6 5 6 6 6 6 7 7 6 6 6 5 5 5 4 3 3 3 2 2 1 1 0 -0 -1 -1 -1 -1 -2 -2 -2 -3 -3 -3 -4 -4 -5 -5 -5 -5 -5 -5
7 7 7 7 7 7 7 7 4 5 6 6 6 7 6 6 6 6 5 5 4 4 3 2 2 1 1 1 1 0 -0 -1 -1 -2 -2 -3 -3 -3 -4 -4 -4 -5 -5 -5 -5 -6 -6 -6 -7
6 7 7 7 7 5 6 7 4 4 6 5 5 5 5 5 5 4 4 4 3 3 2 2 1 1 1 0 -0 -1 -1 -2 -3 -3 -4 -4 -4 -5 -5 -5 -6 -6 -6 -6 -6 -7 -7 -7 -8
6 7 6 4 2 3 6 6 4 5 5 5 5 4 4 4 3 3 3 3 2 2 1 1 0 -0 -1 -2 -2 -2 -2 -3 -4 -5 -5 -6 -6 -6 -7 -6 -7 -7 -7 -7 -8 -8 -9 -10 -11
6 6 6 4 1 3 5 4 2 4 4 4 3 2 2 2 2 1 0 -0 -0 -0 -1 -1 -2 -2 -2 -2 -2 -2 -3 -4 -5 -5 -6 -6 -6 -7 -7 -8 -8 -9 -9 -10 -10 -10 -11 -11 -12
6 6 5 5 4 3 4 3 3 3 3 3 1 1 1 1 1 0 -0 -1 -1 -1 -2 -2 -2 -3 -3 -3 -3 -3 -4 -5 -5 -6 -7 -7 -8 -9 -9 -9 -10 -10 -10 -10 -11 -11 -12 -12 -13
6 5 5 5 1 3 3 4 4 3 3 2 1 1 1 1 -0 -0 -0 -1 -1 -2 -2 -2 -2 -2 -2 -3 -3 -5 -6 -6 -7 -7 -7 -8 -9 -9 -10 -10 -11 -10 -10 -11 -12 -12 -13 -14 -14
5 5 5 5 4 1 -2 2 3 3 2 2 1 1 0 0 -0 -1 -1 -2 -2 -2 -2 -2 -2 -3 -3 -4 -5 -6 -7 -7 -7 -8 -8 -9 -10 -10 -10 -11 -12 -11 -12 -12 -12 -13 -13 -14 -15
5 5 5 4 3 3 3 3 3 3 3 2 1 1 1 0 -0 -0 -1 -1 -1 -1 -2 -2 -3 -3 -4 -5 -6 -7 -7 -8 -9 -9 -10 -10 -10 -11 -11 -11 -12 -13 -13 -13 -13 -13 -14 -14 -15

GFSSGP_700_temp_027.txt.gz
Temp
9 9 9 8 8 8 9 10 9 9 9 9 9 9 10 10 9 9 9 9 8 8 7 6 7 7 7 7 7 7 7 7 7 7 7 7 7 6 6 6 6 6 6 6 5 5 5 5 4
9 9 9 8 8 8 9 10 10 10 10 9 9 9 9 8 9 9 9 9 8 8 7 7 7 7 7 7 7 7 7 7 7 7 7 6 6 6 6 6 6 6 6 5 5 5 5 4 4
9 9 9 8 8 9 9 10 10 9 8 8 8 8 7 8 8 9 8 9 8 8 7 6 6 6 6 7 7 7 7 7 7 6 6 6 6 6 6 6 5 5 5 5 5 5 4 4 4
9 8 8 9 9 9 9 10 10 10 9 8 7 6 7 7 7 8 8 8 8 7 6 6 6 6 7 7 7 7 6 6 6 6 6 6 6 6 6 5 5 5 5 5 5 5 4 4 4
8 8 8 8 8 8 9 9 9 9 9 9 8 7 8 6 6 7 7 7 6 6 6 6 6 7 7 6 7 6 6 6 6 6 6 6 5 5 5 5 5 5 5 5 4 4 4 4 4
9 8 8 7 8 8 8 8 9 9 9 9 8 8 8 6 6 7 7 7 5 6 6 6 6 6 6 6 6 6 6 6 6 6 5 5 5 5 5 4 4 4 4 4 4 4 4 4 3
8 8 8 8 8 8 7 8 9 9 9 9 8 9 8 7 6 7 7 6 6 6 6 6 6 6 6 6 6 6 6 6 6 5 5 5 5 4 4 4 4 4 4 4 4 3 3 3 3
8 8 8 8 8 6 7 8 8 9 9 9 9 8 8 7 6 6 6 6 6 6 6 6 6 6 6 6 6 6 6 6 5 5 5 4 4 4 4 4 4 4 4 4 4 3 3 2 2
8 8 9 8 8 8 7 7 8 8 9 8 8 8 8 8 7 7 7 6 6 6 6 6 6 6 6 6 6 6 5 5 5 5 5 5 4 4 4 4 4 4 4 3 3 3 3 2 2
8 8 8 9 9 9 8 8 8 8 8 8 8 8 8 7 7 7 6 6 6 6 5 5 5 6 6 5 5 5 5 5 5 5 4 4 4 4 4 3 3 3 3 3 2 3 3 2 2
8 9 10 9 9 9 8 8 9 8 8 8 8 8 8 7 7 6 6 5 5 5 5 5 5 5 5 5 5 5 5 4 4 4 4 4 4 3 3 3 2 2 2 2 2 2 2 2 1
9 9 9 10 9 9 9 9 9 8 8 8 8 8 8 7 7 6 5 6 5 4 5 5 5 5 5 5 5 5 5 4 4 4 4 3 3 3 3 2 2 1 1 1 1 1 1 1 1
9 9 9 10 9 9 9 9 8 8 8 8 8 8 7 7 7 6 5 5 5 4 4 5 4 4 4 4 4 4 4 4 4 3 3 3 2 2 2 1 1 1 1 1 0 0 0 0 0
9 9 9 9 9 9 9 8 8 8 8 8 7 7 7 7 6 6 6 6 5 5 4 5 4 5 5 4 4 4 4 3 3 2 2 2 2 2 2 1 0 0 1 0 -0 -0 -0 0 -0
9 9 9 8 9 9 8 8 8 8 8 8 8 7 6 6 5 5 5 5 5 5 4 4 4 4 4 4 4 3 3 3 3 2 2 2 2 2 2 2 1 1 0 -0 -0 -0 -0 -0 -0
8 8 8 8 8 8 8 8 8 8 8 8 8 7 6 5 5 5 5 4 4 4 4 4 3 3 3 3 3 3 3 2 2 2 2 2 2 1 1 1 0 -0 -1 -1 -1 -1 -1 -1 -1
9 9 9 8 8 9 8 8 8 8 8 8 8 7 6 6 5 5 5 4 4 4 4 3 3 3 2 3 3 3 3 2 2 1 1 1 0 -0 -0 -1 -1 -2 -2 -2 -2 -1 -1 -1 -1
9 9 8 8 9 8 8 9 8 8 8 8 8 7 7 6 6 5 5 4 4 4 4 3 3 3 2 2 2 2 2 2 1 1 0 -1 -1 -1 -2 -2 -2 -2 -3 -2 -2 -2 -2 -2 -2
9 9 8 8 9 8 8 8 9 8 8 8 7 7 7 7 6 6 5 4 4 4 4 3 2 3 2 2 1 2 1 1 1 -0 -1 -2 -2 -2 -3 -3 -3 -3 -3 -3 -3 -3 -3 -3 -3
9 9 8 8 8 8 8 8 8 7 7 7 7 7 7 7 7 6 6 5 4 4 4 4 3 2 2 1 1 1 0 -0 -1 -2 -2 -2 -2 -3 -3 -3 -3 -3 -3 -3 -3 -4 -4 -4 -4
8 9 8 8 8 8 7 7 7 7 7 7 7 7 6 6 6 6 6 5 5 4 4 3 2 1 1 0 -0 -0 -1 -1 -2 -2 -3 -2 -2 -2 -2 -2 -3 -3 -4 -4 -5 -5 -5 -5 -5
8 8 8 8 8 7 7 4 5 7 7 7 6 6 5 4 4 5 3 4 4 3 2 2 1 1 1 0 -0 -1 -1 -1 -2 -2 -2 -1 -1 -2 -3 -3 -4 -4 -5 -5 -6 -6 -6 -6 -7
7 7 7 6 7 6 6 5 4 4 5 5 5 4 4 4 5 4 3 3 3 2 2 2 1 1 1 1 1 0 -0 -1 -1 -1 -2 -2 -3 -4 -4 -5 -5 -5 -6 -6 -6 -6 -7 -7 -8
6 6 6 6 6 5 5 5 3 4 5 5 5 4 4 3 3 3 3 3 2 2 2 2 1 1 0 -0 -0 -1 -2 -2 -2 -2 -3 -4 -4 -5 -5 -5 -6 -7 -7 -8 -8 -8 -8 -9 -9
6 6 6 4 2 1 5 5 4 4 4 5 5 5 4 3 2 2 2 1 2 3 2 1 -0 -1 -1 -2 -2 -2 -2 -3 -3 -4 -4 -5 -5 -6 -7 -8 -8 -8 -9 -9 -10 -10 -10 -10 -10
6 6 6 4 0 3 4 3 4 4 4 4 3 3 2 2 2 2 3 2 2 1 -0 -1 -1 -1 -2 -2 -2 -2 -3 -3 -3 -4 -5 -6 -7 -7 -8 -9 -10 -10 -10 -11 -12 -11 -11 -11 -12
6 6 5 5 3 3 3 2 3 3 3 2 3 2 2 3 2 1 1 1 0 -1 -1 -1 -1 -1 -1 -2 -2 -2 -3 -4 -5 -6 -7 -7 -8 -8 -9 -10 -10 -11 -11 -11 -12 -12 -12 -12 -12
6 5 5 5 1 2 2 2 3 3 3 3 3 3 2 2 1 1 0 -0 -1 -1 -2 -1 -1 -2 -2 -2 -3 -4 -5 -5 -6 -7 -8 -9 -9 -10 -11 -11 -11 -11 -11 -12 -13 -13 -13 -13 -13
5 5 5 4 4 -0 -3 3 3 3 3 3 3 2 1 1 0 0 -1 -1 -2 -2 -2 -2 -2 -2 -2 -3 -4 -5 -6 -7 -8 -9 -10 -10 -10 -11 -11 -11 -12 -11 -12 -13 -14 -14 -13 -13 -14
5 5 5 5 3 3 2 3 3 3 3 3 2 1 1 1 0 -0 -1 -2 -2 -2 -2 -2 -2 -3 -3 -4 -5 -6 -7 -8 -9 -10 -10 -11 -11 -11 -12 -12 -12 -13 -13 -13 -14 -14 -14 -14 -15

GFSSGP_700_temp_030.txt.gz
Temp
9 9 9 8 8 8 8 9 9 9 9 8 7 7 8 8 7 8 8 7 7 6 7 7 7 6 6 6 6 6 6 7 7 7 6 6 6 6 6 6 6 6 6 5 5 5 5 5 5
9 9 9 8 8 7 9 9 9 9 9 8 7 7 7 6 6 8 7 8 7 6 6 6 6 6 6 6 6 7 7 7 7 6 6 6 6 6 6 6 5 5 5 5 5 5 4 4 4
9 9 8 8 8 9 9 9 8 8 7 8 7 7 6 5 7 7 7 7 8 7 6 6 6 6 6 6 7 7 7 6 6 6 6 6 6 5 6 5 5 5 5 5 4 4 4 4 4
9 8 8 8 9 9 9 8 8 7 8 8 8 7 6 6 7 7 7 8 7 7 6 6 6 6 6 7 7 6 6 6 6 6 6 5 5 5 5 5 5 5 5 5 5 5 4 4 4
9 8 8 8 7 8 9 8 8 7 8 8 8 8 7 6 7 7 7 7 7 6 6 5 6 6 6 6 6 6 6 6 6 6 5 5 5 5 5 5 4 4 4 4 4 4 4 4 4
8 8 8 7 7 7 9 8 7 6 6 7 8 7 6 6 7 7 7 6 6 5 6 6 6 6 6 6 6 6 6 6 5 5 5 5 5 5 4 4 4 4 4 4 4 3 3 3 3
8 8 8 8 7 7 7 7 6 6 5 7 8 8 7 7 7 6 6 6 6 5 5 6 6 6 6 6 6 6 6 5 5 5 5 5 4 4 4 4 4 4 3 3 3 3 3 2 2
7 8 8 8 7 6 7 7 5 6 6 7 7 8 8 7 6 6 6 6 5 6 6 6 6 6 6 6 6 6 5 5 5 5 4 4 4 4 4 4 3 3 3 3 3 2 2 2 1
7 8 8 8 8 5 6 6 6 7 7 7 8 7 8 7 6 6 7 6 6 6 6 6 6 6 6 6 5 5 5 5 4 4 4 4 4 4 4 3 3 3 3 2 2 2 2 2 1
8 8 9 8 7 8 8 8 7 6 7 8 8 7 7 7 6 6 6 6 6 5 6 6 6 6 5 5 5 5 5 4 4 4 4 4 4 4 3 3 3 3 2 2 1 1 1 1 1
8 8 8 8 8 9 9 8 7 8 8 7 7 7 7 7 6 6 6 5 5 4 5 5 5 5 5 5 4 4 4 4 4 4 4 4 4 3 3 2 2 2 2 1 1 1 1 0 1
8 9 8 9 9 9 8 8 7 8 8 8 7 6 7 7 6 6 5 5 5 5 4 4 4 4 4 4 4 4 4 4 4 4 3 3 3 3 3 2 1 1 1 1 1 0 0 -0 0
8 9 9 9 9 8 8 8 8 8 8 8 7 7 7 7 6 5 5 4 5 5 5 4 4 4 4 4 4 4 4 4 4 3 3 3 3 3 2 2 1 1 0 0 0 -0 -0 -0 -1
9 9 9 9 9 8 8 8 8 8 8 8 7 7 6 6 6 6 6 5 5 4 4 3 3 3 3 3 2 3 3 3 3 3 3 3 2 2 2 1 1 0 0 -0 -0 -1 -1 -0 -0
9 9 9 8 8 8 8 8 8 8 8 8 7 6 6 6 5 5 5 5 4 4 3 3 3 3 3 3 3 2 2 2 2 2 2 2 2 1 1 0 -0 -1 -1 -1 -1 -1 -1 -1 -1
8 8 8 8 8 8 8 8 8 8 8 8 7 6 6 6 5 5 5 4 4 4 3 3 3 3 3 2 2 1 2 2 2 2 2 1 1 1 0 -1 -1 -1 -1 -2 -2 -2 -2 -2 -2
8 8 8 8 8 8 8 8 8 8 8 8 7 7 6 5 5 5 4 4 4 4 4 3 3 2 2 1 1 1 1 1 1 1 1 0 -0 -1 -2 -2 -2 -2 -2 -2 -2 -2 -2 -2 -2
8 8 8 8 8 8 8 8 8 8 8 8 8 7 7 6 5 5 4 4 4 4 4 3 3 1 2 1 0 1 1 1 1 0 -0 -1 -2 -2 -2 -2 -3 -2 -2 -2 -2 -2 -3 -3 -2
8 9 9 8 8 8 8 8 8 8 8 8 8 7 7 6 6 5 5 4 4 4 4 3 2 1 2 1 1 0 0 0 -0 -0 -1 -2 -3 -3 -2 -2 -2 -2 -2 -2 -2 -3 -3 -3 -3
9 9 8 8 8 8 8 8 8 8 8 7 7 7 7 7 6 6 5 5 4 4 3 1 2 2 1 1 1 1 1 0 -1 -1 -2 -2 -2 -2 -2 -2 -2 -2 -2 -2 -3 -3 -4 -4 -4
8 8 7 7 7 8 8 7 7 8 7 7 7 7 6 6 6 6 5 5 4 3 3 3 2 1 1 1 0 -0 -0 -1 -1 -1 -2 -2 -2 -2 -2 -1 -2 -2 -3 -4 -4 -4 -5 -5 -6
8 7 7 7 7 7 7 6 6 7 7 7 7 6 6 5 4 4 4 3 3 3 2 2 1 1 1 1 0 0 -0 -1 -1 -1 -1 -1 -2 -2 -2 -3 -4 -5 -5 -5 -6 -6 -6 -7 -7
7 7 7 7 7 6 6 6 5 5 6 6 6 5 4 3 3 3 3 3 2 2 1 1 1 1 1 0 -0 -0 -1 -2 -2 -2 -2 -3 -3 -4 -5 -5 -5 -5 -6 -6 -6 -7 -8 -9 -9
7 6 6 6 6 4 5 5 5 6 6 6 5 4 3 3 3 3 2 2 1 1 1 -0 0 0 0 -1 -1 -1 -2 -2 -3 -3 -3 -4 -4 -5 -5 -5 -6 -7 -7 -8 -9 -10 -10 -10 -11
6 6 5 3 1 1 4 4 5 5 5 4 5 4 3 3 2 2 2 2 1 1 0 0 -0 -1 -1 -1 -2 -2 -3 -3 -3 -4 -4 -5 -5 -5 -6 -7 -7 -8 -8 -9 -10 -11 -11 -11 -12
6 6 6 4 -0 2 4 4 5 5 4 3 3 3 3 2 2 2 3 2 1 0 -0 -0 -1 -1 -2 -2 -2 -2 -3 -3 -4 -4 -5 -5 -5 -6 -6 -7 -9 -10 -11 -11 -11 -12 -12 -12 -13
5 6 5 5 3 2 3 3 4 4 4 4 3 3 3 2 3 3 2 2 1 1 -0 -1 -2 -2 -2 -2 -2 -3 -3 -4 -4 -4 -5 -6 -7 -7 -9 -10 -11 -11 -12 -12 -13 -12 -13 -14 -13
5 5 5 5 1 2 2 2 4 4 4 4 3 3 3 3 2 2 2 1 0 -0 -1 -2 -2 -3 -3 -2 -3 -3 -4 -5 -5 -6 -7 -8 -9 -10 -11 -11 -12 -13 -13 -13 -13 -13 -14 -14 -14
5 5 5 4 3 -1 -3 2 4 4 3 3 3 3 3 2 1 1 1 0 -0 -1 -1 -2 -2 -3 -3 -3 -3 -4 -5 -6 -6 -7 -9 -10 -10 -11 -11 -11 -12 -13 -13 -14 -14 -14 -14 -14 -15
5 5 5 5 3 3 2 4 4 3 3 2 2 2 2 1 1 0 0 -0 -1 -2 -2 -3 -3 -3 -3 -4 -5 -5 -6 -7 -8 -9 -9 -10 -10 -10 -11 -11 -12 -13 -13 -14 -14 -14 -14 -15 -15

GFSSGP_700_temp_033.txt.gz
Temp
9 9 8 8 8 8 9 9 8 8 8 7 6 6 7 7 7 7 8 7 6 7 6 6 6 6 5 6 6 6 6 6 6 6 6 6 6 5 5 5 5 5 5 5 5 5 5 5 5
8 8 8 8 8 8 8 9 9 8 8 6 6 6 6 6 7 7 6 7 7 6 6 6 6 5 6 6 6 6 6 6 6 6 6 6 5 5 5 5 5 5 5 5 5 5 5 4 4
8 8 8 8 9 8 9 8 9 7 6 6 6 5 6 5 5 5 6 6 5 6 6 6 6 6 6 6 6 6 6 6 6 6 6 5 5 5 5 5 5 5 5 5 5 5 4 4 4
8 8 8 8 8 8 8 7 8 5 4 5 5 5 6 6 5 5 5 5 6 5 5 6 6 6 6 6 6 6 6 6 6 6 5 5 5 5 5 5 4 4 5 4 4 4 4 4 4
8 8 8 8 7 8 8 7 7 7 6 4 5 7 7 7 6 5 5 5 6 5 5 6 6 6 6 6 6 6 6 6 5 5 5 5 5 5 4 4 4 4 4 4 4 4 4 4 4
7 7 8 7 7 8 8 7 6 7 6 6 6 7 6 6 5 5 5 5 5 5 6 6 6 6 6 6 6 6 6 5 5 5 5 4 5 4 4 4 4 4 4 4 3 3 3 3 3
7 7 8 7 6 5 6 6 6 6 5 5 6 6 6 6 5 5 5 5 5 5 5 5 6 6 6 6 6 6 5 5 5 4 4 4 4 4 4 4 4 3 3 3 3 2 2 2 1
7 7 8 7 6 5 5 5 6 6 5 6 6 6 7 6 6 5 5 6 6 6 6 6 5 5 5 6 5 5 5 5 4 4 4 4 4 4 3 3 3 3 3 3 2 2 2 2 1
7 7 8 8 7 5 5 5 5 6 7 6 6 7 7 7 7 6 6 7 6 6 6 5 5 5 5 5 5 5 4 4 4 4 4 4 4 3 3 3 3 3 3 2 2 1 1 1 1
7 7 8 8 8 7 7 7 7 6 5 6 6 7 7 7 7 7 7 6 6 5 5 5 5 5 5 4 4 4 4 4 4 4 4 3 4 3 3 3 3 3 2 2 1 1 1 1 1
7 8 8 8 8 7 7 6 7 6 6 7 7 7 7 7 6 6 6 5 5 5 5 5 5 5 4 4 4 4 4 3 3 3 3 4 3 3 3 3 2 2 1 1 0 0 0 0 0
8 8 8 8 7 7 6 7 8 7 7 7 7 6 7 6 6 5 5 5 4 4 4 4 4 4 4 4 4 3 3 3 3 3 3 3 3 3 2 2 2 1 1 0 -0 -0 -0 -0 -0
8 8 9 8 7 7 7 8 8 7 7 7 7 6 6 6 5 5 4 4 4 4 4 3 3 3 3 3 3 3 3 3 3 3 3 3 2 2 2 2 1 0 -0 -0 -1 -1 -1 -1 -1
8 8 9 8 7 7 8 7 7 7 7 7 6 6 6 6 5 5 4 4 4 4 3 3 3 3 2 2 2 2 2 2 3 2 2 2 2 1 1 1 0 -0 -0 -1 -1 -1 -1 -1 -1
8 8 8 7 7 7 7 7 8 8 7 7 6 6 6 6 5 5 4 4 4 3 3 3 2 2 2 2 2 2 2 2 1 2 1 1 1 1 1 0 -0 -1 -1 -1 -1 -1 -2 -2 -1
8 8 8 7 7 8 7 7 8 7 7 7 7 6 6 6 6 5 5 4 4 3 3 3 3 3 2 2 2 1 0 1 1 1 1 0 0 0 -0 -0 -1 -1 -1 -1 -1 -2 -2 -1 -1
8 8 8 7 8 8 8 8 8 7 7 7 7 7 6 6 5 5 5 4 4 3 3 3 3 3 3 1 1 0 1 1 1 1 0 0 0 -0 -1 -1 -2 -2 -2 -2 -2 -2 -2 -2 -2
8 8 8 8 8 8 8 8 8 7 7 7 7 7 7 6 5 5 4 4 4 4 4 4 3 2 2 1 1 0 1 0 0 0 -0 -0 -1 -1 -2 -2 -2 -2 -2 -2 -2 -2 -2 -2 -2
8 8 8 8 8 7 8 8 7 8 8 7 7 7 7 6 6 5 4 4 4 4 4 3 2 2 0 1 1 1 0 0 -0 -0 -1 -1 -1 -1 -1 -2 -2 -2 -2 -2 -2 -2 -2 -2 -2
8 8 8 7 8 8 8 8 8 8 8 8 7 7 7 6 6 5 5 4 4 4 3 1 1 1 1 1 0 -0 -1 -1 -1 -1 -1 -1 -1 -1 -2 -2 -2 -2 -2 -2 -2 -2 -3 -3 -4
8 8 7 7 7 7 8 8 8 8 8 8 7 7 6 6 5 5 4 4 4 3 3 2 2 2 1 0 -0 -1 -1 -1 -1 -1 -1 -1 -2 -2 -2 -2 -2 -3 -3 -4 -4 -4 -5 -5 -6
8 7 7 7 7 7 7 8 8 8 7 8 7 7 6 6 5 5 4 4 4 3 2 2 1 0 0 -0 -1 -1 -1 -1 -2 -2 -2 -2 -2 -3 -3 -3 -4 -4 -5 -5 -5 -6 -7 -7 -8
7 7 7 7 7 7 7 6 7 7 7 7 7 7 6 5 4 4 3 3 3 2 1 1 1 1 -0 -0 -0 -1 -1 -2 -2 -2 -2 -3 -3 -3 -4 -4 -5 -5 -6 -7 -7 -7 -8 -9 -10
7 6 6 6 6 5 6 5 6 7 7 7 6 5 4 4 3 3 2 2 2 2 1 1 1 0 -0 -1 -1 -1 -2 -2 -2 -2 -3 -4 -4 -5 -5 -5 -6 -7 -7 -7 -8 -9 -10 -11 -11
6 6 5 5 4 5 4 4 6 6 6 5 5 5 4 3 2 2 2 2 2 2 1 1 0 -0 -1 -1 -2 -2 -2 -2 -3 -3 -4 -5 -4 -5 -5 -6 -7 -8 -9 -9 -10 -10 -11 -12 -12
5 5 6 4 4 4 4 3 5 5 6 4 4 3 3 3 3 3 2 2 1 1 1 0 -1 -1 -2 -2 -3 -3 -3 -3 -4 -4 -4 -5 -5 -6 -7 -8 -8 -9 -10 -10 -11 -12 -12 -13 -13
5 5 5 5 3 3 4 4 5 5 5 4 3 3 3 3 3 2 2 2 1 1 0 -0 -1 -1 -2 -3 -3 -4 -3 -4 -4 -4 -5 -5 -6 -7 -7 -8 -9 -9 -10 -11 -12 -13 -13 -13 -14
5 5 5 5 3 3 3 3 5 5 5 4 4 4 3 3 3 2 2 2 1 1 -0 -1 -2 -2 -2 -3 -4 -3 -4 -4 -5 -5 -5 -6 -7 -8 -8 -9 -10 -10 -11 -12 -13 -13 -13 -14 -14
5 5 5 5 4 3 2 4 6 5 4 4 4 4 3 3 2 2 2 1 1 -0 -1 -2 -2 -2 -3 -3 -4 -4 -4 -5 -5 -6 -7 -8 -8 -8 -9 -10 -10 -11 -12 -12 -13 -14 -13 -14 -14
5 5 5 5 3 3 2 4 5 5 4 4 3 3 2 2 2 2 1 1 -0 -1 -2 -2 -2 -3 -4 -4 -4 -5 -5 -5 -6 -7 -7 -8 -8 -9 -10 -10 -11 -12 -12 -12 -13 -13 -13 -14 -15

GFSSGP_700_temp_036.txt.gz
Temp
9 9 8 8 8 9 11 11 9 7 7 6 6 6 6 7 7 7 7 7 7 6 7 6 6 6 6 6 6 6 6 6 6 6 6 6 6 6 5 5 5 5 5 5 5 5 5 5 5
8 8 8 7 9 11 12 10 9 6 6 6 6 6 6 7 7 8 6 6 6 6 6 6 6 6 5 6 6 6 6 6 6 6 5 6 5 5 5 5 5 5 5 5 5 5 5 5 5
8 8 7 8 10 11 11 9 7 5 6 6 5 5 5 6 6 6 6 6 7 6 6 6 5 6 5 5 6 5 5 5 5 5 5 5 5 5 5 5 5 5 4 4 4 4 4 4 4
8 8 8 8 10 9 9 7 6 7 6 6 6 6 6 4 5 4 4 5 5 5 5 5 5 5 5 6 5 5 5 5 5 5 5 5 5 5 5 4 4 4 4 4 4 4 4 4 4
8 7 8 9 9 8 8 6 6 6 7 5 4 5 5 5 5 5 5 4 5 5 5 5 5 5 5 5 5 5 5 5 5 5 5 5 5 5 4 4 4 4 4 4 4 3 3 3 3
6 7 9 10 9 7 7 6 6 5 6 6 6 6 6 5 5 6 4 5 5 5 5 5 5 6 5 5 5 5 5 5 5 5 5 5 5 4 4 4 4 4 4 4 3 3 3 3 2
7 8 9 9 8 7 6 5 6 6 5 7 6 5 6 5 5 6 7 5 5 5 5 5 5 6 5 5 5 5 5 4 4 5 4 4 4 4 4 3 3 3 3 3 3 2 2 2 2
6 7 8 8 8 6 5 4 5 5 5 6 6 5 6 5 5 4 5 5 5 5 5 5 5 5 5 5 5 5 4 4 4 4 4 4 3 3 3 3 3 3 3 2 2 2 2 1 1
7 8 9 8 7 6 6 5 6 5 4 5 6 6 6 5 5 5 5 5 5 5 5 5 5 5 5 5 5 4 4 4 4 4 3 3 3 3 3 3 3 3 2 2 2 2 1 1 1
6 8 9 8 8 7 7 6 5 6 6 6 6 6 6 5 6 5 5 5 5 5 5 5 5 5 4 4 4 4 4 3 3 3 3 3 3 2 3 3 2 2 2 2 1 1 1 1 1
6 8 8 8 7 7 6 6 6 6 6 6 6 6 7 6 6 5 5 5 5 5 5 4 4 4 4 4 4 3 3 3 3 3 3 3 3 2 2 2 1 1 1 1 1 0 1 0 1
7 7 7 8 7 7 7 6 6 6 7 6 6 6 7 6 6 5 5 6 5 4 4 4 4 4 4 4 3 3 3 3 3 2 2 2 2 2 2 1 1 1 0 0 0 0 0 0 0
7 7 7 7 7 7 7 6 6 6 7 7 6 6 6 6 6 5 5 4 4 4 4 4 4 4 3 3 3 3 3 3 2 2 2 1 1 1 1 1 0 0 0 0 -0 -0 -0 -0 -0
7 8 8 7 7 7 7 7 6 7 7 7 7 6 6 6 5 5 5 4 4 3 3 3 3 3 3 3 3 3 2 2 1 1 0 0 1 1 0 0 0 0 0 0 -0 -1 -1 -1 -1
8 8 8 8 7 7 7 6 7 7 7 6 6 5 5 5 5 4 4 4 4 3 3 3 3 3 3 3 3 2 1 1 2 1 1 1 1 0 0 0 0 0 0 -0 -1 -1 -1 -1 -1
7 7 8 8 8 8 7 8 7 7 7 6 6 6 6 5 5 4 4 4 3 3 3 3 3 3 3 2 2 1 0 1 1 1 1 1 0 0 0 0 0 -0 -1 -1 -2 -2 -2 -2 -2
7 9 8 7 8 7 8 7 7 7 7 6 6 6 6 6 5 5 5 4 4 3 3 3 3 3 3 2 1 1 1 2 1 1 0 0 -0 0 0 -0 -1 -2 -2 -2 -2 -2 -2 -2 -2
9 8 8 8 7 7 7 8 7 7 7 7 7 6 6 6 5 5 5 4 4 4 3 3 3 2 2 2 0 0 -0 1 0 0 0 -0 -0 -0 -1 -1 -2 -2 -2 -2 -2 -2 -2 -2 -1
8 9 9 8 8 7 7 7 8 7 7 7 7 6 6 6 5 5 4 4 4 4 3 3 2 2 1 0 1 0 0 1 1 0 -0 -1 -1 -1 -2 -2 -2 -2 -2 -2 -2 -2 -2 -2 -2
8 8 8 8 8 8 8 8 8 8 8 7 7 7 6 6 6 5 5 4 4 4 3 3 3 3 2 1 1 1 0 -0 -1 -1 -1 -1 -1 -1 -2 -2 -2 -3 -3 -3 -3 -3 -3 -4 -4
7 8 8 8 8 7 7 7 8 8 8 8 8 7 7 6 6 5 5 4 4 4 3 3 2 2 1 1 0 -0 -1 -1 -1 -2 -2 -2 -2 -2 -2 -3 -3 -3 -3 -4 -4 -4 -5 -5 -6
8 8 8 8 8 9 8 10 7 8 8 8 8 7 6 6 6 5 5 4 4 3 3 2 1 1 1 0 -1 -1 -2 -2 -2 -2 -2 -2 -2 -3 -3 -3 -4 -4 -5 -5 -5 -6 -6 -6 -7
7 7 7 7 8 8 7 8 9 8 8 8 8 7 6 6 6 5 4 3 4 3 2 1 2 1 1 0 -1 -1 -2 -2 -2 -2 -2 -3 -3 -4 -4 -4 -5 -5 -5 -6 -6 -7 -8 -8 -9
7 7 6 6 7 8 8 7 10 9 6 6 7 6 6 6 5 4 4 3 3 2 2 2 1 1 0 -0 -1 -1 -2 -2 -2 -3 -3 -3 -4 -4 -5 -4 -5 -5 -6 -7 -8 -9 -10 -11 -12
6 7 8 8 8 8 5 6 8 7 7 6 6 6 6 5 4 4 3 3 2 2 2 1 1 0 -1 -1 -1 -1 -2 -2 -3 -3 -3 -4 -4 -5 -5 -6 -6 -7 -8 -9 -10 -11 -12 -12 -12
6 7 7 7 7 8 4 7 8 6 6 6 6 5 5 4 4 3 3 2 2 2 1 1 0 -0 -1 -1 -2 -2 -2 -3 -3 -3 -4 -4 -5 -5 -6 -6 -7 -8 -9 -9 -9 -11 -12 -12 -12
6 6 6 5 4 5 8 6 6 6 6 6 5 5 4 4 3 3 2 2 2 1 1 0 -0 -1 -1 -2 -2 -2 -3 -3 -4 -4 -5 -5 -5 -6 -7 -7 -8 -8 -9 -9 -10 -12 -12 -13 -13
5 5 5 5 5 6 8 7 8 6 5 5 5 5 4 3 3 2 2 2 2 1 1 -0 -1 -1 -1 -2 -2 -3 -3 -4 -5 -5 -5 -5 -6 -7 -7 -8 -8 -8 -9 -10 -11 -12 -13 -13 -13
5 5 5 5 5 7 7 9 6 6 6 5 4 4 3 3 2 2 2 2 1 1 0 -1 -1 -2 -2 -2 -3 -3 -4 -5 -5 -5 -6 -6 -7 -7 -8 -8 -9 -9 -10 -11 -12 -12 -13 -13 -13
5 5 5 6 5 3 4 7 6 6 6 5 4 3 3 3 2 2 2 2 1 1 -0 -1 -1 -2 -2 -3 -3 -4 -5 -5 -6 -6 -7 -7 -7 -8 -8 -9 -10 -10 -11 -12 -12 -12 -13 -13 -14

GFSSGP_700_temp_039.txt.gz
Temp
9 8 8 8 9 10 12 14 13 10 9 8 8 8 9 9 9 9 8 8 7 7 6 7 7 7 6 6 6 6 5 6 6 6 5 6 6 6 6 6 5 5 5 5 5 5 5 5 5
8 8 8 8 10 12 14 13 12 8 7 7 7 7 7 7 8 8 7 6 6 6 6 6 6 6 6 6 6 6 6 6 5 5 5 5 5 5 5 5 5 5 5 5 5 5 5 5 5
8 8 7 9 10 12 13 11 8 7 7 6 6 5 7 7 7 7 7 6 6 6 6 6 6 6 6 6 6 6 6 6 5 5 5 5 5 5 5 5 5 4 4 4 4 4 4 4 5
8 8 8 9 11 13 12 9 8 7 7 6 7 6 5 5 6 6 5 6 5 4 4 4 5 6 6 6 6 6 6 5 5 5 5 5 5 5 4 4 4 4 4 4 4 4 4 4 4
8 8 9 11 11 11 10 9 8 7 7 6 7 5 6 5 6 5 5 5 5 5 4 4 5 5 5 6 6 6 5 5 5 5 4 4 4 4 4 4 4 4 4 4 3 3 3 3 3
7 8 10 12 12 10 10 8 9 7 7 6 6 6 6 6 5 5 5 4 5 5 3 4 5 5 5 5 6 5 5 5 4 4 4 4 4 4 4 4 4 4 3 3 3 3 2 2 2
7 9 10 12 11 9 9 7 7 7 7 6 5 5 5 5 5 5 4 3 5 3 4 5 5 5 5 6 5 5 5 4 4 4 4 4 4 4 4 3 3 3 3 3 2 2 2 2 1
8 9 10 11 9 9 8 8 7 7 7 6 6 6 5 5 5 4 4 4 3 4 4 5 5 5 5 5 5 5 4 4 4 4 4 4 3 3 3 3 3 3 2 2 2 2 2 2 1
7 9 11 10 8 7 7 7 7 6 7 6 5 5 5 5 5 5 5 4 4 4 4 5 5 5 5 5 5 5 4 4 4 3 3 3 3 3 3 3 2 2 2 2 1 1 1 1 1
7 9 11 9 7 5 6 6 7 6 6 5 6 6 6 5 5 5 5 5 5 5 5 5 5 5 5 5 4 4 4 3 3 3 3 3 3 2 2 2 2 1 1 1 1 1 1 1 0
8 9 10 9 9 6 7 7 7 7 7 7 6 6 6 6 5 5 5 5 4 5 5 5 5 5 4 4 4 4 3 3 3 3 3 3 2 2 2 1 1 1 1 1 1 1 1 1 0
8 9 9 9 9 7 7 8 8 7 4 8 7 6 6 6 5 5 5 5 5 5 4 5 5 4 4 4 3 3 3 3 3 2 2 2 1 1 1 1 0 0 0 1 1 0 0 0 0
8 9 8 8 8 7 7 7 8 7 7 7 6 6 6 5 4 3 3 3 3 4 4 4 4 4 3 3 3 3 3 2 2 2 1 1 1 1 0 0 0 0 0 0 0 0 -0 -0 -0
8 8 8 7 7 7 8 8 8 7 6 6 6 7 6 4 3 3 3 2 3 4 4 4 3 3 3 3 3 2 2 2 1 1 1 1 0 0 0 0 1 1 0 -0 -0 -0 -1 -1 -1
7 8 7 7 8 7 8 7 6 6 6 6 6 5 4 4 4 3 3 4 3 3 4 4 4 4 4 3 3 2 2 1 1 1 1 0 0 0 -0 0 0 -0 -0 0 -0 -1 -1 -1 -1
8 8 8 8 8 8 8 8 7 7 6 6 5 5 5 4 4 3 4 4 4 3 4 4 4 3 3 3 3 2 1 1 1 2 3 0 1 0 0 1 0 -0 -0 -0 -1 -1 -1 -1 -1
8 9 9 8 8 8 8 9 8 7 6 6 6 5 5 5 4 4 4 4 3 3 4 3 3 3 3 3 2 1 1 -0 1 1 1 1 1 0 0 0 0 -0 -1 -1 -1 -1 -2 -2 -2
9 9 10 9 8 8 8 9 8 7 7 7 6 5 5 4 4 4 5 4 2 3 5 3 3 3 3 2 2 1 2 2 -0 -0 1 1 0 0 0 -0 -0 -1 -2 -2 -2 -2 -2 -2 -2
9 10 10 10 9 8 9 9 7 7 7 7 6 6 5 4 4 6 5 4 4 4 4 4 3 3 3 2 2 2 2 1 0 0 0 0 -0 -1 -1 -1 -1 -1 -2 -2 -2 -2 -2 -2 -2
9 10 10 9 8 9 9 9 8 7 7 7 6 6 5 5 5 5 5 5 4 4 4 4 3 3 3 2 1 1 1 0 0 -0 -1 -1 -1 -1 -1 -1 -2 -2 -2 -3 -3 -3 -3 -3 -4
9 9 8 9 8 8 9 9 8 7 7 7 6 6 5 4 5 5 5 5 4 4 4 3 3 2 2 2 1 0 -0 -0 -1 -1 -1 -1 -2 -2 -2 -3 -3 -3 -3 -4 -4 -4 -4 -4 -5
8 9 9 9 9 10 9 11 9 8 8 8 8 6 5 4 3 5 5 5 5 4 3 3 2 2 1 1 0 -0 -1 -2 -2 -2 -2 -3 -3 -3 -3 -3 -3 -4 -4 -4 -4 -5 -5 -6 -7
7 8 9 9 10 9 10 10 9 8 8 7 8 8 5 4 3 5 5 5 4 4 3 2 2 2 1 0 -0 -1 -1 -1 -2 -2 -2 -3 -3 -3 -3 -4 -4 -4 -4 -5 -6 -6 -7 -8 -10
8 8 8 8 9 10 10 10 11 10 9 8 5 7 4 4 4 5 5 4 4 3 3 2 2 2 1 0 -0 -1 -1 -2 -2 -2 -3 -3 -4 -4 -5 -5 -5 -5 -5 -6 -7 -7 -8 -9 -10
7 8 9 9 10 10 9 9 10 9 7 7 6 5 4 6 5 5 5 4 3 3 2 2 2 1 1 0 -0 -1 -1 -2 -2 -3 -3 -4 -4 -5 -5 -5 -5 -5 -6 -6 -7 -8 -9 -10 -11
8 8 9 8 9 10 8 9 10 8 8 6 5 4 4 5 5 4 4 3 3 2 2 2 1 1 1 -0 -1 -1 -1 -2 -3 -3 -3 -4 -4 -5 -5 -5 -5 -6 -7 -7 -8 -9 -11 -11 -11
8 8 7 8 7 7 9 10 8 8 6 6 4 3 4 4 4 4 3 3 2 2 2 2 1 0 0 -0 -1 -1 -1 -2 -2 -3 -3 -4 -5 -5 -5 -6 -6 -7 -7 -8 -8 -9 -12 -11 -12
6 7 7 7 7 8 11 10 10 7 6 5 4 3 3 2 2 2 3 3 2 2 2 1 0 0 -0 -1 -1 -2 -2 -2 -3 -3 -4 -5 -5 -5 -6 -7 -7 -7 -8 -9 -9 -11 -11 -12 -12
6 6 7 7 7 8 9 10 8 7 6 5 5 4 3 2 2 1 2 3 2 2 2 1 0 -0 -1 -1 -1 -2 -2 -2 -3 -4 -5 -5 -6 -6 -7 -7 -7 -8 -9 -10 -10 -11 -12 -12 -13
6 7 7 7 8 6 6 7 7 6 6 5 5 4 3 3 2 1 2 2 2 2 1 1 1 -0 -1 -1 -2 -2 -3 -3 -4 -5 -5 -6 -6 -7 -7 -8 -8 -9 -10 -10 -11 -12 -12 -13 -13

GFSSGP_700_temp_042.txt.gz
Temp
8 8 8 8 8 9 11 12 13 11 10 10 9 11 9 9 10 9 8 7 8 7 7 7 7 7 7 7 6 6 6 6 6 6 6 6 6 6 6 5 5 5 5 5 5 5 5 5 5
8 9 8 8 8 11 12 11 8 8 10 9 9 10 8 8 8 8 7 6 7 7 7 6 6 6 6 6 6 6 6 6 6 6 6 6 6 5 5 5 5 5 5 5 5 5 5 5 5
8 8 7 8 9 11 12 10 10 8 8 8 9 9 8 6 6 7 7 6 6 6 6 6 6 6 6 6 6 6 6 6 5 5 5 5 5 5 5 5 5 4 4 4 4 4 4 4 4
8 8 8 8 10 12 11 9 9 8 8 8 6 8 8 8 7 6 6 6 6 6 5 4 4 5 5 5 6 6 6 6 6 5 5 5 5 4 4 4 4 4 4 4 4 3 3 3 3
7 7 8 10 11 12 12 10 8 8 8 7 7 7 7 7 6 6 6 6 5 5 4 3 2 4 5 6 5 6 6 6 5 5 5 4 4 4 4 4 4 4 3 3 3 3 3 2 2
6 7 9 10 12 12 11 10 9 7 7 7 7 6 6 7 7 6 5 6 5 4 4 3 3 4 5 6 5 6 6 5 5 5 4 4 4 4 4 3 3 3 3 3 3 3 2 2 2
6 8 10 11 12 11 10 9 8 6 7 7 7 6 6 6 6 5 4 5 5 4 2 2 3 5 5 5 5 5 5 5 5 4 4 4 4 4 3 3 3 3 3 3 3 2 2 2 2
7 8 10 11 11 10 8 7 8 7 7 7 6 6 6 6 5 4 4 4 4 3 2 2 4 4 4 5 5 5 5 4 4 4 4 4 4 3 3 3 2 2 2 2 2 2 2 2 2
8 8 9 11 11 9 9 6 6 7 7 7 6 6 6 6 5 5 5 3 3 3 2 4 4 5 5 5 5 5 4 4 4 3 3 3 3 3 2 2 2 2 2 2 2 1 1 1 1
7 8 9 9 9 9 8 5 5 7 7 6 5 6 6 6 5 5 5 4 3 2 4 4 5 5 5 5 5 5 4 3 4 3 3 3 3 3 2 2 2 1 1 2 1 1 1 1 0
8 8 10 9 9 9 8 7 7 7 7 6 5 7 6 6 5 4 4 4 3 3 4 5 5 5 5 5 4 4 3 3 3 3 3 3 2 1 2 2 1 1 2 1 1 0 1 0 0
8 9 9 9 8 8 7 7 6 7 6 6 6 6 6 6 5 4 4 4 5 4 5 5 5 5 5 5 4 3 3 3 3 2 2 2 2 1 1 1 1 1 1 1 0 0 0 0 0
8 9 9 9 8 8 8 7 5 7 7 5 5 6 7 4 4 5 5 3 4 5 5 5 5 5 4 4 4 3 2 3 2 2 2 2 2 1 2 2 2 1 0 0 0 0 0 0 0
9 9 9 8 8 8 7 6 5 7 7 6 7 7 6 4 4 4 3 2 4 5 5 5 4 4 4 4 4 4 3 3 2 1 2 1 1 1 2 1 1 1 0 0 0 0 0 0 0
8 8 8 8 8 7 6 7 8 7 6 6 7 6 6 4 4 4 3 3 3 5 5 5 4 4 5 4 4 4 3 2 2 2 1 2 1 1 2 1 0 0 0 1 0 0 0 0 0
8 8 8 8 8 8 7 6 8 7 6 5 4 5 5 4 4 3 3 4 3 4 4 4 4 4 4 4 3 3 3 2 1 2 1 1 0 2 1 1 0 0 0 1 1 0 0 -0 -0
8 8 8 8 9 9 8 7 7 7 7 6 5 5 5 4 4 3 3 3 3 5 5 4 4 3 3 3 3 2 1 1 0 0 0 1 0 1 1 1 0 0 0 0 0 -0 -1 -1 -1
7 8 9 9 9 9 9 8 8 7 7 6 6 5 5 5 4 4 3 3 3 6 5 4 4 4 3 3 2 2 2 2 2 1 1 0 0 1 0 1 0 -0 -0 -0 -1 -1 -1 -1 -1
8 9 9 10 10 9 9 9 8 8 8 7 6 6 6 5 5 4 5 4 3 5 5 4 4 4 3 3 2 2 2 2 1 1 1 0 0 0 -0 -0 -1 -0 -1 -1 -1 -1 -2 -2 -2
9 9 9 10 9 9 9 10 8 8 8 7 7 6 5 5 4 5 6 5 3 5 5 4 4 3 3 3 3 2 1 1 1 1 0 0 -0 -1 -1 -1 -1 -1 -2 -2 -3 -3 -3 -3 -3
9 7 8 8 9 9 10 10 9 8 8 8 7 7 6 5 5 5 5 5 4 5 4 4 4 3 3 3 2 2 1 0 0 -0 -1 -1 -1 -1 -1 -1 -1 -2 -3 -3 -3 -3 -4 -3 -4
9 7 8 8 9 9 8 9 10 9 8 8 8 7 7 6 5 5 5 5 5 4 4 4 4 3 3 2 2 1 0 -0 -0 -1 -2 -2 -2 -2 -2 -2 -3 -3 -3 -4 -4 -4 -5 -5 -5
8 8 8 9 10 9 9 7 7 8 8 8 8 7 7 6 5 4 4 4 5 4 4 4 4 3 3 2 1 0 -0 -2 -2 -2 -3 -2 -3 -2 -3 -3 -3 -4 -4 -4 -5 -5 -5 -6 -7
8 8 8 9 9 7 7 7 7 7 7 6 6 6 6 6 5 4 3 3 3 5 4 3 3 1 2 1 1 0 -0 -0 -1 -2 -2 -2 -3 -4 -5 -4 -5 -5 -5 -5 -6 -6 -6 -7 -8
8 9 9 3 3 9 10 10 11 8 8 8 7 6 5 4 4 3 3 3 4 4 3 3 2 2 2 1 1 0 0 -0 -1 -2 -2 -2 -3 -4 -4 -4 -5 -5 -5 -6 -6 -7 -7 -8 -9
7 8 6 5 3 9 9 10 10 9 8 8 7 6 4 4 4 3 3 2 3 3 3 2 2 2 2 1 1 1 0 -1 -2 -2 -2 -2 -3 -4 -4 -5 -5 -5 -6 -6 -7 -7 -8 -9 -9
7 8 8 8 8 8 9 9 9 7 8 7 6 5 4 4 3 2 2 2 3 3 3 2 2 2 2 1 1 0 -1 -1 -2 -2 -2 -4 -4 -4 -5 -5 -5 -6 -7 -7 -7 -8 -9 -10 -11
8 8 8 8 7 7 10 10 8 7 7 6 5 4 4 4 3 2 2 3 3 3 3 2 2 1 1 1 1 -0 -1 -2 -2 -2 -3 -3 -4 -5 -5 -5 -6 -6 -7 -7 -8 -9 -10 -10 -11
7 7 8 8 8 7 7 9 8 8 7 6 6 5 4 4 3 3 2 2 2 2 2 2 2 1 1 1 -0 -1 -1 -1 -2 -2 -4 -5 -5 -5 -5 -6 -6 -7 -7 -8 -9 -9 -10 -11 -12
7 7 8 7 7 7 7 7 7 7 7 6 5 5 4 3 3 2 2 1 1 1 1 2 2 1 1 0 -0 -1 -1 -2 -2 -3 -5 -5 -6 -6 -6 -6 -7 -7 -8 -9 -10 -10 -11 -11 -12

GFSSGP_700_temp_045.txt.gz
Temp
8 7 7 7 8 7 9 10 10 11 10 10 11 11 12 11 10 10 10 8 7 7 7 7 8 7 7 7 7 7 7 7 7 6 6 6 6 6 6 6 6 6 5 5 5 5 5 5 5
8 7 8 7 7 8 9 10 10 10 10 10 10 10 11 11 10 10 9 8 7 7 7 6 7 7 6 6 6 7 6 6 6 6 6 6 6 5 5 5 5 5 5 5 5 5 5 5 4
7 7 8 7 8 8 9 9 9 9 8 9 10 10 10 10 10 9 8 6 7 6 6 6 6 6 6 6 6 6 6 6 6 6 6 6 5 5 5 5 5 5 5 5 4 4 4 4 3
7 7 7 8 8 10 10 10 10 8 8 8 8 8 8 8 8 7 7 7 6 6 5 5 5 5 5 5 6 6 6 5 5 5 5 5 5 5 5 5 4 4 4 4 4 3 3 3 3
6 7 7 8 9 10 10 10 9 8 7 7 7 7 7 7 7 7 6 6 6 5 5 4 4 4 4 4 6 6 6 5 5 5 5 5 5 4 4 4 4 4 4 3 3 3 3 2 2
7 7 7 8 9 9 8 8 8 8 8 7 7 7 7 6 6 6 6 6 6 4 3 4 3 2 2 5 6 6 6 5 5 5 5 4 4 4 4 4 4 3 3 3 3 2 2 2 2
6 6 7 8 8 9 9 9 8 7 7 8 7 7 7 6 6 6 5 5 5 4 3 3 3 2 3 5 5 5 5 5 4 5 4 4 4 4 3 3 3 3 3 3 2 2 2 2 2
6 7 7 8 8 9 8 9 8 6 6 7 7 6 7 6 5 5 5 4 4 3 3 2 1 2 3 4 4 5 5 4 4 4 4 4 4 3 3 3 3 2 2 2 2 2 2 1 2
6 6 7 8 8 8 8 6 6 6 4 5 6 6 6 6 5 5 4 4 3 3 2 2 2 2 4 4 4 4 4 4 4 4 4 4 3 3 3 3 3 2 2 2 2 2 1 1 1
7 7 7 8 8 8 8 8 8 8 6 5 6 6 5 6 5 4 4 3 3 2 3 2 3 3 4 4 5 4 4 4 4 4 4 3 3 3 3 3 3 3 3 2 1 1 1 1 0
7 7 8 8 8 8 8 7 6 7 6 6 6 4 5 6 4 4 4 3 2 2 3 3 4 4 4 4 4 4 4 4 4 4 4 4 4 4 3 3 3 3 2 1 1 1 1 1 1
7 8 8 8 8 8 7 7 6 6 6 6 5 4 4 5 4 4 4 4 4 2 3 4 4 4 4 5 5 5 4 4 4 4 4 4 3 2 3 2 2 3 2 1 1 1 0 0 0
8 8 8 8 8 8 6 6 6 6 6 6 6 5 4 5 4 4 4 4 4 4 4 4 5 5 5 5 5 5 5 5 4 4 4 3 3 3 2 1 1 1 1 2 1 0 1 0 0
8 8 8 8 8 7 7 7 6 6 6 6 5 5 5 5 5 4 4 4 4 5 4 4 4 4 5 5 5 5 5 4 4 4 4 2 2 3 1 1 1 1 1 1 1 1 1 1 1
8 8 8 8 8 7 7 7 6 5 5 6 6 5 5 5 4 5 5 5 6 5 5 4 5 5 5 5 4 4 4 3 3 3 3 2 2 2 1 1 1 1 1 1 1 1 1 0 0
7 8 8 8 8 7 7 7 6 5 6 6 6 6 5 4 4 3 4 5 5 5 5 5 5 4 4 4 4 3 3 3 2 2 1 1 2 2 1 1 1 1 1 1 1 1 1 1 0
8 8 8 8 8 7 7 7 7 6 6 6 5 4 4 4 4 4 4 5 5 5 5 5 4 4 3 3 3 2 2 2 1 2 1 0 1 0 -0 1 1 1 1 1 1 0 0 -0 -0
8 8 8 8 8 8 8 8 7 7 6 7 6 6 5 5 6 5 5 6 6 6 5 4 3 4 3 3 3 2 2 2 2 2 2 1 1 0 0 1 0 0 0 0 0 0 0 -0 -0
7 8 8 8 9 9 8 8 8 8 7 6 6 6 6 6 6 6 5 6 6 6 5 5 4 4 3 3 3 3 3 2 2 2 2 1 1 1 1 0 0 0 0 0 0 -0 -1 -1 -1
7 7 7 8 9 9 9 8 8 8 7 7 7 6 6 5 5 6 5 6 6 6 5 4 4 3 3 3 3 3 2 2 1 1 1 1 0 0 -0 -1 -0 -0 -1 -1 -1 -2 -2 -3 -3
6 8 8 8 9 9 9 9 8 8 8 7 7 7 6 6 6 6 5 5 5 5 5 4 4 3 3 4 3 3 2 2 1 0 -0 -0 -0 -1 -1 -1 -1 -1 -1 -2 -3 -3 -3 -3 -3
7 8 8 8 8 8 9 8 8 8 8 8 7 7 7 6 6 6 6 5 5 5 5 4 4 3 3 3 3 3 2 1 1 0 0 -0 -0 -1 -2 -2 -2 -2 -3 -3 -3 -3 -3 -4 -4
8 8 8 7 7 7 7 8 8 8 8 8 8 7 7 7 6 6 5 5 4 4 5 4 4 3 3 3 3 2 1 1 1 1 0 -1 -2 -2 -2 -2 -2 -2 -3 -3 -4 -4 -4 -5 -5
8 8 8 8 7 6 9 9 7 8 8 8 8 7 7 6 6 6 5 5 5 4 4 4 4 3 3 3 2 2 2 1 1 -0 -1 -2 -2 -3 -3 -2 -3 -4 -5 -5 -5 -5 -6 -6 -6
8 8 6 4 3 3 8 6 8 9 9 8 8 7 7 6 6 5 5 5 3 3 4 4 3 3 3 2 2 1 1 1 0 -1 -2 -2 -2 -3 -3 -4 -5 -5 -5 -5 -5 -5 -6 -7 -7
8 7 7 3 2 2 7 7 9 8 7 8 7 7 6 6 6 5 5 5 4 3 3 3 3 3 2 2 1 1 1 0 -1 -1 -2 -2 -2 -3 -3 -5 -6 -5 -6 -6 -6 -6 -7 -8 -8
7 7 7 7 5 4 8 8 7 7 7 7 7 6 6 6 6 5 5 4 4 4 4 3 2 1 2 1 1 1 1 -0 -1 -1 -2 -2 -2 -2 -3 -5 -6 -6 -6 -6 -6 -7 -8 -8 -9
7 7 7 8 5 5 7 8 7 7 6 7 6 6 5 5 5 4 4 5 4 4 3 2 2 1 1 1 1 1 0 -0 -1 -2 -2 -3 -3 -2 -4 -7 -6 -6 -6 -7 -7 -7 -8 -9 -10
7 7 7 7 7 2 1 6 8 7 7 7 6 6 6 6 6 5 5 4 4 3 2 2 1 1 1 1 1 1 -0 -1 -2 -2 -2 -3 -3 -5 -7 -6 -7 -7 -7 -8 -8 -8 -9 -10 -11
7 7 7 7 7 7 7 7 7 7 7 7 7 6 5 5 5 4 4 3 3 3 2 2 2 1 -0 -1 -1 -0 -1 -2 -2 -2 -2 -3 -4 -7 -7 -7 -8 -7 -7 -8 -8 -9 -10 -10 -11

GFSSGP_700_temp_048.txt.gz
Temp
7 7 8 7 7 7 8 9 9 9 9 10 11 11 10 11 10 10 10 9 7 7 8 7 7 7 7 7 7 7 7 7 7 6 6 6 6 6 6 6 5 5 5 5 5 5 5 4 5
7 7 7 7 7 7 9 9 9 9 10 10 10 10 10 10 10 10 10 9 7 7 7 7 7 7 7 6 6 7 6 6 6 6 6 6 6 6 5 5 5 5 5 5 5 5 5 4 4
7 7 6 7 7 8 9 10 9 9 9 10 10 10 10 10 10 10 9 8 7 6 6 7 6 6 6 6 6 6 6 6 6 6 6 5 5 5 5 5 5 5 5 5 4 4 4 4 4
7 6 6 7 9 8 8 8 8 8 9 9 9 9 10 10 10 9 7 6 6 6 5 5 5 5 5 6 5 6 6 6 6 5 5 5 5 5 5 5 5 5 4 4 4 4 3 3 3
6 6 6 8 7 7 8 9 8 7 7 8 9 9 8 8 8 8 6 6 6 5 5 4 4 5 5 5 5 5 6 6 5 5 5 5 5 5 5 5 5 4 4 4 4 4 3 3 2
6 6 7 7 7 7 8 8 8 7 7 7 8 8 7 8 6 6 6 5 5 4 4 3 3 3 3 3 3 4 5 5 5 5 5 4 5 5 5 5 4 4 4 4 4 3 3 2 2
6 6 7 7 7 8 8 8 8 7 4 5 6 6 7 6 6 5 5 5 4 1 2 3 3 1 1 3 3 4 5 5 5 5 4 4 4 5 4 4 4 4 4 3 3 3 2 2 2
6 5 6 8 8 8 8 8 8 7 6 5 6 6 6 6 5 5 5 5 3 3 2 3 2 1 2 2 4 4 4 5 5 4 4 4 4 4 4 4 4 3 3 3 3 2 2 2 2
6 6 7 8 8 7 8 8 8 8 7 6 6 5 6 5 5 5 4 4 3 4 3 2 0 3 2 1 3 4 4 4 4 4 4 4 4 4 4 4 4 3 3 3 2 2 1 1 1
6 6 6 8 8 8 8 7 7 6 6 5 5 5 5 4 4 4 3 4 2 3 3 2 2 2 2 3 3 4 4 4 5 4 4 4 4 4 4 4 4 3 2 1 1 1 1 1 2
7 6 7 8 7 8 8 7 6 5 6 5 5 5 5 5 4 3 3 2 2 3 2 3 2 3 3 4 4 4 4 5 4 4 4 4 4 4 4 4 3 2 1 1 1 1 2 1 1
7 7 8 8 7 8 7 7 6 6 6 5 5 5 5 4 3 3 2 3 4 2 2 3 3 3 3 4 4 4 4 5 4 4 4 4 4 3 4 3 3 2 2 2 2 1 1 1 1
6 7 8 7 8 7 7 7 7 7 6 5 5 4 4 3 3 3 3 2 4 4 2 2 3 3 4 4 5 5 5 4 4 4 4 4 4 4 3 2 2 2 2 2 1 1 1 1 0
7 7 8 8 8 7 7 7 7 6 7 5 5 4 4 4 3 4 4 3 4 4 4 4 3 4 4 4 4 4 4 3 3 3 3 3 3 3 2 2 1 1 1 1 1 1 1 1 1
7 7 7 8 8 7 6 7 7 6 6 5 4 4 4 4 4 4 4 4 4 4 4 4 5 5 4 4 4 4 3 3 3 3 3 2 2 1 2 2 0 0 1 1 1 1 1 0 0
7 7 8 7 7 7 7 7 6 6 6 5 4 5 5 4 4 4 4 5 4 4 5 5 5 4 4 4 4 3 4 3 3 2 2 2 1 0 0 1 0 1 0 1 0 0 0 1 1
7 8 8 8 7 8 7 7 7 6 6 5 5 5 5 4 4 4 5 5 4 4 5 4 4 4 4 4 3 3 3 3 2 2 2 2 1 1 0 0 -0 -0 0 0 0 0 0 0 0
7 8 8 8 8 7 7 7 7 6 6 6 5 4 4 4 5 5 6 6 5 5 4 4 4 4 3 3 3 3 3 3 3 2 2 2 2 1 -0 0 -0 -0 0 0 0 0 0 0 1
7 7 7 8 7 8 8 8 7 7 6 6 6 6 5 5 5 5 6 6 6 5 5 4 4 4 3 3 3 3 3 2 3 2 2 2 2 1 1 -0 -0 0 0 0 0 -0 -0 -0 -1
6 7 7 7 8 7 7 8 8 8 7 7 7 7 6 5 4 4 4 5 6 6 5 5 5 4 4 3 3 3 3 3 2 2 2 1 1 1 0 0 0 -0 -0 -0 -1 -1 -1 -2 -2
6 7 7 7 8 8 8 8 8 7 7 7 7 7 7 7 6 5 6 6 6 6 6 5 4 4 3 3 3 2 3 3 2 2 1 1 0 -0 -1 -1 -1 -1 -1 -2 -2 -2 -2 -3 -3
7 7 7 7 8 8 7 7 8 8 7 7 7 7 6 7 6 6 6 6 6 5 5 5 4 4 3 3 3 2 2 2 2 1 1 0 -0 -1 -1 -1 -1 -1 -2 -2 -2 -2 -3 -3 -3
7 7 7 8 8 7 8 7 9 8 8 7 7 7 7 7 7 7 6 6 6 5 4 4 3 3 3 3 3 3 2 2 2 1 0 -0 -1 -1 -1 -1 -2 -2 -3 -3 -2 -3 -4 -4 -4
7 6 7 8 7 5 8 7 8 8 8 8 8 8 7 7 6 6 6 6 5 5 3 3 3 3 3 3 3 3 2 2 1 1 0 -0 -0 -1 -2 -2 -3 -3 -3 -3 -2 -4 -5 -5 -6
7 7 6 4 2 3 7 6 8 9 9 8 8 8 7 7 6 6 6 6 5 4 4 4 4 4 3 4 3 2 2 2 1 0 -0 -1 -1 -2 -3 -3 -3 -4 -4 -5 -6 -6 -6 -6 -6
6 7 7 5 1 3 7 7 8 9 8 8 8 8 8 7 7 6 6 5 5 4 4 4 4 4 4 3 2 2 2 1 1 -0 -1 -2 -2 -3 -3 -3 -3 -4 -5 -6 -6 -6 -6 -6 -7
6 7 7 6 4 3 6 8 7 8 9 8 8 8 7 7 6 6 6 5 4 5 4 3 3 3 3 3 3 2 1 0 -1 -1 -2 -2 -2 -2 -2 -4 -3 -4 -6 -7 -6 -7 -7 -7 -8
6 7 7 7 4 4 6 6 7 7 8 8 8 7 7 7 6 5 5 5 5 4 3 3 3 3 2 1 1 0 -0 -1 -1 -2 -2 -2 -2 -3 -3 -4 -4 -5 -7 -7 -8 -9 -8 -8 -9
6 6 7 7 7 2 1 6 7 7 8 8 8 7 7 6 5 5 4 4 4 3 3 3 2 2 1 -0 0 -1 -1 -1 -2 -2 -3 -2 -3 -2 -3 -4 -4 -8 -8 -8 -9 -9 -9 -9 -10
6 6 5 6 6 6 6 7 7 7 7 7 7 6 6 6 5 6 6 6 5 4 4 3 3 2 1 0 -1 -2 -2 -2 -2 -2 -1 -2 -3 -3 -4 -5 -6 -9 -9 -9 -10 -11 -10 -10 -11

GFSSGP_700_temp_051.txt.gz
Temp
7 7 7 7 6 7 8 9 9 9 9 9 10 10 10 11 11 10 10 10 10 8 8 7 7 6 6 6 7 7 6 6 6 6 6 6 6 6 6 6 5 5 5 5 5 5 5 5 5
7 7 6 7 6 7 9 9 9 9 9 9 9 9 9 10 10 10 9 9 9 8 7 7 6 6 6 6 6 6 6 6 6 6 6 6 6 5 6 6 5 5 5 5 5 5 5 5 4
7 6 6 6 7 7 8 8 8 8 7 8 8 9 9 10 9 9 9 8 8 7 7 6 6 6 6 6 6 6 6 6 6 6 6 5 5 5 5 5 5 5 5 4 4 4 4 4 4
6 6 6 6 7 7 7 8 8 7 7 7 8 7 8 9 9 9 6 6 6 5 6 6 5 5 4 5 6 6 5 6 5 6 5 5 5 5 5 5 5 4 4 4 4 3 3 3 3
6 6 6 6 7 7 7 8 8 7 7 7 7 7 7 7 7 6 5 6 6 5 5 5 4 3 3 4 5 5 5 5 5 5 5 5 5 5 5 5 4 4 4 4 3 3 3 3 3
6 6 6 6 7 7 8 8 7 7 7 7 7 6 7 6 7 7 6 5 5 5 5 4 4 2 3 4 4 4 3 4 4 5 5 5 5 5 5 5 4 4 4 4 3 3 3 3 3
6 6 5 6 6 8 7 8 7 7 7 8 5 6 6 6 6 6 6 4 4 4 5 4 3 2 1 3 3 3 3 4 4 4 4 4 4 4 4 4 4 4 4 4 3 3 3 3 3
5 6 6 6 7 7 8 7 7 7 6 6 6 5 6 5 5 5 5 5 4 3 1 2 2 2 1 1 2 2 3 3 4 4 4 4 4 4 4 4 4 4 3 3 2 3 3 2 2
6 5 6 6 7 7 7 7 7 6 6 6 5 5 5 5 5 5 4 5 5 4 3 2 2 2 2 2 3 2 2 3 4 4 4 4 4 4 4 4 4 3 2 3 3 2 2 2 2
6 6 6 7 7 7 7 7 7 6 6 5 5 5 5 5 5 4 4 4 3 3 3 3 2 1 1 3 3 3 3 3 3 3 3 4 4 4 3 4 3 3 3 3 2 2 2 2 2
6 6 7 7 7 7 7 7 7 6 6 6 6 5 5 5 4 4 3 4 3 3 3 2 1 1 2 3 1 2 3 3 3 3 3 4 4 4 3 3 3 3 3 2 2 2 2 2 2
6 6 7 8 7 7 7 7 6 6 5 5 5 4 4 4 4 4 5 3 3 3 2 3 2 3 2 2 2 2 3 3 3 3 3 3 3 3 3 3 3 2 2 2 2 2 2 1 1
6 7 7 7 8 7 7 6 6 6 6 5 5 4 3 4 4 2 2 3 3 3 3 3 3 3 3 3 2 3 3 3 3 3 3 3 3 3 3 2 2 2 1 1 0 1 1 1 0
6 7 7 8 8 7 7 7 7 6 6 6 5 4 2 3 3 3 3 4 4 4 4 4 4 4 4 4 2 3 3 3 3 3 3 3 3 2 2 2 1 1 0 0 0 0 0 0 0
6 6 7 7 7 7 7 6 6 6 6 5 5 4 3 3 4 3 3 4 4 4 4 4 4 4 4 4 3 3 3 3 3 3 3 3 2 2 1 0 0 0 0 -0 -0 -0 0 -0 0
7 7 7 7 7 7 7 6 6 6 6 5 5 5 4 3 4 4 4 4 5 4 4 5 4 4 4 4 3 3 3 3 3 3 2 2 2 1 0 -0 -0 -0 -1 -1 -1 -0 -0 0 0
7 7 7 7 7 7 7 7 7 6 6 5 6 6 5 4 4 4 4 4 4 4 4 4 4 4 4 4 3 3 3 3 3 2 2 1 1 1 0 -0 -0 -1 -1 -1 -0 -0 0 0 0
6 6 7 7 7 6 7 7 7 6 6 7 7 6 6 6 6 5 4 4 4 4 4 4 4 4 4 3 3 3 3 3 3 2 1 2 2 1 0 0 -0 -0 -1 -0 -1 -0 0 0 0
6 6 7 7 7 7 7 7 7 7 6 7 7 6 6 6 6 5 4 5 5 5 4 4 3 3 3 3 3 3 3 3 2 2 2 2 2 1 1 1 0 -0 -0 -1 -1 -0 -0 0 -0
6 6 7 7 7 7 8 8 7 7 7 7 7 6 7 7 7 6 5 6 5 5 5 4 4 4 3 3 3 3 3 2 2 3 2 2 1 1 1 0 0 -0 -1 -1 -1 -1 -1 -1 -1
6 6 6 6 7 7 7 8 7 7 6 6 6 6 6 7 7 7 7 6 6 5 5 4 4 4 3 3 3 3 3 2 3 2 2 1 1 1 0 -0 -1 -1 -1 -1 -2 -1 -2 -2 -2
6 6 6 6 6 7 7 7 8 7 7 7 7 6 6 6 7 7 7 7 6 6 5 5 4 4 3 3 3 3 2 2 2 2 1 1 1 -0 -0 -1 -1 -1 -2 -2 -2 -2 -3 -3 -3
6 6 6 7 6 7 7 7 8 8 7 8 8 7 7 7 7 7 7 6 6 5 5 4 4 3 3 3 3 3 2 2 2 2 1 1 0 -0 -0 -1 -2 -2 -2 -3 -3 -3 -4 -4 -4
6 6 6 6 7 5 7 7 7 8 8 8 8 7 7 7 7 7 6 6 6 5 4 4 4 3 3 3 3 3 2 2 2 2 1 1 0 -0 -1 -1 -3 -3 -3 -4 -4 -4 -4 -4 -5
6 6 5 3 3 3 6 6 8 8 8 8 8 8 7 7 6 6 6 6 6 5 4 4 3 3 3 3 2 3 2 2 2 1 1 0 -0 -1 -2 -2 -3 -3 -4 -4 -4 -4 -4 -4 -6
6 6 6 5 1 3 7 6 8 8 8 8 8 8 7 7 6 6 6 6 5 5 4 4 3 3 3 2 3 3 2 2 1 1 0 -1 -1 -1 -2 -3 -3 -3 -4 -4 -5 -5 -5 -7 -7
6 6 6 6 3 3 6 7 7 8 8 8 8 8 7 7 7 6 6 5 5 5 4 4 3 3 3 2 3 2 1 1 1 0 -1 -1 -2 -3 -3 -3 -3 -4 -4 -4 -5 -6 -8 -8 -8
6 6 6 6 4 3 5 6 7 7 8 8 8 8 7 7 7 7 6 6 5 4 3 3 3 3 2 2 3 2 1 1 -1 -1 -1 -2 -2 -1 -3 -3 -4 -5 -5 -5 -5 -8 -8 -9 -10
6 6 6 6 6 1 0 6 7 7 7 7 7 7 7 7 7 6 6 5 5 4 4 3 3 3 3 3 2 1 0 -1 -1 -1 -2 -2 -2 -2 -3 -4 -4 -5 -4 -5 -6 -8 -10 -10 -10
6 6 6 5 5 5 5 6 7 7 7 7 7 6 7 7 7 7 6 6 6 5 4 4 3 3 2 2 1 1 1 -0 -1 -1 -2 -2 -2 -3 -3 -4 -4 -5 -5 -5 -7 -9 -9 -10 -11

GFSSGP_700_temp_054.txt.gz
Temp
6 6 7 7 7 7 8 8 8 8 8 7 7 8 10 9 9 10 9 10 9 8 9 9 8 6 6 6 6 7 7 6 6 6 6 6 6 5 6 6 6 6 5 5 5 5 5 5 5
6 6 7 7 6 7 8 8 8 7 7 8 7 8 8 8 7 9 9 10 9 9 8 8 7 6 5 6 6 5 6 6 6 5 6 5 5 5 6 6 5 5 5 5 5 5 4 4 4
6 6 6 6 6 7 7 8 7 7 7 7 8 8 7 7 8 9 9 9 9 8 7 7 6 5 5 5 5 5 5 5 5 5 5 5 5 5 5 5 5 5 5 5 5 4 4 4 4
6 6 6 6 6 7 7 7 7 8 8 7 8 8 7 7 8 8 8 7 7 6 6 6 5 5 4 4 4 4 5 5 5 5 5 5 5 5 5 5 5 5 5 4 4 4 3 3 3
6 6 6 6 6 7 7 7 7 7 7 7 8 8 7 7 7 7 6 6 6 6 5 5 5 5 5 4 3 3 5 5 5 5 4 4 4 5 5 4 4 4 4 4 3 3 3 3 3
5 5 6 5 6 7 7 7 8 7 6 6 7 6 6 6 6 6 5 6 5 5 5 4 5 5 5 2 1 3 4 5 4 4 4 4 4 4 4 4 4 3 3 3 3 3 3 3 3
5 5 5 6 6 7 7 7 7 7 7 6 6 6 6 6 6 6 6 6 5 5 4 4 3 3 3 1 1 3 3 4 3 3 3 3 4 4 4 4 4 3 3 3 3 3 3 2 2
6 5 5 5 7 7 7 7 7 7 6 7 6 6 6 6 6 6 6 6 5 4 4 4 3 2 1 -0 1 2 3 3 2 3 3 3 4 4 4 4 3 3 3 3 3 2 2 2 2
5 5 5 6 6 6 7 6 7 7 6 6 6 6 6 6 5 5 5 5 4 3 4 3 2 3 1 -1 -0 2 2 1 2 3 3 3 3 4 4 3 3 3 3 3 2 2 2 2 2
5 5 5 6 6 7 7 6 7 6 6 6 5 5 5 5 5 5 4 4 4 4 4 3 3 2 2 0 1 3 2 2 3 3 3 3 3 3 3 3 3 2 2 2 2 2 2 2 2
5 5 6 6 6 7 7 7 7 6 6 6 5 5 5 5 4 5 4 3 3 3 3 3 2 1 0 2 1 2 1 1 2 2 2 3 3 3 3 2 2 2 2 2 1 1 1 1 2
5 6 6 7 7 7 7 7 7 6 6 6 5 4 4 4 3 4 3 2 2 3 3 2 1 0 0 3 2 1 1 2 2 2 2 3 3 2 2 2 2 2 1 1 1 1 1 1 1
6 6 7 7 7 7 7 7 6 6 6 5 5 4 3 3 2 4 3 2 2 4 3 3 2 2 3 4 3 3 2 2 2 2 2 2 2 2 2 1 1 1 1 0 0 0 0 0 0
6 6 7 7 7 7 6 6 6 6 6 5 5 5 2 3 3 3 3 3 3 2 2 2 2 3 3 3 3 2 2 2 2 2 2 2 2 2 1 1 1 0 -0 -0 -0 -1 -0 -0 -0
6 6 7 7 7 7 6 6 6 6 6 6 4 5 4 3 4 3 3 3 2 2 2 3 3 3 3 3 3 2 2 2 2 2 2 2 2 2 1 1 0 -1 -1 -1 -1 -1 -1 -1 -1
6 7 7 7 7 6 6 6 6 6 6 5 5 5 4 3 2 2 2 3 3 3 3 3 3 3 4 4 3 3 3 3 3 3 2 2 2 1 1 1 -0 -1 -1 -1 -1 -1 -1 -1 -1
6 6 7 7 7 6 6 6 6 6 6 5 5 5 5 3 4 4 3 4 4 3 3 4 4 4 4 4 3 3 3 3 3 2 1 2 2 2 1 1 0 -1 -0 -1 -1 -1 -1 -1 -1
6 7 6 6 6 6 6 7 7 6 6 6 5 5 5 4 4 4 4 4 4 4 4 4 4 4 4 3 3 3 3 3 2 2 2 2 2 1 1 0 -0 -0 -0 -1 -1 -1 -1 -1 -1
6 6 6 6 7 7 7 7 7 6 6 7 7 6 6 5 4 4 4 4 4 4 4 4 4 4 4 3 3 3 2 2 2 2 2 2 2 1 1 0 0 -0 -0 -1 -1 -1 -1 -1 -1
6 6 6 7 7 7 7 7 7 7 7 7 6 7 7 6 6 5 5 5 5 4 4 4 4 4 3 3 3 3 2 2 2 2 2 2 2 1 0 0 0 -0 -1 -1 -2 -2 -2 -2 -1
6 6 6 6 6 6 7 8 7 7 7 7 6 6 6 7 7 7 6 6 6 5 5 5 4 4 4 3 3 3 3 2 2 2 2 1 1 1 0 0 -0 -0 -1 -1 -2 -2 -2 -3 -2
6 6 6 6 6 6 6 6 8 8 8 7 7 7 7 7 6 6 6 6 6 6 5 5 4 4 4 3 3 3 2 2 2 2 2 2 1 1 0 0 -0 -1 -1 -2 -2 -2 -3 -2 -2
6 6 6 6 6 6 6 6 8 8 8 8 7 7 7 7 7 7 7 6 6 5 5 4 4 4 3 3 3 2 2 2 2 1 2 2 1 1 0 -0 -0 -1 -1 -2 -2 -3 -3 -3 -4
6 6 6 6 6 4 7 6 7 8 8 8 8 8 8 7 7 6 6 6 6 5 5 5 4 4 3 3 3 2 2 2 1 1 2 1 1 0 0 -0 -1 -1 -2 -3 -3 -3 -3 -4 -4
6 6 5 3 2 3 6 5 8 8 7 8 8 8 8 7 7 7 6 6 6 6 5 4 4 4 3 3 3 2 2 1 1 2 1 1 0 -0 -1 -1 -1 -2 -3 -3 -3 -4 -4 -4 -5
6 6 5 4 1 3 6 6 8 8 8 8 8 8 8 8 7 7 7 6 6 5 5 4 4 4 3 3 3 2 2 2 2 2 1 0 -0 -1 -1 -1 -2 -3 -3 -3 -4 -4 -4 -6 -5
6 6 6 5 3 2 6 7 7 8 7 8 8 8 8 8 7 7 6 6 6 5 5 4 4 4 3 2 2 2 2 2 2 1 0 -0 -0 -0 -2 -2 -2 -2 -3 -3 -5 -5 -6 -6 -6
6 6 6 5 3 3 4 5 7 7 7 7 7 8 8 8 7 7 6 6 5 5 4 4 3 3 2 2 2 2 2 1 1 1 0 0 0 -1 -2 -2 -2 -4 -4 -4 -4 -5 -6 -6 -8
6 6 6 5 5 1 -0 5 7 7 7 7 7 7 7 7 6 6 6 6 6 5 5 4 3 2 2 2 2 2 1 1 1 1 -0 -2 -2 -2 -3 -2 -3 -3 -5 -5 -5 -5 -7 -7 -8
6 6 5 5 4 4 4 5 7 7 7 7 7 6 6 6 7 7 6 6 6 5 5 5 4 3 2 2 2 2 1 1 0 -1 -1 -1 -1 -2 -3 -3 -3 -4 -5 -5 -6 -7 -8 -8 -9

GFSSGP_700_temp_057.txt.gz
Temp
5 6 6 6 6 6 7 8 8 8 7 7 7 7 7 7 8 8 8 9 9 9 8 7 7 6 6 6 6 6 6 5 5 6 6 6 6 6 6 6 5 5 6 5 5 5 5 5 5
5 6 6 6 6 6 8 8 7 7 7 7 7 7 7 6 7 8 7 8 8 8 7 7 6 5 6 6 5 5 5 5 5 6 6 6 6 6 5 5 5 5 5 5 5 5 5 4 4
5 6 6 6 6 6 7 7 7 7 7 7 7 6 6 4 7 8 7 6 8 7 6 6 5 5 5 5 5 5 5 5 5 5 6 6 5 5 5 5 5 5 5 5 5 4 4 4 4
6 6 6 6 6 6 7 7 7 7 7 7 7 7 6 7 7 7 8 6 6 6 6 6 6 5 5 5 5 5 5 5 5 5 6 5 5 5 5 5 5 5 5 5 4 4 4 4 4
5 5 5 5 6 7 7 7 7 7 7 7 6 6 6 7 7 7 7 7 6 5 5 5 5 5 4 4 4 4 4 4 5 5 5 5 4 4 4 4 4 4 4 4 4 4 4 4 3
5 5 5 5 6 7 7 7 7 7 6 6 6 6 6 6 7 7 6 5 5 5 5 4 4 5 4 5 3 3 3 4 5 5 4 4 4 4 4 4 4 4 4 3 3 3 3 3 3
5 5 5 6 6 6 6 7 6 7 6 6 6 6 6 6 6 6 6 6 6 5 5 5 5 4 2 1 -0 2 3 4 4 4 4 3 4 3 3 4 3 3 3 3 3 3 3 3 2
5 4 5 5 6 6 7 7 6 6 7 6 6 6 6 6 5 6 6 6 5 5 4 4 4 1 2 1 -2 1 3 2 3 3 3 3 3 3 3 3 3 3 3 2 3 3 2 2 2
5 4 5 5 6 6 7 7 7 6 6 6 5 6 6 6 5 5 5 5 5 4 4 4 4 4 1 2 2 -0 0 0 2 2 2 3 3 3 2 2 2 2 2 2 2 2 1 1 1
4 5 6 6 6 6 7 7 6 6 6 6 5 5 5 5 5 5 4 5 4 3 3 3 3 3 3 2 2 0 0 2 2 2 2 3 3 2 2 2 2 2 2 2 1 1 1 1 1
5 5 6 6 6 7 7 7 7 6 6 6 5 5 5 5 5 4 4 4 4 3 3 3 3 2 2 1 1 1 0 2 1 2 2 3 3 2 2 2 2 2 2 1 1 1 1 1 1
5 6 6 7 7 7 7 7 6 6 6 5 5 4 4 4 4 3 3 3 3 3 2 2 2 2 1 0 2 1 3 2 2 2 2 2 2 2 2 2 1 1 1 1 0 0 0 -0 0
5 6 6 7 7 7 7 7 6 6 6 5 5 4 3 3 3 4 2 2 2 3 1 2 2 0 2 1 2 1 2 2 2 2 2 2 2 2 1 1 1 1 0 0 0 -0 -0 -0 0
5 6 7 7 7 7 7 6 6 6 5 5 6 3 2 3 3 4 2 2 2 3 1 1 -0 0 1 1 2 2 2 2 2 2 2 2 2 2 1 1 1 0 -0 -0 -1 -1 -1 -0 -0
6 6 7 7 7 7 6 6 6 6 5 5 5 5 4 4 3 3 3 2 2 2 2 2 2 1 2 2 2 2 2 2 1 2 2 1 1 1 1 1 0 0 0 -0 -0 -1 -1 -1 -1
6 6 7 6 6 6 6 6 6 6 5 5 5 5 5 4 3 3 3 2 2 2 2 2 1 1 2 2 2 3 2 2 2 2 2 1 1 1 1 1 0 0 -0 -0 -1 -1 -1 -1 -1
6 6 7 7 6 6 6 6 6 6 6 5 5 5 5 4 4 4 3 3 3 2 2 2 2 2 2 3 3 3 3 2 2 2 1 1 1 1 1 1 1 0 -0 -0 -0 -1 -1 -1 -1
6 6 6 6 6 6 6 6 6 6 6 5 4 4 4 4 4 4 3 3 3 2 3 2 3 3 3 3 3 3 3 3 2 2 1 1 1 1 1 1 1 0 0 -0 -0 -1 -1 -2 -2
6 6 6 6 6 6 6 7 7 7 7 7 6 5 5 5 3 4 4 3 3 3 3 3 4 4 4 3 3 3 3 2 2 2 2 2 2 2 2 1 1 0 0 -0 -1 -1 -1 -1 -1
6 6 6 6 6 6 7 7 7 8 7 7 6 6 6 5 5 5 5 5 5 5 4 4 4 4 3 3 3 2 2 2 2 2 2 1 1 1 1 1 1 0 -0 -0 -1 -1 -1 -1 -2
6 6 6 6 6 6 6 7 8 8 8 7 7 6 6 6 6 6 6 5 5 5 5 5 4 4 4 3 3 3 3 3 3 2 1 1 1 2 1 1 1 0 -0 -0 -1 -1 -1 -2 -2
5 6 6 6 6 6 6 7 7 8 8 8 7 7 6 6 6 6 6 6 6 5 5 5 4 4 4 3 4 3 3 2 2 1 1 1 1 1 1 1 1 0 -0 -0 -1 -1 -2 -2 -3
5 6 6 6 6 6 6 6 8 8 8 8 8 8 7 6 6 6 6 6 6 5 5 5 5 4 4 3 3 3 2 2 1 1 1 1 1 1 1 1 1 0 -0 -1 -2 -2 -3 -3 -3
5 6 6 5 5 5 6 6 7 8 8 8 8 8 8 7 7 6 6 6 6 5 5 5 4 4 4 3 3 3 2 2 1 1 1 1 0 1 1 1 0 -1 -1 -1 -2 -2 -3 -3 -4
5 6 5 5 4 5 5 5 7 7 7 7 8 8 8 7 7 7 6 6 6 6 5 5 4 4 4 3 3 2 2 2 2 1 1 1 1 1 0 0 -1 -1 -2 -2 -3 -3 -3 -4 -5
5 6 6 5 5 5 5 5 8 7 7 8 8 8 8 8 8 7 7 6 6 6 5 5 4 4 4 3 3 2 1 1 2 2 1 1 1 0 0 -1 -2 -2 -2 -2 -3 -3 -3 -4 -4
5 5 5 5 3 3 5 7 7 7 7 7 7 7 7 8 8 8 7 7 6 6 5 5 5 4 4 3 3 2 1 1 2 1 1 1 1 0 -1 -2 -2 -2 -3 -3 -4 -3 -4 -4 -5
5 5 5 5 4 4 4 5 7 7 7 7 7 7 7 8 7 7 7 7 6 5 5 5 4 4 3 3 3 2 2 1 1 2 1 0 -0 -1 -2 -2 -2 -2 -3 -3 -3 -4 -5 -5 -5
5 5 5 5 5 5 4 6 7 7 7 7 6 6 7 7 7 7 6 6 6 5 5 5 4 4 3 3 2 2 2 2 1 1 0 -1 -1 -1 -3 -2 -2 -3 -4 -4 -5 -4 -6 -5 -6
6 6 5 5 4 4 3 5 6 7 6 6 6 6 6 6 6 6 7 6 6 6 5 5 5 4 3 3 2 2 1 1 -0 -0 -0 -1 -1 -1 -2 -3 -2 -3 -3 -5 -4 -5 -6 -6 -6

GFSSGP_700_temp_060.txt.gz
Temp
6 5 6 6 6 7 9 9 8 8 8 7 7 7 7 7 7 8 8 8 9 8 8 7 7 7 6 6 6 6 6 6 6 6 6 6 6 6 6 5 5 5 5 5 5 5 5 5 4
5 5 6 5 7 9 9 9 8 7 6 7 7 7 6 6 7 7 8 8 8 7 6 6 6 6 6 6 6 5 5 5 5 6 6 6 6 6 5 5 5 5 5 5 5 5 5 5 5
5 6 5 6 7 8 9 8 7 6 7 7 7 6 6 7 7 7 7 8 9 7 6 6 6 5 5 5 5 5 5 5 5 6 6 6 6 5 5 5 5 5 4 4 5 5 5 4 5
5 5 5 6 8 8 7 8 6 7 7 6 6 6 7 7 7 7 8 7 6 6 6 6 6 5 4 4 4 4 4 5 5 6 6 6 5 5 4 4 4 4 4 4 4 4 4 4 4
5 5 6 7 7 7 7 6 7 6 6 6 6 6 7 7 7 7 7 7 6 6 6 6 6 5 5 4 4 3 4 5 5 5 5 5 5 5 4 4 4 4 4 4 4 4 4 4 4
5 5 7 8 8 7 7 6 7 6 6 7 6 6 6 7 7 7 7 6 5 4 4 5 5 5 4 4 3 3 3 4 5 5 5 5 4 4 4 4 4 3 3 3 3 3 3 3 3
5 6 7 7 7 7 6 7 7 6 6 5 6 6 6 6 6 6 6 6 6 5 4 4 5 5 4 3 2 2 1 3 3 4 4 4 4 4 4 4 3 3 3 3 3 3 2 2 2
5 5 6 7 7 7 6 7 6 6 5 6 6 5 6 5 6 6 6 6 6 5 5 5 4 3 2 1 0 -0 -0 1 3 3 3 4 3 3 3 3 3 3 3 2 2 2 1 2 2
5 6 7 7 7 7 7 7 6 7 6 5 5 5 5 5 5 5 5 5 5 4 4 4 4 3 3 2 2 2 1 1 2 1 2 3 3 3 3 2 2 2 2 2 2 1 1 1 1
5 6 7 6 7 7 7 7 7 6 6 6 5 5 5 5 5 5 5 4 5 5 4 3 3 4 3 3 2 1 1 -1 -1 1 2 2 2 3 2 2 2 2 2 2 1 1 1 1 1
5 6 6 6 6 6 6 7 7 6 6 6 5 5 4 4 4 4 4 4 3 3 2 3 3 4 3 2 2 1 -1 -1 -0 -0 1 2 2 2 2 2 2 2 1 1 1 1 0 0 0
5 6 6 6 7 7 7 7 7 6 6 6 5 5 4 4 4 4 4 3 3 3 3 3 2 2 2 2 -0 -0 -1 -0 1 0 1 2 2 2 2 2 1 1 1 1 0 -0 0 -0 -0
5 6 6 6 7 7 7 7 7 6 6 6 5 4 3 3 3 3 3 3 2 3 2 2 2 1 1 -1 -1 -1 -1 1 0 1 1 2 1 2 2 1 1 1 0 0 -0 -0 -0 -0 -0
5 6 6 6 7 7 7 7 6 6 6 6 5 3 3 2 3 3 2 2 2 2 2 2 0 1 -0 -1 -0 -0 0 0 0 1 1 2 2 2 1 1 1 0 0 0 0 0 0 -0 -0
5 6 6 7 7 7 7 6 6 6 5 5 5 4 3 3 4 2 2 2 3 2 1 1 0 -1 -1 0 0 1 1 1 1 1 1 1 2 2 1 1 0 0 1 1 0 0 0 -0 -0
5 6 7 7 7 6 6 7 6 6 6 5 5 5 4 3 3 3 4 3 3 3 1 1 1 1 0 1 1 1 1 1 1 1 1 1 1 1 1 1 0 1 1 1 0 0 -0 -1 -0
6 8 7 6 7 6 6 7 7 6 6 5 4 4 4 4 3 2 2 3 2 2 2 1 1 1 1 0 1 1 2 1 2 1 1 1 1 1 1 1 0 1 1 1 0 -0 -1 -1 -1
7 7 7 8 6 6 6 7 7 6 6 5 5 5 4 4 4 4 4 3 2 2 2 2 1 1 1 1 1 2 2 2 2 1 1 1 1 1 1 1 0 1 1 1 -0 -0 -0 -1 -1
6 7 7 7 6 6 6 7 7 7 7 6 5 5 4 4 4 4 4 4 3 3 3 3 3 3 3 3 3 2 2 2 3 3 2 2 1 1 1 1 1 1 1 0 0 -0 -0 -1 -1
6 7 7 6 6 6 7 7 7 8 7 6 6 5 5 4 4 5 5 5 4 4 4 4 4 4 4 4 3 3 3 3 2 2 2 2 1 1 1 1 2 2 1 1 0 -0 -0 -1 -1
6 7 7 7 6 6 7 8 8 8 8 7 6 6 5 5 5 5 5 5 5 5 5 4 4 4 4 4 3 3 3 3 3 2 2 1 1 1 1 1 2 1 1 1 0 -0 -1 -1 -1
6 6 6 6 7 8 7 9 8 8 8 8 7 7 7 6 6 6 6 6 5 5 5 5 4 4 4 4 3 3 3 3 2 2 1 1 1 1 1 1 2 1 1 0 0 -0 -1 -2 -2
6 6 5 6 7 6 7 8 9 8 8 8 8 7 7 6 6 6 6 6 6 5 5 5 5 5 4 4 3 3 3 3 2 2 1 1 1 1 1 0 1 1 0 -0 -0 -1 -1 -2 -2
5 5 5 6 6 8 8 8 9 9 8 8 8 8 8 7 7 7 6 6 6 5 5 5 5 4 4 4 3 3 3 2 2 2 1 1 1 1 1 0 1 0 -0 -1 -1 -1 -2 -3 -3
5 6 7 7 7 8 6 7 8 8 7 7 7 8 8 8 7 7 6 6 6 6 5 5 5 5 4 4 4 3 3 2 1 1 2 2 1 1 1 1 0 -0 -1 -1 -2 -2 -2 -3 -2
5 6 7 7 7 8 5 8 9 7 7 7 8 8 8 8 8 7 7 6 6 6 5 5 5 5 4 4 4 3 2 1 1 1 1 1 1 0 1 1 -0 -0 -1 -2 -2 -3 -2 -3 -3
5 6 6 6 6 6 8 8 7 7 7 7 7 7 8 8 8 7 7 7 6 6 6 5 5 5 4 4 4 3 3 2 1 0 1 1 1 1 1 -0 -0 -1 -2 -2 -2 -2 -3 -3 -4
5 6 6 6 6 7 8 7 8 7 7 7 7 7 7 8 8 8 7 7 7 6 6 5 5 4 4 4 4 3 3 2 1 1 1 1 1 0 0 -0 -1 -1 -2 -2 -3 -3 -3 -3 -5
5 5 5 6 6 7 7 8 7 7 6 6 6 6 6 7 7 7 7 7 7 7 6 6 5 4 4 4 4 3 3 2 2 1 1 0 -0 -1 -1 -1 -1 -3 -3 -3 -3 -3 -4 -4 -5
5 6 6 6 6 5 5 7 7 6 6 6 6 6 6 6 6 7 7 6 6 6 6 6 5 5 5 4 4 3 3 2 2 1 1 0 -0 -0 -1 -1 -2 -3 -2 -3 -4 -4 -4 -5 -5

GFSSGP_700_temp_063.txt.gz
Temp
6 6 6 5 7 8 9 11 11 11 10 10 9 9 10 10 9 7 4 8 9 10 10 10 8 7 7 7 7 6 6 6 6 6 6 6 6 6 6 5 5 5 5 5 5 5 5 5 5
6 6 6 6 7 10 11 11 11 10 9 8 7 8 8 9 7 6 5 6 8 8 9 9 7 7 6 6 6 5 5 5 5 5 6 6 6 6 5 5 5 5 5 5 5 5 4 4 4
6 6 6 7 9 10 11 9 10 9 8 8 8 7 7 7 6 6 7 8 8 8 8 8 7 6 6 6 6 5 5 5 5 5 6 6 5 5 5 5 5 4 4 4 4 4 4 4 4
6 5 6 7 9 10 10 10 9 8 8 7 8 7 7 8 8 8 7 7 8 7 7 7 7 7 5 5 5 4 4 4 5 5 6 5 5 5 5 5 4 4 4 4 4 4 4 4 4
6 6 8 9 10 10 9 9 8 8 8 8 7 8 7 8 8 7 8 8 8 8 6 6 6 6 4 4 4 4 4 4 5 5 5 5 4 4 4 4 4 4 4 3 3 3 3 3 3
6 7 8 10 10 9 9 8 7 7 7 6 7 7 6 7 7 7 7 7 7 6 5 5 4 4 4 4 4 3 3 4 4 5 4 4 4 4 4 4 4 3 3 3 3 3 3 3 3
6 8 9 9 10 9 9 7 7 6 6 7 6 6 6 6 6 6 6 7 6 5 4 3 2 3 2 3 3 2 1 2 3 3 4 3 3 4 3 3 3 3 3 3 3 3 2 3 3
6 7 8 9 9 9 7 7 6 6 6 6 5 6 5 6 5 6 6 7 6 6 5 5 5 2 2 2 2 1 -3 0 2 3 2 3 3 3 3 3 3 3 2 2 2 2 2 2 2
6 7 9 9 9 9 6 7 6 6 5 5 5 5 5 5 5 5 6 6 6 5 4 4 4 3 3 3 2 2 2 0 1 1 1 2 2 3 3 3 3 2 2 2 2 2 2 1 1
7 8 9 8 8 8 8 8 7 6 6 5 6 6 5 4 4 4 5 5 5 4 3 4 3 4 3 3 3 2 1 -0 0 0 1 -1 1 2 3 2 2 2 2 1 1 1 1 2 1
7 8 8 8 8 8 8 8 7 6 5 4 5 6 5 5 4 4 4 5 4 4 3 3 3 3 3 3 2 2 1 -0 -1 -1 -1 -1 2 2 2 2 2 1 1 1 1 1 2 1 0
7 7 8 8 8 7 7 8 7 7 6 6 6 6 5 5 4 4 3 3 4 4 4 3 4 3 2 2 2 1 -0 -1 -2 -1 -0 1 1 1 2 2 1 1 1 1 1 1 0 0 0
7 7 8 7 7 7 7 7 7 7 6 6 6 6 5 4 4 3 3 2 3 2 3 2 2 2 2 2 1 0 -2 -2 -1 0 1 1 1 1 2 1 1 1 1 1 1 0 0 0 0
7 7 7 7 7 7 7 8 7 6 6 6 6 5 3 3 2 3 2 2 3 2 2 2 1 2 1 0 -1 -1 -2 -1 1 1 1 0 0 1 1 1 1 1 0 1 0 0 0 1 1
6 7 7 8 8 7 7 8 6 6 6 6 5 4 3 3 3 2 2 2 2 1 1 2 1 1 -1 -1 -1 -1 -1 -1 0 1 1 0 0 1 1 1 1 0 0 1 0 0 1 0 0
7 7 8 7 8 8 7 6 4 6 6 6 5 5 4 3 2 3 3 3 2 1 1 -0 -1 -0 -1 -1 -1 -1 -0 -0 0 1 0 0 0 1 1 1 1 0 1 0 1 1 0 -0 -0
8 8 8 8 8 7 7 7 4 6 5 5 5 5 4 4 2 3 4 4 3 3 2 1 1 1 0 0 0 0 1 0 1 1 1 1 1 1 1 1 1 0 1 1 0 1 0 0 -0
9 9 9 9 7 8 8 8 6 7 6 6 4 3 3 3 2 4 3 3 3 2 2 2 2 2 2 1 1 1 1 1 1 1 1 1 1 1 1 1 1 0 1 0 1 1 0 -0 -0
8 9 9 9 8 8 8 8 8 7 6 6 5 5 4 3 2 3 4 3 3 3 3 3 3 3 3 3 3 2 2 2 1 1 2 2 2 1 1 1 1 0 1 1 1 1 0 -0 -0
7 8 9 9 8 7 8 8 8 8 7 7 6 5 4 4 3 3 4 4 4 4 4 3 3 3 3 3 3 3 3 3 2 2 2 2 2 1 1 1 1 0 1 1 1 1 0 -0 -0
7 8 7 8 7 8 8 9 9 8 7 6 6 6 5 4 3 2 4 4 4 4 4 4 4 4 4 4 4 3 3 3 3 3 3 2 2 1 1 1 0 -0 0 1 1 1 0 -1 -0
8 8 8 8 8 9 7 9 7 9 8 7 6 7 7 5 4 3 5 5 5 5 5 4 4 4 4 4 4 4 3 3 3 3 2 2 2 1 1 0 0 1 0 1 1 0 -0 -1 -1
7 7 7 7 8 8 9 9 7 9 9 8 7 7 6 6 5 4 5 6 6 5 5 5 5 5 5 4 4 4 3 3 3 3 2 2 2 1 1 1 0 0 -0 1 0 -0 -0 -1 -2
7 6 7 7 8 8 9 9 8 9 9 9 9 7 7 6 6 5 5 6 6 6 5 5 5 5 5 4 4 4 3 3 3 3 3 2 2 1 0 1 1 1 1 0 0 -0 -1 -1 -2
6 7 8 8 6 9 7 9 9 8 9 9 8 8 8 7 6 6 5 6 6 6 6 5 5 5 5 5 4 4 4 3 3 2 2 0 1 1 0 1 1 1 0 1 -0 -1 -1 -2 -2
7 7 8 6 8 6 8 9 9 9 8 8 8 7 7 7 7 6 6 5 6 6 6 6 5 5 5 4 4 4 4 3 3 2 2 1 1 1 1 0 1 0 0 -0 -0 -0 -2 -2 -2
7 7 7 7 8 8 9 10 9 9 8 8 7 7 7 7 7 6 6 6 6 6 6 6 6 5 5 3 3 3 3 3 3 2 2 2 1 1 0 -0 0 -0 -1 -0 -1 -2 -2 -2 -3
6 7 7 8 7 8 10 10 10 9 8 8 8 7 7 7 7 7 6 5 6 6 6 6 6 5 5 4 4 4 4 3 3 2 2 1 1 0 0 0 -1 -1 -1 -1 -1 -3 -3 -3 -3
6 6 7 6 6 8 9 10 9 8 8 8 7 7 7 6 7 7 7 6 5 4 4 6 6 5 5 4 4 4 4 3 3 3 2 2 1 1 1 0 0 -0 -1 -1 -2 -3 -3 -3 -4
7 7 7 7 8 8 8 8 8 8 8 7 7 7 6 7 6 7 7 7 7 6 5 6 6 6 5 5 4 5 4 4 3 3 3 2 1 1 0 -1 -1 -1 -2 -2 -2 -3 -3 -3 -4

GFSSGP_700_temp_066.txt.gz
Temp
7 7 6 6 6 8 9 10 11 11 12 10 10 9 7 8 10 10 10 8 7 4 6 8 9 8 7 7 7 7 6 6 6 6 7 7 6 6 6 6 6 5 5 5 5 5 5 5 5
7 7 5 6 7 9 10 11 11 11 10 9 10 9 9 9 9 8 9 10 9 6 5 7 7 7 7 6 6 6 6 5 6 6 6 6 6 6 6 5 5 5 5 5 4 4 4 5 5
6 6 5 7 8 9 10 10 10 10 10 9 9 9 9 8 8 8 9 9 8 7 5 7 7 6 6 6 5 5 5 5 5 5 6 6 6 5 5 5 5 5 4 4 4 4 4 4 4
6 6 6 8 9 10 11 10 10 10 9 9 8 9 7 8 8 8 8 8 7 7 7 6 6 7 6 6 5 5 5 4 5 5 6 5 5 5 5 4 4 4 4 4 4 3 4 4 4
5 6 8 9 10 10 10 10 9 9 8 7 7 7 6 4 6 7 8 7 6 6 7 6 6 6 5 5 5 5 4 4 4 5 5 5 5 4 4 4 4 4 4 3 3 3 3 3 3
6 7 8 10 11 10 10 10 9 8 7 4 4 5 6 5 5 6 7 7 6 6 6 6 6 4 6 5 5 4 4 4 4 4 4 4 4 4 3 4 3 3 3 3 3 3 3 3 3
6 8 9 9 10 10 9 8 8 8 8 7 7 7 4 4 5 5 6 6 6 5 5 4 5 5 4 4 3 4 4 3 3 4 4 4 4 3 3 3 3 3 3 3 3 3 3 2 2
7 7 8 9 10 10 9 8 8 7 7 7 6 6 6 4 6 5 5 6 6 6 5 5 6 6 3 2 2 2 1 2 3 4 3 3 3 3 2 3 3 3 3 3 3 3 2 2 2
7 7 9 10 9 8 9 8 8 7 7 7 6 6 6 6 5 5 6 5 6 5 5 5 5 5 4 3 2 2 -0 1 2 2 1 2 2 2 2 2 2 3 3 3 2 2 2 2 1
7 8 9 9 9 9 9 9 9 7 7 7 6 4 4 5 5 5 5 5 6 6 5 6 5 4 4 3 2 2 3 1 1 1 1 1 2 2 2 2 2 2 1 2 2 2 2 1 1
8 8 9 9 9 9 9 9 8 8 7 7 6 5 4 5 5 5 5 5 5 5 5 6 4 2 3 3 2 2 2 1 0 -0 0 1 1 2 1 2 2 2 2 2 2 1 1 2 1
8 8 8 9 9 8 8 8 8 8 7 6 6 5 5 5 5 4 4 5 5 5 3 3 3 3 3 2 2 2 1 -1 -1 -0 -0 0 -0 1 2 2 1 1 2 1 1 1 1 1 0
8 8 8 8 8 8 8 8 8 6 6 6 6 6 6 4 4 4 4 4 4 4 3 3 2 2 2 2 1 1 1 -2 -1 -1 -1 -1 1 1 2 1 1 1 1 1 1 1 1 1 0
8 8 8 8 8 8 8 8 8 4 3 6 6 6 5 4 4 4 4 3 3 3 3 3 2 1 1 1 1 0 -0 -1 -2 -1 -0 1 1 1 1 1 1 1 1 1 1 1 1 1 0
7 8 8 8 8 8 8 8 7 6 4 5 6 6 6 5 5 3 2 2 2 2 2 1 1 1 1 0 0 -1 -2 -3 -1 -0 1 1 1 1 1 1 0 0 1 1 1 1 1 1 1
7 7 8 9 9 8 8 8 7 6 5 4 5 5 5 5 5 5 4 4 2 1 1 1 1 1 0 -0 -0 -2 -2 -0 0 0 0 1 1 1 1 0 0 0 1 1 0 0 0 0 0
8 8 9 9 8 8 8 7 6 6 6 4 4 3 4 5 5 4 5 5 4 2 1 1 1 0 -0 -1 -1 -0 -1 -0 0 0 0 1 1 1 1 0 1 1 1 1 0 0 1 1 0
9 9 9 10 8 8 9 7 7 6 6 4 4 4 3 2 4 4 5 5 5 4 2 1 1 1 0 0 0 0 1 0 -0 1 1 1 1 1 1 1 1 1 1 1 0 1 0 0 -0
9 9 9 9 9 9 9 9 7 5 6 6 5 4 4 3 2 3 5 4 4 4 4 3 3 2 2 2 1 2 1 1 2 2 2 2 1 1 1 0 1 1 0 1 0 0 0 -0 0
8 8 9 10 9 9 9 9 8 7 7 8 7 5 4 4 3 3 3 4 4 3 4 4 3 3 3 3 2 2 2 2 2 2 2 3 2 2 1 1 1 1 1 1 1 0 0 0 0
8 8 8 8 8 8 9 9 9 8 8 8 7 6 5 4 3 3 5 3 3 3 3 3 4 4 4 3 3 3 3 3 3 3 3 3 2 2 2 1 1 2 1 0 -0 -0 -0 1 -1
8 9 8 9 9 9 8 8 8 8 9 8 7 7 6 5 4 4 5 5 4 4 4 4 4 4 4 4 4 4 4 3 3 3 3 3 3 2 2 1 1 1 1 0 -0 -0 -0 0 -1
8 8 8 8 8 9 9 7 9 8 9 8 8 7 7 7 5 5 7 6 6 5 5 5 5 5 4 4 4 4 4 4 3 3 3 3 3 2 1 1 1 1 1 0 -0 0 -0 -1 -0
8 8 8 8 8 8 9 9 8 9 9 10 8 8 7 7 5 5 6 6 6 6 6 5 5 5 5 5 4 4 5 4 4 3 3 3 3 1 2 1 1 0 0 0 0 0 0 -1 -1
7 7 8 7 8 8 9 9 10 9 9 9 9 8 8 7 6 6 5 6 6 6 6 6 6 6 5 5 5 4 4 4 3 3 3 3 2 1 2 2 1 -0 1 0 0 0 -0 -1 -1
7 7 8 6 3 6 8 9 10 9 9 9 8 9 8 8 7 6 6 5 6 7 6 6 6 6 5 5 5 4 4 4 3 3 3 3 2 2 2 2 1 -0 -0 -0 -0 -1 -1 -1 -2
8 7 8 5 4 5 6 9 10 9 9 9 8 8 8 8 7 7 7 6 5 6 7 6 6 6 5 5 5 4 4 3 2 2 3 2 2 2 2 1 1 -0 -0 -0 -0 -1 -1 -1 -2
7 8 8 8 4 7 10 10 10 9 9 8 8 8 8 7 7 7 7 6 6 5 6 6 6 6 6 5 5 5 4 3 3 3 3 2 2 2 2 1 1 0 0 -1 -1 -1 -1 -2 -3
7 7 7 8 9 8 7 8 7 8 9 8 8 8 7 7 7 7 7 6 6 5 5 5 5 6 6 5 5 5 4 4 3 3 3 3 2 2 2 1 1 -0 -0 -0 -1 -2 -2 -2 -2
8 7 7 8 8 7 7 8 8 8 8 8 8 7 7 7 6 7 7 7 6 6 5 4 4 4 5 5 3 4 4 4 3 3 3 3 2 2 2 1 1 0 -0 -1 -1 -2 -2 -3 -2

GFSSGP_700_temp_069.txt.gz
Temp
8 7 7 6 6 6 7 8 9 10 10 9 9 10 10 10 9 8 8 8 8 7 7 6 5 6 6 6 6 7 7 6 7 7 7 7 7 7 6 6 6 6 6 6 6 6 5 5 6
7 7 7 6 6 6 7 9 10 10 9 9 9 9 9 8 8 7 7 7 9 9 9 7 5 5 5 5 6 6 6 6 6 6 7 7 7 6 6 6 6 6 5 5 5 5 5 5 5
7 7 7 6 7 7 8 10 10 10 10 10 9 8 8 8 7 6 7 8 8 8 8 7 6 7 5 5 6 6 6 6 6 6 6 6 6 6 6 6 5 5 5 5 5 5 5 5 5
6 6 6 6 8 9 9 10 10 10 9 9 8 8 7 7 6 6 5 7 7 7 8 7 6 6 6 5 5 6 6 6 5 6 6 6 6 6 5 5 5 5 5 4 4 4 4 4 4
6 6 6 6 7 8 9 10 9 9 8 8 8 8 7 7 6 6 6 6 6 7 7 7 6 5 6 5 5 5 5 4 5 5 6 6 6 5 5 5 4 4 4 4 4 4 4 4 4
7 6 5 6 8 9 10 9 9 8 8 7 7 7 7 7 5 5 5 5 5 6 6 5 5 4 4 2 5 5 4 4 4 5 5 6 5 5 4 4 4 4 4 4 4 3 3 3 3
6 6 6 7 8 9 9 9 9 8 8 7 7 7 5 5 5 4 6 5 5 6 5 5 5 5 4 1 5 5 4 3 4 5 5 5 5 4 4 4 3 3 3 3 3 3 3 3 3
6 6 6 7 8 9 9 9 9 8 8 7 7 6 2 5 5 5 5 5 6 6 5 5 6 5 4 2 2 3 1 1 1 4 4 4 3 3 3 3 3 3 3 3 2 3 3 2 2
6 6 7 7 8 9 9 9 8 8 8 7 7 7 6 6 5 6 4 5 5 5 5 5 5 4 4 3 2 1 1 -0 0 2 3 3 3 3 3 3 3 2 3 2 2 3 2 2 2
6 7 7 8 8 9 9 8 8 8 8 7 7 7 6 6 5 5 5 5 5 5 5 5 5 5 4 4 2 2 2 3 -0 0 0 2 3 3 2 2 3 2 2 3 2 2 2 2 2
6 7 8 8 8 8 8 8 8 8 7 6 5 7 6 6 5 5 5 5 5 5 5 5 5 4 4 4 4 2 1 1 1 1 2 2 2 2 2 2 3 3 3 2 2 2 2 1 1
7 7 8 8 8 8 8 8 8 8 7 5 6 5 5 6 5 4 4 4 4 4 4 5 3 3 3 3 3 2 1 -0 -0 1 1 1 2 1 1 2 2 2 2 2 2 2 2 2 2
7 7 8 8 8 8 8 8 8 8 7 6 5 5 5 6 5 4 3 4 4 4 4 3 3 3 3 2 3 2 1 -0 -1 -1 0 1 1 1 2 2 2 2 1 1 2 1 1 1 1
7 7 8 8 8 8 8 8 8 8 7 7 6 5 5 5 5 3 3 3 3 3 3 2 2 2 2 2 2 1 1 0 -2 -1 -0 -0 0 1 1 2 2 1 1 1 1 1 1 1 1
6 7 7 7 8 8 8 8 8 8 7 7 5 5 5 5 5 4 4 2 2 2 2 2 2 2 2 2 1 1 1 -1 -1 -1 -1 -0 0 1 2 2 2 1 1 1 1 1 1 1 0
6 7 7 8 8 8 8 8 8 8 7 7 6 4 5 5 5 4 4 4 2 2 2 2 2 2 2 2 2 1 1 -1 -1 -1 -0 1 1 1 2 1 1 1 1 1 1 1 1 1 1
6 6 7 8 9 8 8 8 8 7 7 5 5 4 4 5 6 5 5 5 3 2 1 1 1 1 1 1 1 0 0 -0 0 0 1 1 1 1 1 1 1 1 1 1 0 0 0 0 0
7 7 7 8 9 8 8 8 8 7 7 5 4 4 4 4 5 5 5 5 5 5 2 1 1 1 0 -0 -0 0 1 1 1 1 1 1 1 1 1 2 1 1 1 1 1 0 0 0 0
7 7 8 9 9 8 8 8 8 8 7 6 6 4 4 4 5 5 4 5 5 6 5 3 3 3 3 3 2 1 2 2 1 1 1 1 1 2 2 2 1 1 1 1 0 0 0 0 0
7 7 8 8 8 8 8 8 8 7 7 7 6 5 5 5 5 4 4 5 4 4 5 4 4 4 4 3 3 2 2 2 2 2 2 1 1 2 2 2 1 1 1 0 0 0 0 -1 -1
7 7 8 8 8 8 8 8 7 8 7 7 6 5 6 6 6 5 5 5 5 4 4 4 4 4 4 3 3 2 1 1 2 2 2 2 2 2 2 1 1 1 1 1 1 0 0 -0 -0
8 8 8 8 8 8 8 7 8 8 8 7 7 7 6 6 6 6 6 6 6 6 5 4 4 4 4 3 3 3 3 3 3 3 3 3 3 3 2 2 2 2 2 2 1 0 0 0 0
8 8 8 8 8 8 8 7 8 8 8 8 8 7 6 6 7 7 7 6 6 6 6 6 5 4 4 4 4 4 4 3 3 3 3 3 3 3 2 2 2 2 2 1 1 0 -0 -0 -0
8 8 8 7 7 6 8 7 7 8 8 8 8 7 7 7 7 8 7 6 6 6 6 5 5 5 5 5 5 5 4 4 4 4 3 3 3 3 2 2 1 1 1 1 0 0 -0 -1 -0
7 7 6 5 3 3 7 6 8 9 8 9 8 8 8 8 7 7 7 7 6 6 6 6 6 5 5 5 5 5 4 4 3 3 3 3 3 3 2 2 2 1 1 0 0 0 -1 -0 -1
7 7 6 4 2 4 7 7 9 9 9 9 9 9 8 8 8 7 7 7 6 6 6 6 6 5 5 5 5 5 4 4 3 3 3 3 3 2 2 1 1 1 1 1 1 0 -0 -1 -2
7 7 7 6 3 2 5 7 8 9 9 9 9 8 8 7 7 7 7 7 7 6 6 6 6 6 6 5 5 5 4 4 4 3 3 3 3 2 1 1 2 2 2 1 1 -0 -0 -0 -1
7 7 7 5 1 2 5 6 9 9 9 8 8 8 8 8 7 7 7 7 7 6 6 6 6 6 6 6 5 5 5 4 3 3 2 2 2 1 2 2 2 2 1 1 0 -0 -1 -1 -2
7 7 7 6 6 2 3 6 9 9 7 8 8 8 8 8 7 7 7 6 7 7 6 6 6 6 6 5 5 5 5 4 3 3 2 1 1 2 2 1 2 2 2 1 0 -1 -1 -2 -2
7 7 7 7 7 7 7 6 7 8 8 8 8 8 7 7 7 7 7 7 6 6 6 6 6 5 5 5 5 4 4 4 2 2 0 1 2 3 2 2 2 2 2 1 -1 -1 -2 -2 -2

GFSSGP_700_temp_072.txt.gz
Temp
9 8 7 6 7 6 7 9 9 9 9 8 9 9 9 8 9 8 7 7 6 6 7 7 7 8 6 5 5 6 6 6 6 7 8 8 7 7 7 7 7 7 7 7 7 6 6 6 6
8 8 7 6 7 7 8 10 9 8 9 9 9 8 8 8 8 8 8 7 7 6 6 6 6 6 6 5 4 5 5 5 6 7 8 8 8 7 7 7 6 6 6 6 6 6 6 6 6
8 7 6 6 7 7 8 9 8 7 8 8 9 9 8 8 8 7 7 7 6 6 5 5 6 4 4 4 4 5 5 5 6 7 7 8 7 7 7 6 6 6 6 6 5 6 6 6 6
7 7 6 6 7 8 7 8 8 8 9 9 9 9 8 8 7 7 7 7 6 6 4 5 4 4 4 2 3 4 5 5 6 6 6 7 6 6 6 6 6 5 5 5 5 5 5 6 5
7 6 6 6 7 7 7 7 8 8 9 9 9 9 8 8 7 7 6 6 7 6 6 4 5 5 4 3 2 4 5 4 5 5 5 6 6 6 6 5 5 5 5 5 5 5 5 5 5
6 6 6 7 7 7 7 8 8 9 9 8 8 8 7 7 6 6 6 4 5 7 6 4 4 4 2 3 4 3 4 4 4 4 5 6 5 5 5 5 5 4 4 4 4 4 5 5 5
7 6 6 6 7 8 8 8 9 8 8 8 7 7 7 6 6 7 4 4 5 6 6 4 4 3 3 3 4 3 4 3 4 5 5 5 5 5 5 4 4 4 4 4 4 4 4 5 5
7 5 6 7 7 7 8 8 8 8 8 8 7 6 6 6 6 6 5 5 5 5 5 5 4 5 4 4 2 3 1 -1 2 4 4 4 4 4 4 4 4 3 3 3 3 3 3 3 4
6 5 7 7 7 8 8 8 8 8 7 7 7 7 7 6 6 6 5 5 5 5 5 5 5 5 4 4 4 2 1 1 0 3 3 3 3 3 3 3 3 3 3 3 3 2 2 2 4
6 6 7 7 7 8 7 8 8 8 7 7 7 7 7 6 6 5 5 5 5 5 5 4 5 5 4 4 4 2 1 2 -0 2 2 2 2 3 3 3 3 3 3 2 2 2 2 2 4
6 6 7 7 7 7 8 8 8 8 7 7 7 7 7 7 6 5 5 5 4 4 4 5 5 4 4 3 4 1 1 1 1 -1 -1 0 1 2 3 3 3 2 2 1 1 2 2 2 2
6 6 6 7 7 7 8 8 8 8 8 8 7 7 7 7 7 6 4 3 3 3 4 4 5 3 3 3 4 2 2 2 1 2 2 0 2 2 3 2 2 2 3 3 2 2 2 2 2
6 6 6 7 7 8 8 8 8 8 8 8 7 7 6 6 6 5 3 3 2 3 3 4 3 2 2 2 3 2 2 2 2 -0 -1 0 1 2 2 2 2 3 3 2 2 2 2 2 1
7 6 6 7 7 7 8 8 8 8 8 7 7 6 6 7 6 5 2 3 2 2 2 4 3 2 2 2 2 2 3 2 1 -1 -0 0 1 1 2 2 2 3 2 2 2 2 2 1 1
6 6 7 7 8 8 8 7 7 7 8 7 7 7 6 6 6 5 3 3 2 2 2 2 2 3 2 2 2 2 2 1 0 0 0 0 1 1 2 2 2 2 2 2 2 2 1 1 1
6 6 6 8 8 8 7 8 8 8 8 7 7 6 6 6 6 5 5 4 2 2 2 2 2 2 2 2 2 2 1 1 1 -1 -0 0 1 1 1 2 2 2 2 2 1 1 1 1 1
6 6 7 7 8 8 8 8 8 8 8 7 7 6 7 7 5 5 5 5 4 2 2 1 2 2 2 2 2 1 1 1 -1 -1 -0 0 1 1 1 1 2 2 1 1 1 1 1 1 1
7 6 7 7 7 8 8 8 8 8 7 7 7 7 7 6 5 4 5 5 6 3 1 1 1 0 1 1 1 0 1 0 -1 -1 -0 0 1 1 1 1 2 1 1 1 1 1 1 1 1
6 6 6 7 8 8 8 8 8 8 7 8 7 6 7 6 5 4 4 4 5 6 2 1 1 0 1 1 1 1 1 1 0 -1 -1 0 1 1 1 2 2 1 2 2 2 1 1 1 0
6 5 6 7 7 8 8 8 8 8 7 7 7 7 7 7 6 5 4 4 4 5 5 4 4 3 2 1 1 0 0 1 0 1 1 1 1 2 2 2 2 2 2 2 2 1 1 1 0
6 6 6 6 8 8 8 8 8 8 7 7 7 6 7 6 6 5 5 5 4 5 5 5 4 4 4 4 3 2 1 1 2 2 1 1 1 2 2 2 2 2 2 1 1 1 0 -0 -0
6 7 7 7 7 7 8 6 7 8 7 7 7 7 7 7 6 6 6 6 5 5 5 4 4 4 4 4 3 3 3 3 3 2 2 1 1 2 2 2 2 2 2 1 1 0 -0 0 -1
6 7 7 7 7 7 8 7 7 7 7 7 7 7 7 7 7 7 7 6 5 6 6 5 5 4 4 4 4 3 3 3 3 2 2 2 2 2 2 2 2 2 2 1 1 0 0 0 -1
7 7 7 7 7 5 7 7 7 8 8 8 7 8 8 8 7 7 6 6 6 6 6 6 5 5 5 5 5 5 4 4 3 3 3 3 3 3 2 2 2 1 1 1 1 -0 -0 -1 -0
6 7 5 5 3 2 7 6 7 9 8 8 8 8 8 8 8 7 7 7 7 7 6 6 6 6 6 6 5 5 5 4 4 4 3 3 3 3 3 2 2 1 1 1 1 0 -0 -0 -1
6 7 6 4 2 3 6 7 8 8 9 8 8 8 8 8 8 8 7 7 7 7 6 6 6 6 6 6 5 5 5 4 4 4 3 3 3 3 3 2 2 1 1 0 0 0 0 -0 -0
7 7 7 6 3 2 6 7 8 8 9 8 8 8 8 8 8 7 7 7 7 6 6 6 6 6 6 6 5 5 5 4 4 4 4 3 3 3 2 1 1 0 0 0 1 0 -1 -1 -1
6 7 6 6 2 2 4 5 7 8 8 8 9 8 8 8 8 7 7 7 7 6 6 6 6 6 6 5 5 5 5 4 4 3 3 2 2 2 1 0 0 0 0 1 0 0 0 -0 -1
6 7 7 6 6 2 2 6 8 8 9 8 8 8 8 7 7 7 7 6 6 6 6 6 6 6 5 5 5 5 4 4 4 3 2 2 1 0 1 1 1 1 1 1 1 1 -0 -1 -1
6 6 7 6 4 4 3 6 8 8 8 8 8 8 8 8 7 7 6 7 6 6 6 6 6 5 5 5 5 4 3 2 2 2 2 0 0 1 1 1 1 1 1 1 1 -0 -1 -1 -1

GFSSGP_700_temp_075.txt.gz
Temp
8 8 8 8 7 7 8 8 8 8 8 8 8 9 9 9 9 9 9 8 8 7 7 7 6 5 5 6 6 5 6 6 6 6 6 6 7 7 8 8 8 7 7 8 7 7 7 6 7
9 8 8 7 7 7 8 8 7 7 7 8 8 8 8 8 8 8 7 8 8 7 7 6 6 5 5 4 5 6 5 5 5 5 6 6 7 6 7 7 7 7 7 7 7 7 6 6 6
8 7 7 7 7 7 7 8 7 8 7 7 8 8 8 8 8 8 7 7 7 7 6 6 5 2 4 4 3 4 5 4 4 5 6 6 6 5 6 6 6 7 7 7 6 6 6 6 6
7 7 7 7 8 7 7 8 7 9 8 7 8 8 8 8 7 7 7 7 7 7 6 5 5 5 5 4 4 3 4 3 3 5 6 6 6 5 5 6 6 6 6 6 6 6 6 6 5
7 6 7 7 8 8 8 8 8 8 8 7 7 8 7 7 6 5 5 6 6 6 5 5 5 5 5 5 4 4 3 3 3 3 6 5 5 5 5 6 6 6 6 6 5 5 5 5 5
7 6 6 7 8 8 8 7 7 7 7 7 8 8 7 6 6 6 5 5 5 5 5 5 5 4 5 5 3 3 3 3 1 3 4 4 5 4 5 5 5 5 5 6 5 5 5 4 4
6 6 6 6 8 8 8 7 7 7 8 8 8 7 7 7 6 6 5 4 4 5 4 5 5 4 3 3 3 3 3 3 1 1 4 4 4 4 5 4 5 4 5 5 5 5 4 4 3
6 5 6 7 7 8 7 7 7 7 7 8 7 7 7 7 6 6 6 5 4 5 5 5 5 3 4 3 4 2 3 3 2 1 2 3 2 3 3 3 4 4 4 4 5 4 4 3 3
6 5 7 7 7 7 7 7 7 7 7 7 7 7 7 7 6 6 6 5 5 4 4 4 4 4 5 3 2 2 3 2 1 1 1 2 2 2 3 3 3 3 3 4 4 4 4 3 3
5 6 7 7 7 7 7 7 6 7 8 8 7 7 7 6 6 6 6 6 5 5 4 4 4 4 4 3 3 3 1 1 1 1 1 2 2 2 2 2 3 3 3 3 3 4 4 4 4
5 7 7 7 7 7 7 7 6 7 7 7 7 7 7 6 6 6 6 5 5 5 5 4 4 4 4 3 2 2 1 0 1 -0 2 2 2 2 2 2 3 3 3 2 3 3 3 4 2
5 6 6 7 7 7 7 7 7 7 8 8 8 7 7 7 6 6 5 5 4 4 4 4 4 4 4 3 3 1 1 0 1 -0 1 1 1 2 2 2 2 3 3 3 3 3 3 3 2
5 6 6 6 7 7 7 7 7 7 8 8 7 7 7 7 6 6 6 4 4 3 3 4 4 4 3 3 4 3 1 0 1 -0 -1 0 2 0 -0 1 2 2 3 3 3 3 3 2 2
6 6 6 7 7 7 7 7 7 7 8 7 7 7 7 6 6 6 6 4 2 3 3 3 3 3 2 3 3 3 2 1 1 1 1 1 -0 -0 1 1 2 2 2 3 3 3 2 2 1
5 6 7 7 7 7 7 7 7 8 8 8 7 7 7 6 6 6 6 4 3 1 2 1 2 2 2 2 2 2 1 1 1 0 -1 -2 0 1 1 2 2 2 3 2 2 2 2 2 2
5 5 7 8 7 7 8 8 8 8 8 8 7 7 6 6 5 6 5 5 4 2 1 2 2 2 1 2 2 2 1 1 0 -0 -1 -0 0 1 1 2 2 2 2 2 2 2 2 2 1
5 5 7 8 7 7 7 7 8 8 8 8 7 7 6 6 5 6 6 6 5 1 2 1 2 2 2 2 1 1 1 1 -0 -1 -1 -0 0 1 1 2 2 2 2 2 1 1 1 1 1
5 5 6 6 8 7 7 8 8 8 8 8 7 6 6 6 5 5 6 6 5 3 2 1 1 2 2 2 2 1 1 -0 -2 -1 -1 0 1 1 1 1 1 1 2 2 1 1 1 1 1
6 5 6 6 7 7 7 8 8 8 8 8 7 7 6 6 5 5 5 6 5 4 1 2 1 1 1 1 1 0 1 0 -1 -2 -2 0 0 1 1 1 1 2 1 1 1 1 1 1 0
5 5 6 7 7 6 7 7 8 8 8 8 7 7 7 6 5 5 5 5 5 6 4 2 2 1 0 1 1 1 0 -0 -1 -1 -1 -0 0 1 1 1 2 1 1 1 1 1 1 0 0
4 5 6 6 7 6 7 7 8 8 8 8 8 7 7 7 5 5 5 5 5 5 5 5 4 3 0 1 1 0 -0 -1 -1 -1 -1 -0 0 0 1 1 1 1 1 1 1 1 1 0 -0
4 6 6 6 5 5 7 6 8 8 8 8 8 8 8 7 6 6 6 5 5 4 5 5 5 5 4 3 2 0 0 0 1 1 1 0 1 1 1 1 1 1 1 1 1 1 1 -0 0
5 6 6 6 6 6 7 6 7 7 7 7 8 8 8 7 7 7 6 6 5 5 4 4 4 4 4 5 5 4 3 3 2 2 2 2 2 2 2 2 1 2 1 1 1 1 0 -0 0
6 5 5 5 5 4 7 6 7 7 7 8 8 8 8 8 7 6 6 6 6 6 5 5 5 5 5 4 4 4 4 3 3 3 2 2 2 2 2 2 2 2 2 1 1 0 0 0 -0
5 4 4 3 3 2 7 6 7 7 7 8 8 8 8 8 8 7 7 7 7 6 6 6 6 6 6 5 5 5 4 3 3 3 3 2 2 2 2 2 2 2 2 1 1 0 0 0 -0
5 5 4 4 2 3 6 5 7 7 8 8 8 8 8 8 8 8 7 7 7 6 6 6 6 6 6 6 5 5 5 4 4 4 4 3 3 3 2 2 2 1 1 0 0 0 0 -0 -0
5 5 6 5 3 2 6 7 7 8 8 8 9 8 8 8 8 8 7 7 7 6 6 6 6 5 5 5 5 5 5 5 4 4 4 4 3 3 2 1 1 0 1 0 0 0 -0 -0 -1
5 6 5 5 2 2 3 5 6 8 8 8 8 8 8 8 8 8 7 7 7 6 6 6 5 5 5 5 5 5 5 4 4 4 3 3 3 2 2 1 0 -0 0 0 1 -0 -0 -0 -0
5 5 6 6 6 2 1 5 7 8 8 8 8 8 8 8 8 8 7 7 7 6 6 6 5 5 5 5 5 4 4 4 4 3 3 3 2 2 0 0 -0 -0 0 -0 0 -0 -0 -0 -0
5 6 6 6 3 5 5 5 7 7 8 8 8 8 8 8 8 7 7 7 7 6 6 6 6 6 5 5 4 1 1 2 2 2 2 2 2 2 0 1 1 0 0 1 1 0 0 -0 -0

GFSSGP_700_temp_078.txt.gz
Temp
9 8 8 8 8 7 8 7 7 7 7 7 8 8 8 8 8 8 8 9 8 7 7 7 7 6 6 5 4 5 5 6 6 5 6 5 5 5 6 6 6 7 7 7 7 7 7 7 7
8 8 8 8 8 7 7 7 7 7 7 7 7 7 8 8 7 7 7 7 8 7 6 6 6 6 6 5 3 4 4 5 6 5 5 5 6 5 6 6 6 6 6 7 7 7 7 7 6
8 8 8 8 8 8 7 7 7 8 8 7 7 7 7 7 7 7 7 6 6 6 6 7 6 6 5 4 3 4 3 4 5 5 5 5 6 5 5 6 5 5 6 6 6 6 6 6 6
8 7 7 8 7 8 8 7 7 8 8 8 8 7 7 7 7 7 6 6 6 6 6 6 5 5 3 3 5 3 3 3 4 5 5 5 5 5 5 5 5 5 6 6 6 6 6 5 5
8 7 7 7 7 8 7 7 7 8 8 8 7 7 7 7 7 7 6 6 6 5 5 5 5 5 5 4 5 4 3 3 3 4 4 4 4 5 5 5 4 5 5 6 6 5 5 5 5
7 7 7 7 7 8 7 7 7 7 7 7 7 7 7 7 7 7 7 6 6 5 4 4 5 5 4 5 4 3 3 3 4 3 3 4 4 4 4 5 4 5 5 5 5 5 5 5 5
7 6 7 7 7 8 7 7 7 7 7 7 7 7 7 7 7 7 7 6 6 5 5 4 4 4 4 4 3 3 3 3 3 2 2 3 4 4 4 4 4 4 4 4 5 4 4 5 5
7 5 6 7 7 8 7 7 7 7 7 7 7 7 7 7 7 6 6 6 6 5 5 5 4 4 4 4 3 3 3 3 3 3 2 2 3 4 3 4 4 4 4 4 4 4 3 4 4
6 5 7 7 7 7 7 6 7 7 7 7 7 7 7 7 6 7 6 6 5 5 5 5 5 4 5 3 3 2 3 3 3 3 1 1 3 3 3 3 3 3 4 4 4 3 3 3 4
6 6 7 7 7 7 7 6 6 7 7 7 7 7 7 6 7 7 6 6 6 5 5 5 5 5 4 4 3 3 3 2 2 2 0 1 2 2 2 2 3 3 3 3 3 3 3 3 3
6 7 7 6 6 6 7 7 7 7 7 7 7 7 7 7 7 6 6 6 6 5 4 4 5 4 4 3 3 3 3 3 2 1 0 1 1 2 2 2 2 3 3 3 3 3 3 3 2
5 6 6 7 6 6 6 6 7 7 7 7 7 7 7 7 7 6 6 6 6 4 4 4 4 4 3 3 3 2 2 2 1 0 -0 0 1 2 2 1 2 2 2 3 3 3 3 3 2
6 6 6 6 7 6 6 7 7 7 7 7 7 7 7 7 6 6 6 6 5 3 3 3 3 3 3 3 3 2 2 1 0 -0 -0 -0 0 0 -0 0 1 1 2 2 3 3 3 3 2
6 6 6 7 7 6 7 7 7 7 7 7 7 7 7 6 6 5 6 5 4 3 3 3 3 2 2 3 2 1 1 0 -0 -1 -2 -1 -1 -0 -1 -0 -0 -0 1 1 2 3 3 3 2
5 6 6 7 7 6 7 7 7 8 7 7 7 7 6 6 5 5 6 6 4 3 3 3 3 2 2 2 2 1 1 1 -0 -1 -1 -2 -2 -1 -1 -1 -0 -1 1 1 1 2 2 2 1
5 5 6 8 7 7 6 7 7 8 8 8 8 7 6 6 5 5 5 5 5 4 2 2 1 2 2 2 2 1 1 1 -0 -2 -2 -1 -2 -1 -0 -1 -1 -0 0 1 2 2 1 1 1
4 4 5 7 7 7 6 7 8 8 8 8 7 7 6 6 5 5 5 5 5 3 2 2 2 2 1 2 2 1 1 0 0 -1 -2 -2 -2 -2 -2 -2 -0 0 0 1 1 1 1 1 1
4 5 6 6 7 7 7 7 7 8 8 8 7 7 6 6 5 5 5 5 5 3 1 1 1 2 1 2 1 1 1 0 0 -0 -1 -2 -2 -1 -1 -0 -0 -0 1 1 1 1 0 -0 1
4 5 5 6 6 6 7 7 7 7 8 8 7 7 6 6 5 5 5 5 5 4 1 1 1 1 1 1 1 1 1 0 -0 -0 -2 -2 -1 -1 -0 -0 0 0 1 1 1 0 1 0 1
4 4 5 6 7 6 7 7 7 7 7 7 7 7 6 6 5 5 5 5 5 5 3 2 2 1 1 1 1 1 0 0 -0 -0 -1 -2 -1 -1 -1 0 0 1 1 1 1 0 0 0 0
5 4 5 5 7 6 6 7 7 7 7 8 8 7 7 7 6 5 5 5 5 5 5 3 2 1 1 1 1 1 0 0 -0 -1 -2 -2 -1 -1 0 -0 0 1 1 1 1 1 0 0 0
4 6 5 5 4 4 5 4 7 7 7 8 8 7 7 7 6 5 5 5 5 5 5 5 2 1 1 1 1 1 0 0 0 -0 -1 -1 -1 -0 0 0 1 1 1 1 1 1 1 0 0
6 4 5 5 4 4 5 4 6 7 7 7 8 7 8 7 7 5 5 5 5 5 5 5 5 5 4 2 1 0 1 0 0 0 -0 -1 -0 0 0 0 0 1 1 1 1 1 1 0 0
5 4 4 4 3 1 4 5 6 7 7 7 7 7 7 8 7 6 5 6 6 6 5 5 5 5 5 5 5 4 4 3 2 1 1 1 1 0 1 1 1 1 1 1 1 0 1 0 0
3 3 2 2 1 1 6 5 6 7 7 7 8 7 8 8 7 7 6 7 6 6 6 6 6 5 5 5 5 5 4 4 4 3 3 3 2 2 2 2 2 1 1 1 0 0 0 -0 -0
4 3 3 3 1 3 5 5 6 7 7 7 7 8 8 8 8 7 7 7 6 6 6 6 6 6 5 5 5 5 5 4 3 3 3 2 2 2 1 1 1 1 1 0 0 0 0 -1 -0
3 2 4 4 2 2 5 6 7 7 8 8 8 8 8 8 8 8 7 7 7 6 6 6 6 6 5 5 5 5 4 4 3 3 3 2 2 2 1 1 1 1 1 0 0 0 0 -0 -0
3 4 3 3 1 1 3 4 6 7 8 8 9 9 8 8 8 8 7 7 7 6 6 6 6 5 5 5 5 5 4 4 3 3 2 3 3 2 2 2 2 2 1 1 0 -0 -0 -0 -0
3 3 4 5 5 2 2 4 7 7 7 8 9 8 8 8 8 8 7 7 7 6 6 6 6 5 5 5 5 4 4 4 3 3 3 3 3 3 2 1 1 -0 -0 0 0 -0 -1 -0 -0
3 4 4 5 3 4 4 5 7 7 7 7 8 8 8 8 8 8 7 7 7 7 6 6 6 6 5 5 5 3 3 2 3 3 3 3 2 2 1 1 0 -0 0 -0 -0 -0 -1 -0 -0

GFSSGP_700_temp_081.txt.gz
Temp
9 9 9 8 8 8 7 7 7 7 7 8 8 7 7 7 7 8 8 8 8 8 8 7 6 6 6 6 6 6 6 5 5 5 6 6 6 5 5 6 6 6 6 6 6 6 7 7 7
9 8 8 8 8 7 7 7 7 7 8 8 8 8 7 7 7 7 7 7 7 6 7 7 6 6 6 6 6 6 5 5 4 5 6 6 5 5 5 6 6 6 6 6 6 6 6 6 6
8 8 8 8 8 8 8 7 7 7 8 8 8 8 7 7 7 7 7 7 6 6 6 6 6 6 6 6 6 5 4 3 3 4 4 5 5 5 5 6 6 6 5 5 6 6 6 6 6
8 7 7 7 8 8 7 7 7 7 8 8 8 8 7 7 7 7 7 7 6 6 6 5 5 5 5 5 5 4 4 4 3 4 4 4 4 5 5 5 6 5 5 5 5 5 5 5 6
7 7 7 7 8 8 7 7 7 8 7 8 7 7 7 7 7 7 7 7 7 6 5 5 4 4 5 4 4 4 5 3 4 3 3 4 4 5 5 5 6 5 5 4 4 5 5 6 6
7 7 7 7 7 7 7 7 7 7 7 7 7 7 7 7 7 7 7 6 6 6 5 4 4 3 4 4 4 4 4 3 3 3 3 3 4 5 6 5 5 5 4 4 4 4 4 5 5
6 6 6 7 7 7 7 7 7 7 7 7 7 7 7 7 7 7 6 6 6 5 5 4 3 3 3 3 4 4 3 3 3 3 3 3 3 4 5 5 4 4 4 4 4 4 4 4 5
6 6 6 7 7 7 7 6 7 7 7 7 7 7 7 7 7 7 6 6 5 5 5 5 4 2 2 3 3 3 3 3 3 3 3 3 3 4 3 4 4 4 4 4 3 3 4 4 4
6 5 6 7 7 7 7 7 7 7 7 7 7 7 7 7 7 6 6 6 6 5 5 5 4 3 3 3 2 3 3 3 3 3 3 3 2 4 3 4 3 3 3 3 3 3 4 4 4
6 6 7 7 7 7 7 6 6 7 7 7 7 7 7 7 6 6 6 6 6 6 5 4 4 3 3 3 3 3 3 3 3 3 3 3 2 3 3 3 3 3 3 2 2 3 3 3 4
6 6 7 7 6 7 7 7 7 6 7 7 7 7 7 7 6 6 6 6 6 6 6 4 4 4 4 3 3 3 3 2 3 3 2 2 -0 2 2 3 3 2 2 2 2 2 3 3 3
6 6 6 7 6 6 6 6 7 7 7 7 7 7 7 7 6 6 6 6 6 5 5 3 4 4 3 3 3 3 2 3 3 3 1 2 -1 1 2 2 2 2 2 2 2 2 3 3 3
6 6 6 6 6 6 6 7 6 7 7 7 7 7 7 7 6 6 5 6 6 5 3 2 3 3 3 2 2 3 3 2 2 3 2 0 1 1 2 1 2 2 2 1 2 1 2 2 2
6 6 6 6 6 6 6 6 6 8 7 7 7 7 7 7 6 6 5 5 6 5 4 2 3 2 2 2 3 2 2 3 1 1 -1 -0 0 0 1 0 1 1 1 1 1 2 2 2 1
5 6 6 6 7 6 6 6 7 7 7 8 8 7 7 7 6 5 5 5 5 5 4 2 3 3 2 3 2 2 2 2 1 -1 -2 -1 -1 -1 -1 -1 0 -0 -1 0 0 1 1 1 1
5 5 5 7 7 6 6 6 7 7 7 8 8 7 7 6 6 5 5 5 5 5 4 1 2 2 2 2 2 2 1 -0 -0 -1 -2 -1 -2 -2 -2 -1 -0 -1 -0 0 1 1 1 1 1
4 4 5 7 6 6 6 6 7 7 7 8 8 7 7 6 6 5 5 5 5 4 3 1 1 2 2 2 1 2 1 0 -0 -1 -2 -2 -3 -2 -1 -1 -1 -1 -0 -1 -1 -1 0 0 0
4 4 6 6 6 6 6 7 7 7 7 7 7 7 7 6 5 5 4 4 5 4 3 1 1 1 2 1 1 1 0 0 -0 -2 -2 -2 -2 -2 -2 -1 -1 -1 -0 -1 -0 -0 -0 -1 -0
4 5 6 7 6 5 6 6 7 7 7 7 7 7 7 6 6 5 4 4 5 5 3 0 1 2 1 1 1 0 0 0 -1 -2 -2 -2 -2 -2 -2 -1 -1 -1 -1 -1 -1 -0 0 -0 -1
3 4 6 6 5 5 6 6 7 7 7 7 7 7 7 6 6 5 5 5 5 5 4 2 1 1 1 1 1 1 -0 -0 -0 -1 -2 -3 -2 -2 -1 -1 -1 -1 -1 -0 -0 0 -0 -0 -0
4 4 5 5 5 5 5 6 7 7 7 7 7 7 7 7 6 5 5 5 5 5 4 2 2 1 1 1 1 1 -0 -1 -1 -0 -0 -2 -2 -1 -1 -1 -2 -1 -0 0 0 1 0 -0 0
3 5 4 4 3 3 4 5 6 7 7 7 7 7 8 7 6 6 6 5 5 5 5 3 2 2 2 1 1 0 1 0 0 -0 -1 -1 -1 -1 -1 -2 -1 -0 0 0 1 0 0 0 0
4 4 4 4 3 2 3 3 5 6 7 7 7 7 7 7 7 6 6 6 5 5 5 5 4 3 2 1 1 1 1 0 -0 -0 -0 -1 -0 -1 -1 -1 -0 0 0 0 1 1 0 0 -0
3 3 3 2 2 2 3 4 5 6 7 7 7 7 7 7 7 6 6 6 6 6 5 5 5 4 3 1 1 1 1 0 0 0 -0 -1 -0 -0 -0 -0 -0 0 0 1 1 1 0 0 0
2 2 3 3 2 4 5 4 6 7 7 7 7 7 7 7 7 7 6 7 6 6 6 6 5 5 5 4 3 2 0 -0 0 0 1 0 -0 0 0 0 0 1 1 1 0 0 0 -0 -1
3 3 3 3 4 5 5 4 6 7 7 7 7 7 7 7 8 7 7 7 7 6 6 6 6 5 5 5 5 5 3 2 1 0 0 0 0 1 0 0 0 0 0 0 0 0 0 -0 -0
2 2 3 3 2 2 4 5 6 7 7 7 7 8 8 7 8 7 7 7 7 7 6 6 6 5 5 5 5 5 5 4 4 4 4 3 3 2 1 1 1 1 1 1 0 0 0 0 0
2 3 2 1 3 4 4 4 6 7 7 7 8 8 8 8 8 8 7 7 7 6 6 6 6 6 5 5 5 5 4 4 4 4 4 3 3 3 2 2 2 1 1 0 -0 -0 -0 -0 -0
2 2 3 3 3 5 5 5 6 7 7 7 7 8 8 8 8 8 8 7 7 6 6 6 6 6 6 6 5 5 5 4 4 4 4 4 3 2 2 2 1 1 1 0 -0 -1 -1 -0 -1
2 3 3 3 3 3 4 5 7 7 7 7 7 8 8 8 8 8 8 7 7 6 6 6 6 6 6 5 5 5 4 4 3 3 3 3 3 3 3 2 1 1 0 -0 -1 -0 -1 -0 -0

GFSSGP_700_temp_084.txt.gz
Temp
9 9 9 9 8 9 11 9 8 8 8 8 8 8 7 7 8 8 8 8 8 8 8 8 7 7 7 7 7 7 7 6 6 5 5 5 6 6 6 5 6 6 6 6 6 6 6 7 7
9 9 9 8 8 11 11 9 8 8 7 8 8 8 8 8 8 7 8 7 7 7 7 7 7 7 7 6 6 7 6 6 5 5 5 5 5 5 5 5 5 6 6 6 6 6 6 6 6
9 8 7 7 9 11 11 8 8 7 8 8 8 8 8 7 7 7 7 7 7 7 6 6 6 5 6 6 5 5 5 5 4 4 4 4 5 4 4 5 6 6 5 6 5 6 6 6 6
8 8 8 8 10 9 9 8 7 7 8 8 8 7 8 8 7 7 7 7 7 7 7 6 5 5 5 5 4 3 4 3 4 3 3 4 4 4 3 4 5 5 5 5 5 6 5 5 5
8 7 8 8 9 8 7 7 7 7 7 8 8 8 7 7 7 7 7 7 7 6 6 6 5 5 5 4 4 4 3 3 3 4 2 4 4 4 3 3 5 5 5 5 5 5 5 5 5
6 7 8 10 10 8 7 7 7 7 8 8 7 7 7 7 7 7 7 7 7 6 6 6 5 4 5 4 4 4 3 3 4 4 3 4 4 3 4 3 5 4 4 5 5 5 5 5 5
6 7 8 9 9 8 7 6 6 7 7 7 7 7 7 7 7 7 7 6 6 6 6 5 5 4 4 2 3 4 4 4 4 4 3 3 3 4 3 4 4 4 4 5 4 4 4 4 4
5 6 8 8 9 8 7 7 7 7 7 7 7 7 7 7 7 7 6 6 6 6 6 6 5 4 3 2 2 3 3 3 3 3 2 3 2 3 3 3 4 4 4 4 4 4 4 4 4
6 6 8 8 7 8 7 7 7 7 7 7 7 7 7 7 7 7 6 6 6 6 6 6 5 4 3 2 2 3 3 3 2 2 3 2 2 2 2 2 3 3 3 3 4 3 3 3 4
5 6 8 8 7 7 6 7 6 7 7 7 7 7 7 7 7 7 7 6 6 6 6 6 5 4 3 3 2 2 3 2 2 2 3 2 2 1 1 1 3 3 3 3 3 3 3 3 3
5 6 7 6 7 6 6 6 6 7 7 7 7 7 7 7 7 7 6 6 6 6 6 6 5 4 4 3 2 2 2 2 3 2 3 2 2 0 1 1 2 3 3 3 3 3 3 3 3
5 6 6 6 6 6 6 6 6 6 7 7 7 7 7 7 7 7 6 6 6 5 6 6 4 3 4 4 3 3 2 2 3 2 3 2 2 1 1 1 2 3 3 2 2 3 3 3 2
6 6 5 6 5 6 6 7 6 6 7 7 7 7 7 7 7 6 6 6 5 6 6 6 3 3 4 3 3 3 3 3 3 2 3 2 2 1 -2 1 2 2 2 2 2 2 2 2 2
5 5 5 5 5 6 7 6 5 8 6 7 7 8 8 7 7 6 6 6 5 5 6 6 4 2 3 3 3 3 3 3 2 2 2 1 0 0 -2 1 1 1 2 2 1 2 1 2 1
5 5 5 5 5 6 5 6 6 8 7 7 7 8 8 7 7 6 6 6 5 5 6 6 4 3 2 3 3 3 3 3 3 2 2 1 -1 -3 -1 0 -0 1 1 1 1 1 1 2 1
4 4 6 7 6 7 6 7 8 7 7 7 8 8 8 7 7 6 6 5 5 5 5 5 4 3 2 3 3 3 2 2 2 2 1 -2 -3 -1 -0 0 0 -0 -1 -1 -0 0 2 1 1
5 5 7 7 6 6 6 8 8 7 7 7 7 8 8 7 7 6 6 5 5 5 5 4 3 2 2 3 2 2 1 1 -0 -0 0 -3 -2 -1 -1 -1 -1 -1 0 -1 -0 0 1 1 1
6 6 6 7 7 6 6 7 7 7 7 7 7 8 7 7 6 6 6 5 5 5 5 3 2 1 2 2 2 2 1 1 0 0 -2 -3 -2 -2 -2 -1 -2 -1 -1 -1 0 0 1 0 -0
6 5 6 7 5 5 6 6 7 7 7 7 7 7 7 7 7 6 6 5 5 5 5 2 1 2 1 1 1 1 1 1 0 -0 -1 -2 -2 -1 -2 -2 -1 -1 -0 0 -0 -0 0 -0 -0
4 4 5 6 5 4 6 6 7 7 7 7 7 7 7 7 7 6 6 5 5 5 5 3 1 1 2 1 1 1 1 0 0 -0 -1 -2 -2 -2 -2 -2 -1 -1 0 -0 -0 -0 -0 -0 -0
3 4 5 5 5 5 5 6 7 7 7 7 7 7 7 7 7 6 6 5 5 5 5 4 3 2 1 1 1 1 0 0 -0 -1 -1 -2 -2 -1 -2 -2 -1 -0 -1 -0 -0 -0 -0 -0 -0
3 4 4 4 4 6 5 8 9 7 7 7 7 7 7 7 7 7 6 6 6 6 6 5 3 2 1 1 1 1 0 0 0 0 -1 -1 -2 -2 -2 -2 -1 -1 -1 -0 0 -0 -0 0 0
3 3 4 4 4 5 5 6 8 7 7 8 8 7 7 7 7 7 6 6 6 6 6 5 4 2 1 1 1 0 1 0 0 -0 -1 -1 -2 -2 -1 -1 -1 -1 -1 -0 -0 0 -0 -0 -0
2 2 3 3 4 5 5 6 8 9 8 8 8 7 7 7 7 7 7 7 6 6 6 6 5 4 1 1 1 1 1 1 1 0 -1 -1 -1 -2 -1 -1 -1 -1 -0 -0 -0 -0 -0 0 -0
2 3 6 5 5 7 7 6 7 8 7 7 8 7 7 7 7 7 7 7 7 6 6 6 6 5 4 2 1 1 1 1 0 0 0 -0 -0 -2 -1 -1 -0 -0 -0 -0 -1 -1 -1 -0 -0
2 3 6 6 7 8 6 7 7 7 7 7 7 7 7 7 7 7 7 7 7 7 6 6 6 6 5 5 3 2 1 1 0 0 0 -0 -0 -0 -1 -0 0 -0 -0 -1 -1 -1 -1 -0 -0
3 3 4 5 5 4 7 7 6 7 7 7 7 7 7 7 7 7 7 7 7 7 7 6 6 6 5 5 5 5 4 3 2 1 0 0 -0 -1 -0 0 0 -0 -1 -1 -1 -0 -0 -0 -0
3 4 3 3 4 5 8 7 8 7 7 7 7 7 8 8 7 8 7 7 7 7 6 6 6 6 5 5 5 5 5 5 4 3 3 2 1 0 0 0 -0 0 0 0 -0 0 0 -0 0
2 2 3 4 4 6 7 9 7 7 7 7 6 7 8 8 8 8 7 7 7 7 7 7 6 6 6 6 5 5 5 5 4 4 4 4 3 3 2 1 2 1 1 1 1 1 1 1 0
2 3 3 4 6 5 5 7 7 6 6 6 7 7 7 8 8 8 7 7 7 7 7 6 6 6 6 6 5 5 5 5 5 4 4 4 3 3 3 2 2 2 2 1 1 1 1 0 0

GFSSGP_700_temp_087.txt.gz
Temp
10 10 9 9 8 11 13 14 12 11 11 10 9 9 10 10 10 9 8 8 8 8 8 8 8 8 7 8 7 7 7 6 6 5 5 5 5 5 5 5 5 6 6 6 7 6 6 6 7
10 9 9 8 9 13 15 13 11 11 10 9 8 8 8 9 9 7 8 8 8 8 8 7 8 7 7 7 7 6 6 6 5 5 5 4 5 5 5 5 5 6 6 6 6 6 6 6 6
9 9 7 9 11 13 14 12 11 10 9 9 9 8 9 8 7 7 8 8 7 7 7 7 7 7 6 6 6 6 6 5 5 5 4 4 5 4 5 5 5 6 5 5 6 6 6 6 6
9 8 7 9 12 13 12 12 10 9 9 8 9 9 8 8 7 8 7 7 7 7 7 7 6 6 6 5 5 5 4 5 3 4 4 4 4 4 4 5 5 5 5 5 5 5 6 6 6
8 7 9 11 12 12 11 10 9 9 9 9 8 9 8 8 8 7 7 7 7 7 7 6 6 6 6 5 5 5 3 3 2 2 3 3 3 4 4 5 4 4 5 6 5 5 5 5 5
6 8 9 12 13 12 10 10 9 9 9 8 7 8 8 8 7 7 7 7 7 7 7 6 6 6 6 5 5 5 4 3 3 2 3 4 3 3 4 4 5 4 4 5 5 5 5 5 5
6 9 10 11 12 12 11 10 8 9 8 9 8 8 8 8 7 7 7 7 7 6 6 6 6 6 6 5 5 4 4 3 3 3 3 3 3 2 2 2 4 4 4 4 5 5 5 4 4
6 8 9 10 11 12 11 10 8 8 9 8 8 8 9 7 7 7 7 7 7 7 6 6 6 6 5 5 4 3 2 3 3 3 3 2 3 2 2 3 2 3 4 4 4 4 4 4 4
6 7 9 10 11 11 10 9 8 7 7 8 8 7 7 7 7 7 7 7 7 7 6 6 6 6 5 4 4 3 2 3 3 3 3 1 3 2 2 3 3 3 3 4 4 4 4 4 4
6 8 9 10 11 10 9 8 8 9 8 9 8 7 7 7 7 7 7 7 7 7 6 6 6 6 5 4 4 3 2 2 3 3 3 2 1 3 1 2 2 3 3 3 3 3 3 3 4
7 7 9 10 9 9 9 9 9 8 8 9 8 8 8 7 7 7 7 7 7 7 6 6 6 6 5 4 4 3 3 3 3 2 2 2 2 2 1 1 1 2 2 3 3 3 3 3 3
7 7 8 8 9 8 8 8 8 8 8 8 8 7 7 6 7 7 7 7 6 6 6 6 6 6 5 4 4 3 4 3 3 2 2 2 2 2 0 1 1 2 2 2 2 3 3 3 3
7 7 7 8 8 7 7 7 8 8 8 8 8 7 7 7 7 7 7 7 6 6 6 6 6 6 3 3 3 4 3 3 3 3 2 2 2 2 1 -0 0 2 2 2 2 2 3 3 2
7 7 7 7 7 7 7 7 7 8 8 7 7 7 7 7 8 7 7 7 6 6 6 6 6 6 4 4 3 3 3 3 3 3 3 2 2 1 1 -0 0 1 1 1 2 2 3 2 2
6 6 6 7 7 7 7 7 8 8 8 8 7 7 7 7 8 7 7 7 6 6 6 6 6 6 5 4 3 3 3 3 3 3 3 3 2 2 1 -0 -1 1 1 1 1 2 2 1 2
5 5 6 7 8 9 8 8 9 9 9 8 8 8 7 8 8 7 7 7 6 6 6 6 5 5 5 4 3 3 3 3 3 2 2 3 2 1 1 -0 -1 -0 1 1 1 2 1 1 1
5 6 7 8 9 8 8 8 10 9 8 8 8 8 7 8 8 7 7 6 6 6 5 5 5 5 4 3 3 3 3 4 4 3 2 2 2 1 -1 -2 -2 -0 -1 -0 0 0 1 1 2
6 6 7 8 9 9 8 9 9 9 8 8 8 8 7 7 7 7 7 6 6 6 5 5 5 4 2 2 3 3 3 3 2 2 2 1 0 -0 -1 -3 -3 -2 -1 -2 -2 -1 -0 1 1
6 7 9 9 10 8 8 8 9 9 9 9 8 8 7 6 6 7 7 6 6 6 5 5 4 2 2 2 2 2 3 2 2 1 0 0 0 -0 -3 -3 -3 -2 -1 -1 -1 -1 -0 1 1
4 6 7 7 8 8 7 8 8 9 9 9 9 9 8 7 6 7 7 6 6 6 6 5 4 2 2 2 2 2 1 1 1 1 0 -0 -1 -3 -3 -4 -3 -2 -1 -1 -1 -1 0 0 -0
4 5 6 7 8 8 7 7 8 9 9 9 9 9 8 8 6 8 7 6 6 6 6 6 4 3 2 2 1 1 1 1 1 0 0 -2 -3 -4 -3 -3 -2 -2 -2 -1 -2 -1 -0 0 -0
4 5 5 5 6 7 8 10 9 10 10 10 9 8 8 8 6 7 7 7 6 6 6 6 4 3 3 2 2 1 1 1 1 0 0 -0 -1 -2 -2 -2 -2 -1 -1 -1 -1 -1 -1 -0 -0
4 4 4 5 6 7 7 8 9 9 10 10 9 9 8 8 7 6 7 7 7 6 6 6 5 4 3 2 1 1 1 1 0 0 -0 -1 -2 -2 -2 -1 -1 -2 -1 -1 -1 -1 -1 -0 -0
3 4 4 5 6 7 7 8 9 10 10 10 9 9 9 8 7 6 7 7 7 7 6 6 6 5 3 2 1 1 1 0 0 0 0 0 -1 -2 -2 -1 -2 -2 -2 -1 -1 -1 -0 -0 -0
2 4 6 6 7 7 8 9 9 10 10 10 9 9 9 8 7 6 7 7 7 7 6 6 6 6 4 2 2 1 1 0 1 0 0 -1 -1 -1 -1 -1 -2 -2 -1 -1 -1 -1 -0 -0 -0
3 3 5 6 8 10 10 10 9 9 9 9 9 9 8 8 7 6 6 7 7 7 7 6 6 6 6 4 3 2 2 2 1 0 0 0 -0 -0 -1 -1 -2 -1 -1 -1 -1 -1 -1 -1 -0
4 3 4 6 7 7 8 9 9 9 9 8 8 8 8 8 7 6 5 7 7 7 7 6 6 6 6 6 5 3 2 2 1 1 0 0 0 -0 -1 -1 -0 -1 -1 -0 -1 -0 -1 -0 -0
2 5 5 5 6 6 9 9 10 9 9 8 8 8 8 8 8 6 6 7 7 7 7 7 6 6 6 6 6 5 4 3 2 1 1 0 -0 -0 -1 -1 0 -0 -0 -0 -0 0 0 -0 0
3 3 4 5 5 7 8 10 9 9 9 9 8 7 7 8 8 7 7 7 7 7 7 7 7 6 6 6 6 6 5 5 4 3 3 2 1 1 1 1 1 0 0 0 0 1 1 1 1
4 4 4 5 6 7 7 8 8 8 8 8 7 7 7 8 7 7 6 7 7 7 7 7 7 7 6 6 6 6 5 5 5 5 4 3 3 3 2 1 1 1 1 1 1 1 1 1 1

GFSSGP_700_temp_090.txt.gz
Temp
10 10 9 10 7 9 12 14 15 13 12 11 10 11 10 10 10 10 9 9 8 8 8 8 8 8 8 7 7 7 7 7 7 6 5 5 5 5 5 5 6 6 7 7 7 7 6 7 7
10 10 9 8 8 11 14 15 13 13 12 10 9 9 9 10 10 9 9 9 9 8 8 8 7 8 7 7 7 7 7 7 6 6 5 5 4 5 5 5 5 6 6 6 6 7 6 6 7
9 9 7 8 10 11 13 14 13 12 11 10 10 10 10 9 9 8 8 8 8 8 8 8 7 7 7 7 6 6 6 6 6 5 5 4 4 5 4 4 5 5 6 6 6 6 6 6 6
9 8 7 9 10 12 13 14 12 11 11 10 10 10 9 9 8 8 8 8 7 7 7 7 7 7 7 7 7 6 6 6 5 5 4 4 4 4 4 4 5 5 5 5 5 6 6 6 6
9 7 8 10 11 12 13 12 11 10 11 10 9 10 10 9 8 8 8 8 7 7 7 7 7 7 6 6 6 6 5 5 5 5 3 4 4 4 4 4 4 5 5 5 5 5 5 6 6
7 7 9 11 12 13 13 12 11 10 10 10 9 9 9 8 8 8 8 7 7 7 7 7 7 6 6 6 6 6 5 5 5 4 4 4 3 3 4 3 3 3 5 4 5 5 5 5 5
8 8 9 10 11 12 13 12 11 10 9 9 10 9 9 9 8 8 8 7 7 7 7 7 7 6 6 6 6 6 5 5 4 4 4 1 3 3 3 3 3 4 5 5 4 4 5 5 5
7 7 9 10 11 12 13 12 11 10 9 9 9 9 9 8 7 7 8 8 7 7 7 7 7 6 6 6 6 6 5 4 4 3 3 3 3 3 3 3 2 3 5 4 4 4 4 5 5
7 7 8 9 11 12 12 11 10 9 9 9 9 9 8 8 8 8 7 7 7 7 7 7 7 6 6 6 6 5 5 4 3 3 3 3 3 3 3 2 1 3 4 4 4 4 4 4 4
6 7 8 9 10 11 11 11 10 10 9 9 9 9 8 8 7 7 7 7 7 8 8 7 6 6 6 6 6 5 4 3 3 3 2 3 2 3 3 2 1 3 4 4 3 3 4 4 4
7 7 8 9 10 10 10 10 10 10 9 10 9 9 9 8 7 7 7 7 7 7 7 7 6 7 6 6 5 5 4 3 3 3 2 2 2 2 1 0 1 3 3 3 3 3 3 3 3
7 8 8 9 9 9 9 9 9 9 10 9 9 9 9 8 7 7 7 7 7 7 7 7 6 7 6 6 4 4 3 3 3 3 1 2 1 1 1 1 1 2 3 3 3 3 3 2 2
7 8 8 8 8 9 9 9 9 9 9 9 9 8 8 8 7 7 7 7 7 7 7 7 7 7 7 6 4 4 3 3 3 2 2 2 1 2 2 0 1 2 3 2 2 2 2 2 2
7 8 8 8 8 8 8 9 8 8 8 8 8 8 8 8 8 7 7 8 7 7 7 6 6 6 6 6 4 3 3 3 3 3 3 2 1 2 2 1 0 1 2 2 2 2 2 2 2
6 7 7 8 8 8 8 8 8 8 8 9 8 8 8 8 7 7 7 8 8 7 7 6 6 6 6 6 5 3 3 3 3 3 3 3 3 2 2 1 -0 1 2 2 1 1 1 2 2
6 6 6 7 7 8 8 8 9 9 9 10 9 9 8 8 7 7 8 8 8 7 7 6 6 6 6 6 5 4 2 3 3 3 3 2 2 2 2 1 -0 -1 1 1 1 1 2 1 1
5 6 7 8 8 8 9 10 10 10 10 10 9 9 8 8 7 8 8 8 7 7 7 6 6 6 6 5 4 4 3 3 3 3 2 2 3 2 2 0 -1 -1 -1 1 1 1 1 1 1
5 6 7 7 8 8 9 10 9 9 9 9 9 9 8 8 7 6 7 7 7 7 6 6 6 6 6 4 3 3 3 3 4 4 3 2 2 2 2 1 0 -1 -1 -0 -1 -0 -0 0 -0
5 6 6 7 8 9 10 10 10 9 10 10 9 9 9 8 8 6 6 7 7 7 6 6 6 6 4 3 2 3 3 4 4 4 3 2 2 2 1 1 0 -1 -2 -1 -2 -2 -2 -1 -0
5 5 5 5 6 8 9 9 9 9 9 9 10 10 9 9 8 7 6 7 7 7 6 6 6 5 4 2 3 3 4 3 3 2 2 2 2 1 1 -0 -0 -1 -2 -1 -2 -1 -0 -1 -1
5 5 5 4 5 7 7 8 9 9 9 9 9 10 10 9 8 7 7 8 7 7 6 6 6 6 4 3 3 3 3 2 2 1 1 0 0 0 -0 -0 -0 -1 -2 -2 -1 -0 -0 -1 -1
5 5 4 3 2 4 7 9 9 9 10 10 10 10 9 9 9 7 7 8 7 7 7 6 6 6 4 3 3 3 3 1 1 1 0 1 1 0 -0 -1 -1 -2 -2 -2 -1 -1 -1 -1 -1
4 5 3 1 2 4 6 8 8 9 9 10 11 10 10 9 8 8 7 7 7 7 7 6 6 6 5 3 2 1 1 1 1 1 1 -0 0 -0 -0 -1 -2 -1 -1 -2 -1 -1 -2 -1 -1
4 4 3 3 3 3 5 7 8 9 10 11 11 10 10 9 8 8 7 7 7 7 7 7 6 6 5 3 2 2 1 1 1 1 0 0 -1 -1 -2 -2 -1 -2 -2 -1 -1 -1 -1 -1 -0
3 3 4 2 2 4 6 8 8 9 10 10 11 10 10 10 9 8 7 6 7 7 7 7 6 6 6 4 2 2 1 1 1 1 0 0 0 0 -1 -2 -2 -1 -1 -1 -1 -1 -1 -1 -0
3 3 4 3 3 3 5 8 9 10 10 10 10 10 9 9 9 8 7 6 7 7 7 7 6 6 6 5 3 2 1 1 1 1 0 1 1 1 0 -1 -1 -1 -1 -1 -1 -1 -1 -1 -0
4 3 4 4 4 4 5 5 8 9 10 9 10 9 9 9 8 8 7 6 6 7 7 7 7 6 6 6 5 4 3 3 2 2 0 1 0 0 0 -1 -1 -1 -1 -1 -1 -1 0 -0 0
3 3 4 4 3 4 6 8 8 9 10 9 9 9 9 9 8 8 7 6 7 7 7 7 7 6 6 6 6 5 5 3 2 2 1 -0 -0 0 -0 -1 -1 -1 -1 -1 -1 -0 -0 0 1
3 3 3 3 5 5 5 7 7 8 9 9 9 8 8 8 8 8 7 6 6 7 7 7 7 7 7 7 6 6 6 5 4 4 2 2 1 -0 -0 0 -1 -1 -0 -0 -0 -0 0 1 1
4 3 3 3 5 6 6 6 7 6 5 8 8 8 7 7 8 8 8 6 6 7 7 7 7 7 7 6 6 6 6 6 6 5 5 3 2 2 1 -0 -1 -0 0 -0 -0 0 1 1 1

GFSSGP_700_temp_093.txt.gz
Temp
9 9 9 9 9 9 10 13 12 12 12 12 12 12 11 11 10 10 9 8 8 8 8 8 8 9 9 8 7 7 7 7 7 7 6 5 5 5 5 5 6 7 7 7 7 7 7 6 6
9 9 9 9 8 9 12 12 12 12 12 11 12 11 10 10 9 9 9 9 9 8 8 8 8 8 8 8 7 6 7 7 6 7 6 5 5 5 5 5 5 6 7 6 6 6 6 6 6
9 9 9 8 8 10 11 12 12 12 11 11 11 10 10 9 9 9 9 9 8 8 8 8 8 8 8 8 7 6 6 6 6 6 6 5 5 5 5 5 5 6 6 6 6 6 6 6 6
8 8 8 8 9 12 11 12 12 12 11 11 10 10 10 9 9 9 8 8 8 7 7 7 7 7 7 7 7 7 6 6 6 6 5 5 4 4 4 4 4 5 6 6 6 6 5 5 5
8 8 8 8 9 12 12 12 12 12 12 11 10 10 9 9 9 8 8 8 8 7 7 7 7 7 7 7 7 7 6 5 6 5 5 4 3 4 4 4 4 5 5 5 5 5 5 5 5
8 7 7 8 9 10 11 12 12 12 12 11 10 10 9 9 9 9 8 8 8 7 7 7 7 7 7 7 7 7 6 6 6 5 5 4 4 2 3 3 4 4 5 5 5 5 5 5 4
9 7 7 8 9 10 11 12 12 12 11 11 10 9 9 9 9 8 8 8 7 7 7 7 7 7 7 6 6 6 6 6 5 5 4 4 4 3 3 2 2 3 3 4 5 5 4 4 5
8 6 7 8 8 9 12 11 11 11 10 10 9 9 9 9 9 8 8 8 7 7 7 7 7 7 7 6 6 6 6 6 5 4 4 4 4 2 3 2 2 3 2 3 4 4 4 4 4
6 5 6 8 8 10 10 11 11 10 10 10 9 9 9 9 8 8 8 7 7 7 7 7 7 7 7 6 6 6 6 6 5 4 4 3 3 2 2 3 3 2 3 3 4 4 4 3 3
6 5 8 9 8 9 10 10 10 10 10 9 9 9 9 9 8 8 8 7 7 7 7 7 7 7 6 7 7 6 6 5 4 3 3 2 2 3 3 3 3 2 2 3 3 4 4 4 4
6 6 8 8 8 8 9 9 10 10 9 10 9 9 9 9 8 8 8 8 8 8 8 7 7 6 6 7 7 6 5 5 4 3 3 2 2 2 2 2 2 2 2 3 3 3 4 4 3
5 6 6 7 8 8 8 9 9 9 9 9 9 9 9 9 8 8 8 8 8 8 8 7 7 6 6 6 6 6 5 4 3 3 3 2 2 2 3 3 2 2 2 2 3 3 3 3 3
5 6 6 7 8 8 8 8 9 9 9 9 9 9 9 9 8 8 8 7 7 8 7 7 7 6 6 6 6 6 5 4 4 3 3 2 2 2 2 2 2 2 2 2 3 3 3 3 3
6 6 6 7 8 8 8 8 8 8 8 8 9 9 9 9 8 8 8 7 7 8 7 7 6 6 6 6 6 6 3 4 3 3 2 2 2 2 2 1 1 2 2 2 2 3 3 3 2
5 6 6 7 7 7 8 8 8 9 8 8 9 9 9 8 8 8 8 7 7 8 8 7 6 6 6 6 5 6 4 3 3 3 2 2 2 2 2 2 1 1 2 3 2 2 2 2 2
5 5 6 6 7 7 7 7 8 9 9 9 9 9 9 9 8 8 8 7 8 8 7 7 6 6 6 5 5 5 5 3 3 3 3 3 2 2 2 2 1 1 2 2 2 2 2 2 1
4 4 5 5 6 7 7 8 8 8 9 9 9 10 9 9 9 8 8 8 8 8 7 7 6 6 7 6 5 4 4 3 2 3 3 3 2 2 2 2 1 -0 1 2 2 2 2 2 1
3 4 5 5 6 7 7 8 8 9 9 9 9 9 9 9 8 8 8 8 8 7 7 6 6 6 6 6 4 3 2 2 2 2 2 2 3 3 2 1 1 -0 -0 1 1 1 1 1 1
4 4 4 5 6 6 6 7 7 8 9 10 9 9 9 9 9 8 8 8 8 7 7 6 6 6 6 5 4 2 1 1 3 3 3 3 3 2 2 2 1 -1 0 1 1 0 1 0 -0
3 3 4 5 5 6 6 6 7 7 8 9 9 9 9 9 9 8 8 8 8 7 7 6 6 6 6 5 4 3 2 3 3 3 3 2 3 2 2 2 1 1 -2 -1 -1 -1 -1 -1 -2
3 3 4 5 5 5 4 5 6 7 8 9 9 9 9 9 9 9 8 8 8 7 7 7 6 6 6 5 4 3 3 3 3 4 3 2 3 3 2 2 1 -0 -1 -2 -1 -1 -2 -1 -1
3 4 4 4 5 3 3 1 4 6 7 8 9 9 10 9 9 9 9 8 8 7 7 7 6 6 7 6 4 4 3 3 3 3 1 2 2 2 2 1 0 0 -2 -2 -1 -2 -1 -2 -1
4 5 4 5 4 4 2 1 2 5 7 8 9 10 10 10 9 9 9 8 8 7 7 7 7 6 7 6 4 3 3 2 1 1 1 1 1 1 1 0 -0 -0 -0 -1 -2 -1 -1 -2 -1
4 4 4 4 4 1 1 1 2 5 7 7 9 10 10 10 9 9 9 8 8 7 7 7 7 7 7 6 4 3 2 2 1 1 1 0 0 0 -0 -0 -0 -0 -1 -1 -2 -2 -1 -2 -1
4 4 2 1 1 1 3 2 2 6 8 7 9 10 10 10 10 9 9 8 8 8 7 7 7 7 7 6 4 2 2 1 1 1 0 1 1 1 -0 -0 -1 -1 -1 -2 -1 -2 -1 -1 -1
3 3 3 1 1 1 3 3 4 5 6 7 9 10 10 10 9 9 8 8 8 7 7 7 7 7 6 6 5 3 2 1 1 1 1 2 1 1 1 0 -1 -2 -2 -2 -2 -2 -1 -1 -1
3 3 3 3 3 3 2 4 4 6 7 9 9 10 10 9 9 9 8 8 8 7 7 7 7 7 7 6 6 4 3 2 1 1 1 0 0 1 1 -0 -0 -0 -1 -1 -1 -1 -1 -1 -1
3 3 3 2 1 1 3 5 3 5 5 6 9 9 9 9 9 8 8 8 8 7 7 7 7 7 7 6 6 6 4 3 2 1 1 1 0 1 1 0 0 -0 -1 -1 -1 -1 -1 -1 -0
3 2 2 2 2 1 2 4 5 3 5 6 7 9 9 9 8 8 8 8 8 7 7 6 7 7 7 7 6 6 6 5 3 2 2 2 1 0 1 0 -0 0 -1 -1 -1 -1 -1 -0 -0
3 3 3 2 2 3 4 4 3 4 3 4 6 6 8 8 8 8 7 8 8 8 7 7 7 7 7 6 6 6 6 6 6 5 3 2 2 0 0 0 -1 -1 -0 -1 -1 -1 -1 -0 -1

GFSSGP_700_temp_096.txt.gz
Temp
10 9 9 10 10 10 10 12 11 12 11 12 12 12 12 11 11 11 10 9 9 9 9 8 8 8 8 8 7 7 7 7 7 7 6 5 5 5 5 6 6 6 7 7 7 7 6 6 6
9 9 9 9 10 9 12 11 12 12 12 12 12 11 11 11 11 10 10 10 9 9 9 8 8 8 8 8 7 6 6 7 7 7 6 6 5 5 5 5 5 6 6 7 7 7 7 6 6
8 8 8 9 9 10 12 11 11 11 11 11 12 12 11 11 10 10 10 9 9 9 8 7 7 7 7 7 7 7 6 6 6 6 6 6 6 6 5 5 5 5 6 6 6 6 6 6 6
8 8 8 8 10 12 12 11 11 10 11 11 12 11 10 10 10 9 9 9 8 8 8 7 7 7 7 7 7 7 7 6 6 5 5 6 6 5 6 5 4 4 6 6 6 6 6 6 6
8 8 8 8 11 12 11 10 10 10 11 11 11 11 10 9 9 9 9 8 8 8 8 7 7 7 7 7 7 7 6 6 6 6 6 6 5 5 4 4 4 3 5 6 6 6 6 6 6
7 7 7 8 10 11 11 11 10 10 11 11 11 10 10 10 9 9 8 8 8 8 7 7 7 7 7 7 7 6 6 6 6 6 6 5 5 4 5 3 3 2 3 5 5 5 5 5 5
7 6 8 9 10 11 12 10 11 10 11 11 10 10 10 9 9 9 8 8 8 8 7 7 7 7 7 7 7 6 6 6 6 6 5 5 5 5 4 4 4 2 3 4 5 5 5 5 5
7 6 7 8 9 11 11 10 10 11 11 11 10 10 10 9 9 8 8 8 8 8 7 7 7 7 7 7 6 6 6 6 6 6 6 5 5 5 4 4 3 1 3 3 4 4 4 4 5
7 5 6 9 9 12 11 9 9 9 10 10 10 9 9 9 9 9 9 8 8 7 7 7 7 7 7 7 6 6 6 6 6 6 5 5 4 4 4 3 1 0 2 3 4 4 4 4 5
6 6 8 9 9 10 10 9 8 8 9 9 10 10 9 9 9 9 8 8 8 7 8 7 7 7 7 7 6 6 6 6 6 5 4 3 3 3 3 3 2 2 2 3 4 3 3 3 4
7 6 8 9 8 8 9 9 8 8 8 9 9 9 9 9 9 9 8 8 8 8 8 8 7 7 7 7 6 6 6 6 5 4 3 3 2 2 2 1 1 2 1 2 3 3 3 3 4
6 7 7 8 7 7 8 8 8 8 8 9 9 9 9 9 9 9 8 8 8 8 8 8 7 7 7 6 6 6 6 6 4 3 2 2 2 2 2 2 3 2 2 3 3 3 2 2 3
6 7 7 7 6 7 7 7 8 8 9 9 9 9 9 9 8 8 8 8 8 8 8 8 7 7 6 6 6 6 6 6 2 2 3 2 2 2 2 2 3 2 2 3 2 2 2 2 4
6 6 6 6 6 6 6 7 7 8 8 9 9 9 9 9 8 8 8 8 8 8 8 7 7 7 6 6 6 6 6 6 4 3 2 2 2 2 2 3 2 2 1 3 2 2 2 3 4
5 5 5 5 5 6 6 6 7 8 8 8 9 9 9 8 8 8 8 8 8 8 7 7 7 6 6 6 6 6 6 6 4 3 2 2 1 2 2 3 2 2 2 2 2 2 2 2 3
4 4 4 5 6 6 6 6 8 8 8 8 8 8 9 9 9 8 8 8 8 8 7 7 7 6 6 6 6 5 6 5 4 3 2 2 1 1 2 1 1 1 2 2 2 2 2 2 3
4 4 5 5 6 6 7 7 7 8 8 7 8 9 9 9 9 9 8 8 8 8 8 7 7 6 6 6 5 5 5 5 3 2 2 2 3 1 2 1 2 1 0 2 2 2 2 1 2
3 4 4 4 6 6 6 6 7 7 7 7 8 9 9 9 10 9 9 8 8 8 8 7 7 6 6 6 5 5 4 3 3 2 2 3 2 2 2 1 2 1 1 2 1 2 1 1 2
3 3 4 4 4 5 5 6 6 6 7 8 8 9 9 9 9 9 9 8 8 8 8 7 7 7 6 6 6 5 3 0 -0 2 2 3 3 2 2 1 2 1 1 2 2 2 1 1 0
3 2 3 3 4 4 4 5 6 6 7 7 8 8 8 9 9 9 9 9 8 8 8 7 7 7 7 6 5 4 4 1 -0 1 1 2 3 2 2 1 2 1 1 0 1 1 1 1 0
3 3 3 3 4 4 4 5 5 6 7 7 8 8 8 9 9 9 9 9 8 8 8 7 7 7 7 6 5 4 4 3 3 2 2 2 2 2 2 2 2 1 1 -0 0 -0 0 0 0
2 4 4 3 3 3 4 3 4 5 6 7 7 8 8 9 9 9 9 9 9 9 8 7 7 7 7 6 5 5 4 3 3 3 3 3 3 2 2 2 2 1 1 -0 -3 -1 -0 -1 0
2 3 3 4 3 3 2 3 4 4 4 6 8 8 8 8 9 9 9 9 9 8 8 7 7 7 7 6 6 5 3 3 2 3 3 3 3 2 2 2 2 2 1 -1 -3 -1 -2 -2 -2
2 3 3 4 3 1 2 2 4 3 5 5 7 8 8 8 8 9 9 9 9 8 7 7 7 7 7 6 6 4 3 2 3 3 3 3 2 2 2 2 2 1 1 -1 -3 -3 -2 -2 -2
2 2 2 1 0 0 3 2 3 4 4 4 5 7 8 9 8 9 10 9 9 8 8 7 7 7 7 6 6 4 2 2 2 1 1 1 0 1 1 1 0 -0 -1 -1 -2 -3 -3 -2 -2
3 2 2 1 0 1 3 2 3 4 4 4 5 6 8 9 8 9 9 9 9 9 8 7 7 7 7 6 6 4 3 1 1 1 1 0 0 0 -0 0 -0 -0 -1 -1 -1 -2 -3 -2 -1
2 2 3 3 2 1 3 3 4 4 3 3 5 6 8 10 10 10 9 9 9 8 8 7 7 7 7 6 6 5 4 3 1 1 0 -0 0 0 -0 -0 0 -0 -0 -1 -1 -2 -2 -1 -2
1 3 2 3 1 0 2 3 3 3 1 2 3 6 8 9 10 9 9 9 8 8 7 6 7 7 7 7 6 6 4 3 2 1 1 1 1 0 1 0 -0 -1 -1 -1 -1 -2 -2 -1 -1
2 2 2 2 2 0 -0 3 2 2 -0 0 2 5 6 7 8 9 9 8 8 8 7 6 7 7 7 7 6 6 5 4 3 2 1 1 1 1 -0 -0 -1 -1 -1 -1 -1 -2 -2 -1 -1
2 2 2 1 1 1 2 2 2 0 -1 -0 1 4 6 6 6 7 8 8 8 8 7 7 7 7 7 7 6 6 6 6 5 3 3 1 1 1 -0 0 -0 -1 -1 -2 -2 -2 -2 -1 -1

GFSSGP_700_temp_099.txt.gz
Temp
9 9 9 9 9 9 9 11 11 11 11 12 12 12 12 12 12 11 11 10 9 9 9 9 8 8 8 7 7 6 6 6 7 7 7 7 7 6 6 6 6 6 7 7 6 6 6 6 6
9 9 9 9 9 9 11 11 11 11 11 11 12 11 12 12 12 11 10 10 9 9 9 8 8 8 7 7 7 6 6 6 6 6 6 7 6 6 6 5 6 6 6 6 6 6 6 6 6
9 9 9 9 9 10 11 10 10 10 11 11 11 11 11 11 11 10 10 9 9 9 8 8 8 7 7 7 7 7 6 5 6 6 6 6 7 5 6 6 6 6 6 6 6 6 6 6 6
8 8 8 9 10 11 10 11 10 10 10 10 11 11 11 11 11 10 9 9 9 8 8 8 7 7 6 6 7 7 6 6 6 5 5 6 6 6 5 6 5 5 5 6 6 5 6 6 6
8 8 8 9 11 11 11 10 10 10 10 10 10 11 11 11 10 10 9 9 8 8 8 8 7 7 6 6 6 6 6 6 6 6 5 5 5 5 5 5 5 4 5 5 4 5 4 6 6
7 7 7 9 11 11 11 10 10 10 10 10 10 10 10 10 10 9 9 9 8 8 8 7 7 7 7 7 7 7 7 6 6 6 5 5 5 5 5 4 4 3 4 4 4 4 4 6 6
8 7 7 9 10 11 11 10 10 11 11 10 10 10 10 10 10 9 9 9 8 8 8 7 7 7 7 7 7 7 7 6 6 5 5 5 5 5 4 4 4 3 3 2 2 4 4 5 5
8 6 6 8 9 11 10 10 10 9 9 10 10 9 10 10 9 9 9 9 8 8 8 7 7 7 7 7 7 6 6 6 6 5 5 5 5 5 4 3 4 3 3 2 2 3 5 5 5
7 5 6 9 9 10 9 9 9 8 9 9 10 10 9 9 9 9 9 9 8 8 8 7 7 7 7 7 7 6 6 6 6 6 5 5 5 4 3 3 3 3 3 1 1 3 4 5 4
7 7 7 9 9 10 9 9 9 9 8 9 9 9 9 9 9 9 9 9 8 8 8 7 8 7 7 7 7 6 6 6 6 6 6 5 4 3 3 3 3 3 3 3 2 3 4 5 4
7 8 8 9 9 8 9 8 8 8 8 8 8 8 9 9 9 9 9 9 8 8 8 7 8 7 7 7 6 6 6 6 6 6 5 4 3 3 2 3 3 2 2 1 1 2 4 4 4
6 7 7 9 8 7 9 9 8 7 8 8 8 8 8 8 9 9 9 8 8 8 7 8 8 7 7 7 6 6 6 6 6 6 5 3 3 2 2 3 2 3 1 0 2 2 4 4 3
6 6 7 7 7 7 7 8 7 8 8 8 8 8 8 8 8 8 8 8 8 8 8 8 8 7 7 7 6 6 6 6 6 6 4 2 2 2 2 1 2 1 1 1 1 2 4 3 3
6 5 6 6 6 6 6 7 7 8 8 8 8 8 8 8 8 8 8 8 8 8 8 8 8 7 7 7 7 6 6 6 5 6 3 2 2 1 2 1 2 1 1 1 1 2 3 3 3
5 5 5 5 5 6 6 7 8 8 9 8 8 8 8 8 8 8 8 8 8 8 8 8 7 7 7 7 6 6 6 6 5 6 3 2 2 2 1 1 2 2 1 1 1 1 2 2 3
4 4 4 5 6 6 6 7 8 8 7 8 8 8 8 8 8 8 8 8 8 8 8 8 7 7 7 6 6 6 6 6 5 5 3 2 2 2 1 2 2 2 1 0 1 1 2 2 3
3 4 4 4 5 6 6 6 7 7 7 7 7 7 8 8 8 9 9 9 8 8 8 8 8 7 7 6 6 6 6 6 5 5 4 2 2 2 1 2 2 2 1 -1 1 1 2 3 3
2 3 4 4 5 5 5 5 6 6 6 6 7 7 8 8 9 9 9 9 9 9 8 8 7 7 7 6 6 6 6 6 5 4 2 2 2 2 1 2 1 1 0 -1 1 1 2 2 2
3 3 3 3 3 4 5 5 6 6 6 6 7 7 8 8 9 9 9 9 9 9 8 8 7 7 7 7 6 6 6 5 4 3 2 2 2 2 2 1 1 0 1 -0 1 1 1 1 1
2 2 2 2 3 4 4 5 5 5 6 5 6 7 7 8 8 9 9 9 9 9 8 8 7 7 7 7 6 6 6 5 4 1 2 2 2 3 2 2 1 1 -0 -1 -1 1 1 1 1
2 2 2 3 4 3 3 4 4 5 5 5 6 7 7 8 8 8 9 9 9 9 9 8 7 7 7 7 6 6 6 5 4 2 2 2 2 2 2 2 1 1 1 1 0 1 1 1 1
2 3 3 3 2 2 3 2 3 3 4 5 6 7 7 8 8 7 8 8 8 9 8 8 7 7 7 7 7 6 6 5 4 3 3 3 2 2 1 2 2 1 1 1 -1 -0 -0 0 1
1 2 2 2 2 2 2 1 3 3 4 5 6 5 6 8 8 7 8 8 8 8 8 8 7 7 7 6 7 6 6 5 4 3 3 3 3 2 2 2 2 2 1 1 1 -3 -1 -1 -0
0 1 2 2 2 -1 1 2 3 3 4 4 4 4 5 6 8 7 8 8 8 8 8 8 8 7 7 6 6 6 6 4 4 4 3 3 3 3 2 2 2 1 2 1 0 -1 -3 -3 -3
1 1 0 -0 -1 -0 3 2 3 3 4 4 4 4 4 6 7 7 8 8 8 9 8 8 7 7 7 7 6 6 5 4 3 2 2 3 3 3 2 1 2 2 1 0 -1 1 -3 -2 -3
1 1 1 0 -0 1 2 1 3 3 3 3 4 4 4 5 6 7 8 8 9 9 8 8 7 7 7 7 6 6 5 4 3 2 2 2 2 1 1 2 2 2 1 1 -1 -1 -2 -3 -2
1 1 2 2 2 0 2 3 3 3 3 3 3 4 4 5 6 7 8 9 9 9 8 8 7 7 7 7 6 6 6 5 3 2 1 0 1 1 2 2 1 1 1 -1 -1 -1 -1 -2 -2
1 2 1 1 0 0 1 2 3 3 2 3 2 3 4 5 8 8 9 9 10 9 8 7 6 6 7 7 6 6 6 5 3 2 0 -0 0 0 0 0 0 -0 -0 -1 -1 -1 -1 -2 -2
1 0 1 2 2 1 0 1 2 2 1 1 3 0 1 3 4 7 8 9 9 8 8 7 6 6 7 7 6 6 6 5 4 3 1 1 0 0 -0 -0 -0 -0 -0 -0 -0 -1 -1 -2 -2
1 1 1 2 1 1 1 1 2 1 2 2 -1 -1 1 2 3 3 8 9 8 8 8 7 6 6 7 7 6 6 6 6 5 4 3 3 1 0 -1 -1 -1 -1 -0 -1 -1 -1 -1 -1 -2

GFSSGP_700_temp_102.txt.gz
Temp
10 9 9 9 9 9 9 11 10 11 11 11 11 11 12 12 12 11 11 10 9 9 9 8 8 8 8 7 7 6 6 6 6 6 6 6 6 6 7 7 7 7 7 6 7 6 6 6 6
9 9 9 9 9 8 10 10 11 10 11 11 11 11 11 12 11 11 11 10 9 9 9 8 8 8 7 7 7 7 6 5 5 6 6 6 6 6 7 6 6 6 7 6 6 6 6 6 5
9 9 8 8 9 9 10 10 10 11 11 10 10 10 11 11 11 11 11 10 9 9 8 8 8 7 7 6 7 7 6 5 5 5 5 6 6 6 5 6 6 5 6 6 6 6 6 6 5
8 8 8 8 10 10 10 10 10 10 10 10 10 10 11 11 11 11 10 9 9 8 8 8 7 7 7 6 6 6 6 6 5 5 5 5 5 5 5 5 5 4 5 5 5 5 6 6 5
8 8 8 9 10 11 10 10 10 10 10 10 10 10 10 10 11 10 10 9 9 8 8 8 7 7 6 6 6 6 6 6 6 6 5 4 4 4 5 5 4 5 4 5 5 5 5 6 5
7 8 7 8 11 11 10 10 9 9 10 11 10 10 10 10 10 10 10 9 8 8 8 8 7 7 7 6 6 6 6 6 6 6 6 5 4 4 4 4 4 4 4 4 3 3 5 5 5
7 7 7 9 11 11 10 9 9 9 10 11 10 10 10 10 10 9 9 9 9 8 8 8 7 7 7 6 6 7 7 6 6 6 5 5 4 4 4 3 3 4 4 4 4 4 3 5 4
7 6 6 8 10 11 10 9 8 9 9 9 9 9 10 9 9 9 9 9 9 8 8 8 7 7 7 7 7 7 7 6 6 5 5 5 4 4 4 4 4 3 3 4 4 3 4 4 5
7 6 6 8 9 10 10 10 9 8 9 9 8 9 9 9 9 9 9 9 9 8 8 8 7 7 7 7 7 7 7 6 6 5 5 5 5 5 4 4 3 3 3 3 3 2 2 4 4
6 6 7 9 9 10 9 9 9 8 8 9 8 8 8 8 8 9 9 9 9 8 8 8 7 7 7 7 7 7 6 6 6 6 5 5 5 5 5 4 3 3 3 3 3 2 1 3 4
6 7 7 8 9 8 9 8 8 9 9 9 8 8 8 8 8 8 9 8 8 8 8 8 7 7 7 7 7 7 6 6 6 5 5 5 5 4 4 3 3 3 3 2 2 2 2 3 3
6 7 6 8 8 7 7 8 8 8 8 9 8 8 8 8 8 8 8 8 8 8 8 8 7 7 7 7 7 7 7 6 6 5 5 5 5 4 3 3 2 2 2 2 2 2 2 3 3
6 6 6 7 7 7 7 8 8 8 8 9 8 8 8 8 8 8 8 8 8 8 8 8 8 7 7 7 7 7 6 6 6 6 5 5 4 3 3 2 2 2 2 2 2 2 1 2 3
5 5 5 5 6 6 6 8 7 8 8 8 8 8 8 8 8 8 8 8 8 8 8 8 8 7 7 7 7 7 6 6 6 6 5 5 4 3 3 2 2 2 2 2 2 2 -1 2 3
4 4 4 5 5 6 6 7 8 8 8 8 8 8 8 7 7 8 8 8 8 8 8 8 8 8 7 7 7 7 6 6 6 6 5 5 4 3 3 2 1 1 2 1 1 -0 0 2 2
4 4 4 4 5 5 5 8 7 7 8 7 8 7 7 7 7 7 8 8 8 8 8 8 8 8 7 7 7 6 6 6 6 6 5 5 4 3 2 2 1 1 1 1 1 -0 -0 2 2
2 3 3 3 4 5 5 7 6 7 7 7 7 7 7 7 7 8 7 8 8 8 8 8 8 8 8 7 7 7 6 6 6 6 5 5 4 2 2 2 1 2 2 1 0 -0 -0 0 1
2 2 2 3 4 4 4 5 5 6 6 6 6 6 6 7 8 8 8 8 9 9 9 9 8 8 8 7 7 7 6 6 6 5 4 4 4 2 2 2 1 2 2 2 0 0 -1 -1 1
2 2 2 2 3 3 4 5 5 5 6 6 6 6 6 7 8 8 8 8 9 9 9 9 8 8 8 7 7 6 6 6 6 5 5 4 3 2 2 2 2 1 2 2 0 -0 -0 -1 0
1 1 1 2 3 3 3 5 4 5 6 6 6 6 6 7 7 8 8 8 9 9 9 9 9 8 8 7 7 6 6 6 6 6 5 3 2 2 2 2 2 1 1 1 0 -0 -1 0 2
1 1 1 2 3 3 2 4 4 5 6 6 6 6 6 6 6 7 8 8 9 9 9 9 9 8 8 7 7 6 6 6 6 5 4 4 1 2 2 2 2 2 1 0 0 -0 -2 1 1
1 1 1 1 1 1 2 -0 2 4 5 6 6 5 5 5 6 7 8 8 8 9 9 9 8 8 8 7 7 6 6 6 6 5 4 3 2 2 2 1 1 2 0 0 0 -1 -0 1 1
0 1 1 1 1 1 1 1 2 3 5 6 5 5 5 4 5 7 8 8 8 8 8 8 8 8 8 7 6 6 6 6 6 5 4 3 3 2 2 1 1 1 1 1 1 0 -0 -0 1
0 0 1 1 1 -2 1 2 2 4 4 4 4 4 4 4 5 5 7 8 8 8 8 8 8 8 7 7 6 6 6 6 6 5 3 3 3 2 2 2 1 1 1 1 1 -1 -1 -0 -0
-0 0 -1 -1 -2 -1 2 1 3 4 3 3 3 3 3 4 4 4 5 6 8 7 8 9 8 7 7 6 6 6 6 6 6 4 3 3 3 3 3 3 2 2 1 1 0 -0 -2 -3 -1
0 0 0 -0 -1 -0 2 1 3 3 3 3 3 2 2 3 3 4 5 5 8 7 8 8 8 8 6 6 6 6 6 6 6 4 3 3 3 3 3 2 2 2 1 1 1 -0 0 -1 -4
0 0 1 1 1 -0 2 2 3 3 3 3 3 3 3 3 3 4 5 6 7 7 8 8 8 8 6 6 6 6 6 6 5 4 3 3 3 3 3 2 2 1 0 1 1 1 -0 -1 -3
0 1 0 -0 -1 -0 -0 1 2 3 3 3 2 2 2 2 3 4 5 6 7 8 8 7 8 7 6 5 6 6 6 6 5 4 3 2 3 2 2 1 1 1 1 0 1 0 0 -1 -2
0 -1 0 0 1 -0 -0 1 2 2 2 2 1 2 1 2 2 3 5 7 7 7 7 8 8 7 6 6 6 6 6 6 5 4 3 3 3 3 2 1 1 1 1 1 0 1 -0 -1 -1
-0 -0 -0 -0 -0 0 1 1 2 2 1 1 1 1 0 0 -1 2 4 7 6 7 7 8 7 6 5 5 6 6 6 6 5 5 4 3 3 3 3 2 2 1 0 0 -1 -1 -1 -1 -1

GFSSGP_700_temp_105.txt.gz
Temp
10 10 9 9 9 9 9 11 11 11 11 11 11 11 11 11 11 11 11 11 9 9 9 9 9 8 8 7 7 7 6 6 6 6 6 6 6 6 6 6 6 7 6 6 6 6 6 6 6
9 9 9 9 9 8 10 11 11 11 11 11 11 11 11 11 11 11 11 10 9 9 9 9 8 8 7 7 7 7 6 6 5 6 6 6 6 6 6 6 6 6 6 6 6 6 6 6 6
9 9 9 8 9 9 10 10 10 11 11 11 11 10 11 11 11 11 11 10 9 9 9 8 8 8 7 7 6 6 6 6 5 5 5 5 5 5 5 5 5 5 5 6 6 6 6 6 5
9 8 8 8 10 10 10 10 10 9 10 10 10 10 11 11 11 11 10 10 9 9 8 8 8 7 7 6 6 6 6 6 5 5 5 5 5 5 5 5 5 5 4 4 5 6 6 6 5
8 8 7 9 11 11 10 10 10 10 9 9 9 10 10 10 10 10 10 9 9 8 8 8 8 7 7 6 6 6 6 6 6 6 5 5 5 5 4 4 4 4 4 4 5 5 5 6 5
7 7 7 8 11 11 11 10 9 10 10 10 9 10 10 10 10 10 10 9 9 8 8 8 8 7 7 6 6 6 6 6 6 6 6 6 5 4 4 5 4 3 4 4 4 4 4 5 5
7 7 7 8 10 10 10 10 9 9 9 10 10 10 10 10 9 9 9 9 9 8 8 8 8 7 7 7 7 7 7 7 6 6 5 5 5 4 3 4 3 3 4 4 4 4 4 5 5
6 6 6 7 9 10 10 9 9 9 9 10 10 10 10 9 9 9 9 9 9 8 8 8 8 7 7 7 7 7 7 7 6 6 6 5 5 4 4 4 3 3 4 3 3 4 4 3 4
6 5 5 7 9 9 9 9 9 9 9 9 9 9 9 9 9 9 9 9 9 9 8 8 8 7 7 7 7 7 7 7 6 6 6 5 5 5 5 4 4 4 3 3 3 3 3 3 2
6 6 6 8 8 9 9 8 8 8 8 8 8 8 8 8 8 8 8 9 9 8 8 8 8 7 7 7 7 7 7 7 6 6 6 5 5 5 5 5 4 4 4 3 3 3 3 2 2
6 7 7 8 8 8 7 7 7 7 8 8 8 7 8 8 8 8 8 8 8 8 8 8 7 7 7 7 7 7 7 7 6 6 6 5 5 5 5 5 4 4 4 3 2 2 2 2 1
6 6 6 7 7 7 7 7 7 7 7 8 8 8 8 8 8 8 8 8 8 8 8 8 7 7 7 7 7 7 7 7 6 6 6 6 5 5 5 5 3 3 3 2 2 1 2 1 0
6 6 6 6 6 6 6 7 8 7 7 8 8 8 8 8 8 8 8 8 8 8 8 8 8 7 7 7 7 7 7 7 6 6 5 5 5 5 4 4 3 2 2 2 2 1 2 2 1
5 5 5 4 5 6 6 7 6 7 8 8 8 8 8 8 8 8 8 8 8 8 8 8 8 8 7 7 7 7 6 6 6 6 5 5 5 5 5 4 3 2 2 1 1 2 1 2 1
4 4 4 4 4 5 6 7 8 8 8 8 7 7 7 7 8 8 8 8 8 8 7 8 7 7 7 7 7 7 7 6 6 6 5 5 5 5 5 3 3 2 1 2 2 2 2 1 1
3 3 3 4 4 5 5 7 6 7 7 7 7 7 7 7 7 7 7 8 8 8 8 7 8 8 7 7 7 7 7 6 6 6 5 5 5 5 4 4 2 2 2 1 1 2 2 1 0
2 2 2 3 3 4 5 6 5 6 6 6 6 6 6 6 6 7 7 7 7 8 8 8 8 8 8 7 7 7 7 6 6 6 5 5 5 4 4 3 3 3 2 1 2 2 1 0 0
1 1 1 2 3 4 4 5 5 5 5 5 5 5 6 6 6 7 7 7 7 7 8 8 8 8 8 8 7 7 7 6 6 6 6 5 4 3 3 3 2 2 2 1 1 0 0 -0 -0
1 1 1 2 2 3 3 4 4 4 5 5 5 6 6 6 7 7 6 7 7 7 8 9 9 9 8 8 8 7 7 6 6 6 5 5 4 3 2 2 2 2 2 1 2 1 1 -1 -1
1 1 1 1 2 2 3 3 3 4 5 6 6 6 6 6 7 6 7 7 7 7 8 9 9 9 9 8 8 7 7 6 6 6 5 5 4 3 2 2 1 1 2 1 1 1 1 -1 -1
0 0 0 0 2 2 2 3 4 4 5 6 6 6 6 5 5 6 7 7 8 8 8 9 9 9 9 8 8 7 6 6 6 6 5 5 5 4 2 1 2 2 2 2 2 1 0 0 -1
0 1 1 1 -0 1 1 4 3 3 5 6 5 4 4 5 4 5 5 7 8 8 8 8 9 9 9 8 8 7 6 6 6 6 5 5 5 4 2 2 2 2 2 2 1 1 -0 -0 -1
0 1 0 1 0 0 0 1 3 3 5 5 4 4 4 5 4 5 5 6 7 8 8 8 9 9 8 8 8 7 6 6 6 6 5 5 4 3 2 1 1 2 2 1 -0 -0 -0 -0 -0
0 -0 -0 -0 -0 0 0 2 2 3 3 3 3 4 4 4 4 4 5 5 7 7 8 8 9 9 8 8 8 7 6 6 6 6 5 4 3 3 2 2 1 1 1 1 1 1 0 -0 -0
-1 -0 0 -0 -0 1 2 1 3 3 3 3 4 4 3 3 3 3 4 5 6 6 7 8 8 8 8 8 7 7 6 6 6 6 5 4 3 2 2 2 1 1 1 1 1 1 1 -0 -1
0 -0 1 1 1 2 0 1 2 3 3 3 3 3 3 3 3 3 3 4 5 5 6 7 8 8 8 8 7 6 6 6 6 6 5 4 3 3 2 2 2 1 2 2 2 1 1 -1 -2
-1 -1 1 1 -0 0 1 1 2 2 2 2 2 2 3 3 3 3 3 3 4 5 6 7 8 8 8 7 6 6 5 6 6 6 5 4 3 3 3 3 3 2 2 2 1 1 1 1 0
-1 -0 -0 -0 0 0 2 1 2 2 2 2 2 2 2 2 2 2 3 4 3 4 5 7 7 8 7 7 6 6 5 6 6 6 5 3 2 2 3 3 3 2 1 1 1 0 1 1 -0
-1 -1 -0 0 0 2 1 2 2 2 1 1 2 1 1 2 2 2 1 1 2 5 6 7 7 7 7 6 6 5 5 5 6 5 5 3 2 3 3 3 2 0 1 1 1 1 1 1 0
-1 -1 -0 -0 -0 -0 1 1 1 1 1 1 1 1 1 1 1 1 -0 2 3 5 6 7 7 7 7 6 5 5 5 5 5 5 5 3 2 2 2 2 2 1 1 1 1 1 0 0 0

GFSSGP_700_temp_108.txt.gz
Temp
10 9 9 9 8 9 12 12 11 11 11 11 11 11 11 11 11 12 11 11 11 10 9 9 9 9 9 9 8 8 7 6 6 6 6 6 6 6 6 6 6 6 6 6 6 6 6 6 6
9 9 9 8 9 12 13 11 11 11 10 11 11 11 11 11 11 11 11 11 10 9 9 9 9 8 9 8 7 7 7 6 6 6 6 6 6 6 6 6 6 6 6 6 6 6 6 6 6
9 9 7 8 10 12 13 11 11 11 11 11 10 10 10 10 11 11 11 10 10 9 9 8 8 8 8 7 7 7 6 6 6 5 5 6 6 6 5 5 6 6 6 5 5 5 6 6 6
9 8 8 8 11 11 10 10 10 11 11 10 10 10 10 11 10 10 10 10 10 9 8 8 8 8 7 7 6 6 6 6 6 5 5 5 5 5 5 5 5 5 5 5 5 5 4 5 6
8 7 8 8 10 11 9 9 10 10 9 9 10 10 10 10 10 10 10 10 9 9 8 8 8 8 7 7 6 6 6 6 6 6 6 5 5 5 5 5 5 4 4 5 4 5 4 5 5
6 7 8 10 11 10 10 9 10 10 9 9 10 10 10 11 10 10 10 10 9 9 9 8 8 8 7 7 7 6 6 7 7 6 6 6 5 5 4 4 4 4 4 4 4 4 4 4 4
7 6 8 10 11 10 8 9 10 10 9 9 10 10 10 10 10 10 9 9 9 9 9 8 8 8 7 7 7 7 7 7 7 6 6 6 5 5 5 4 4 4 3 4 3 3 4 4 4
6 6 7 9 9 10 9 9 9 9 9 9 10 9 9 10 10 9 9 9 9 9 9 8 8 8 7 7 7 7 7 7 7 6 6 6 5 5 5 5 4 4 4 4 4 4 4 4 4
6 5 7 8 8 9 8 8 9 9 9 8 9 9 10 10 10 9 9 9 9 9 9 8 8 8 7 7 7 7 7 7 7 6 6 6 5 5 5 5 4 4 4 4 4 4 3 3 3
6 6 7 8 7 8 8 8 7 8 8 8 8 8 9 9 9 9 9 9 9 9 8 8 8 8 7 7 7 7 7 7 7 7 6 6 5 5 5 5 4 4 4 3 3 3 3 3 3
4 5 7 6 6 7 7 7 6 7 8 8 7 7 8 9 9 9 9 9 9 8 8 8 8 7 7 7 7 7 7 7 7 7 6 6 5 5 5 4 5 4 4 4 3 3 3 3 2
4 4 4 6 5 7 7 6 6 6 6 7 7 8 8 8 8 8 8 9 9 9 8 8 8 7 7 7 7 7 7 7 7 6 6 6 6 5 5 5 4 4 4 4 3 3 2 2 2
3 3 4 5 6 6 6 6 6 6 5 8 8 8 8 8 8 8 8 8 8 9 8 8 8 8 8 7 7 7 7 7 7 6 6 6 6 5 5 5 4 3 3 3 3 2 2 2 2
3 3 3 3 4 6 6 6 6 5 7 8 8 8 8 8 8 8 8 8 8 8 8 8 8 8 8 7 7 7 7 7 7 6 6 6 6 5 5 4 4 3 3 2 2 2 2 2 1
2 2 3 3 3 4 5 6 7 7 7 7 8 8 7 7 8 8 8 8 8 8 8 8 8 8 8 8 7 7 7 6 6 6 6 6 5 5 5 4 4 3 3 2 2 2 1 1 2
1 2 3 4 4 3 4 7 7 6 6 7 8 7 7 7 8 8 8 8 8 8 8 8 8 8 8 8 8 7 7 6 6 6 6 6 5 6 5 4 4 4 2 3 2 2 2 1 2
2 4 5 5 4 4 4 6 7 6 6 6 5 6 6 6 7 7 7 7 7 8 8 8 8 8 7 8 8 7 7 7 7 6 6 6 5 5 5 5 4 3 3 2 2 2 1 2 1
3 3 3 4 4 3 4 5 6 5 5 5 5 5 5 5 6 7 6 6 7 7 7 8 8 8 8 8 8 8 7 7 7 6 6 6 5 5 5 4 4 3 2 2 2 2 1 2 1
3 3 3 4 3 3 4 5 5 5 4 4 5 5 5 5 6 5 6 6 6 7 7 7 8 8 8 8 8 8 8 7 7 6 6 6 5 5 5 4 3 3 2 2 2 2 2 1 1
-0 1 2 2 2 2 3 4 5 5 4 4 5 5 6 6 5 6 6 6 6 6 7 7 8 8 8 8 8 8 8 7 7 6 6 6 5 5 5 4 3 2 2 2 2 1 1 0 0
-1 0 2 1 2 2 2 3 4 5 4 5 5 6 6 6 6 6 6 5 6 7 7 7 7 8 8 9 9 8 8 8 7 6 6 6 6 5 5 4 2 2 2 1 2 2 1 1 0
0 0 0 -0 -1 2 3 6 6 4 5 5 5 5 5 5 5 5 5 5 5 6 7 7 7 8 8 9 9 9 8 8 7 6 6 6 6 5 5 4 2 2 2 1 1 1 1 0 1
0 0 -0 -0 1 1 3 3 5 4 4 5 4 4 4 4 4 4 4 4 5 5 6 7 7 8 8 8 9 8 8 8 7 6 6 6 5 5 5 3 3 2 1 1 1 2 1 1 0
0 -0 -1 -0 1 2 3 4 6 5 5 5 3 4 4 4 4 4 4 4 5 5 6 6 7 7 8 8 9 9 8 8 7 6 6 6 5 5 4 3 2 2 1 1 1 1 1 0 -0
-1 -0 2 1 1 4 4 3 5 4 4 4 3 3 3 3 3 3 3 3 4 5 5 6 7 7 8 8 9 8 8 7 6 6 6 6 6 5 4 3 2 2 2 2 1 2 1 -0 -0
-1 1 3 2 4 5 2 3 4 4 3 3 3 3 3 3 3 3 3 3 4 4 5 6 6 7 8 8 8 8 8 7 6 6 6 6 6 4 4 3 2 1 1 1 1 1 1 0 1
-1 -0 1 2 2 3 4 3 2 2 3 2 2 3 2 2 2 3 3 3 3 4 6 6 6 7 7 8 8 8 7 6 6 5 6 6 5 4 4 4 3 2 2 1 1 1 1 1 1
0 0 0 1 2 3 5 4 5 2 2 2 2 1 2 2 2 2 2 2 3 5 6 6 6 7 7 8 8 8 7 6 5 6 6 5 5 4 4 3 2 2 1 1 1 1 1 0 1
-1 -1 0 1 2 4 4 5 3 3 2 1 1 1 1 2 1 1 2 2 2 4 6 6 6 6 7 7 8 7 6 5 5 6 5 5 5 4 3 3 3 2 2 1 1 1 2 1 1
-0 -0 0 1 2 1 2 4 1 1 1 1 1 1 1 1 0 0 0 1 2 1 4 5 5 5 6 7 7 6 5 5 5 6 5 5 4 4 3 2 2 2 1 1 0 1 1 1 0

GFSSGP_700_temp_111.txt.gz
Temp
9 9 9 9 8 11 14 15 15 14 13 12 12 13 13 14 13 13 11 11 12 12 10 9 9 9 9 9 9 8 7 7 7 7 7 7 6 6 6 6 6 6 6 6 6 6 6 6 6
9 9 9 8 9 13 15 15 14 14 13 11 12 12 12 12 12 11 11 11 11 11 9 9 9 9 10 9 8 7 7 7 6 6 6 6 6 6 6 6 6 6 6 6 6 6 6 6 6
9 9 7 9 10 13 15 15 14 13 12 11 12 11 12 12 11 10 11 11 11 10 9 9 9 9 9 8 7 7 7 6 6 6 6 6 6 6 6 6 6 6 6 6 6 6 5 6 6
8 8 7 9 12 14 14 14 13 12 11 11 12 12 11 10 10 10 11 11 11 10 9 9 9 9 9 8 7 7 7 7 6 6 6 6 6 6 6 6 5 5 5 5 5 5 5 5 5
7 7 9 10 11 13 14 13 12 12 12 11 11 12 11 10 10 9 10 10 11 10 9 9 9 8 8 8 7 7 7 7 6 6 6 6 6 6 5 5 5 5 5 4 4 4 4 5 4
6 7 9 11 12 13 13 12 11 11 11 11 10 11 12 10 10 10 10 10 10 10 9 9 8 8 8 8 7 7 7 7 6 6 6 6 6 5 5 5 5 4 5 4 4 4 4 4 4
6 8 9 11 12 13 13 11 11 11 11 11 10 11 11 10 9 10 10 10 10 10 9 9 8 8 8 8 8 7 7 7 7 6 6 5 5 5 5 5 5 4 4 4 4 4 4 4 4
5 7 9 10 11 12 13 11 10 10 11 11 10 10 11 10 10 10 10 10 10 10 9 9 8 8 8 8 8 7 7 7 7 7 6 6 5 5 5 5 5 4 4 4 4 4 4 3 3
5 6 8 9 10 11 12 10 10 10 10 10 10 10 10 10 10 10 10 10 10 10 9 9 8 8 8 8 8 8 7 7 7 7 6 6 5 5 5 5 5 4 4 4 4 3 4 3 3
5 6 7 9 10 11 11 10 10 9 9 10 8 8 9 10 10 10 9 9 10 9 9 9 8 8 8 8 8 7 7 7 7 7 6 6 6 5 5 5 5 4 4 4 4 4 4 3 3
5 6 8 8 9 10 10 10 9 9 10 10 9 9 8 8 8 8 8 8 9 9 9 8 8 8 8 8 7 7 7 7 7 7 7 6 6 5 5 5 5 4 4 4 4 4 3 3 3
5 6 6 7 8 8 8 8 9 9 9 9 9 9 8 7 8 8 8 8 8 8 9 9 8 8 8 8 7 7 7 7 7 7 7 6 6 6 5 5 5 4 4 4 4 4 3 3 3
5 6 6 6 6 7 7 7 7 8 8 8 8 8 7 8 8 8 8 8 8 8 7 9 9 9 8 8 8 7 7 7 7 7 7 6 6 6 5 5 4 4 5 4 4 4 3 3 2
6 6 6 6 6 6 6 6 6 6 6 7 7 7 7 7 8 8 8 8 8 8 7 8 9 9 8 8 8 8 7 7 7 7 6 6 6 6 5 5 5 4 4 4 4 3 3 3 2
4 5 5 5 5 6 5 6 6 6 6 6 8 7 7 7 8 8 8 8 8 7 7 8 9 9 8 8 8 8 7 7 7 7 7 6 6 6 6 5 5 4 4 4 4 3 3 3 2
3 4 5 6 5 5 4 7 7 8 8 7 7 7 7 7 7 8 8 7 8 7 7 8 8 8 8 8 8 8 7 7 7 7 7 6 6 6 6 6 5 5 4 4 3 3 3 2 2
3 4 5 6 6 6 6 6 7 7 8 7 8 8 8 8 8 7 7 7 7 7 7 6 8 8 8 8 8 8 8 8 7 7 7 6 6 6 6 6 6 5 4 4 3 2 2 2 2
4 5 5 7 8 7 7 6 7 7 8 8 7 7 7 7 7 7 7 7 7 6 6 7 8 8 8 7 7 7 8 8 8 8 7 7 6 6 6 5 5 5 4 4 3 3 2 2 2
4 5 6 6 7 6 6 6 7 7 7 7 7 7 7 7 7 7 7 6 6 7 7 7 7 7 8 8 7 8 8 8 8 8 7 7 6 6 5 5 5 5 4 3 3 2 2 1 1
3 4 3 5 5 4 5 5 6 7 7 7 7 6 7 7 7 7 6 5 6 7 7 7 7 7 7 7 7 8 8 8 8 8 7 7 7 6 5 5 5 5 4 4 3 2 2 2 1
3 3 2 4 3 2 3 4 5 6 6 7 6 6 6 7 7 7 5 4 4 6 6 7 7 7 7 7 7 8 8 8 8 8 8 7 6 6 6 6 5 5 4 3 2 2 2 1 1
3 2 2 1 0 0 2 5 6 7 7 7 6 6 6 6 6 6 4 3 3 5 6 6 7 7 7 7 7 8 8 9 8 8 8 7 6 6 5 6 5 5 4 2 2 2 2 1 1
2 2 0 0 0 1 3 3 5 7 7 7 6 6 6 5 4 4 3 3 3 4 5 5 6 6 7 7 7 8 8 9 8 8 8 7 7 6 6 6 5 4 4 3 2 1 1 1 1
1 0 0 1 1 3 4 4 6 6 6 7 7 6 5 4 3 3 3 3 3 2 4 5 5 6 6 7 7 7 8 8 8 8 8 7 6 6 6 6 5 4 3 2 2 1 1 1 1
-0 -1 -0 -1 1 3 4 4 5 7 6 6 5 4 3 3 3 2 2 2 2 3 4 5 5 6 6 7 7 7 8 8 8 8 8 7 6 6 6 6 5 3 2 1 2 2 2 1 1
0 1 1 1 2 3 5 5 6 6 6 5 4 4 3 3 2 2 2 1 2 2 4 4 5 5 6 7 7 7 8 8 8 8 7 7 6 6 6 5 4 3 2 2 2 2 1 1 1
1 1 2 2 3 4 5 5 4 5 5 4 3 3 3 3 2 1 0 1 3 3 3 4 5 6 5 6 6 7 8 8 8 8 7 7 6 6 6 5 4 3 3 2 2 1 1 2 2
1 2 2 2 3 4 6 5 6 4 4 3 3 3 2 2 1 0 -0 1 2 2 3 4 5 5 6 6 6 7 7 8 7 7 7 6 6 6 6 5 4 4 3 3 2 1 1 1 1
1 2 2 3 3 4 5 5 4 3 3 3 3 2 2 1 0 -0 -1 1 1 2 3 4 6 5 6 6 6 6 7 7 7 7 6 6 6 6 6 5 4 4 3 3 1 2 1 1 1
2 2 2 3 4 4 4 1 3 3 3 2 2 1 1 0 -0 -1 -0 0 0 1 3 4 5 5 5 5 5 6 6 7 6 6 6 6 6 6 5 4 4 4 3 3 2 1 1 1 1

GFSSGP_700_temp_114.txt.gz
Temp
9 9 9 9 8 9 12 13 15 16 15 15 14 14 14 14 14 13 11 11 11 12 12 12 11 10 10 10 10 9 9 8 7 7 7 7 7 7 7 7 7 7 6 6 6 6 6 6 6
9 9 8 7 8 11 13 15 16 16 15 14 13 13 14 14 13 12 12 12 12 12 12 11 11 10 10 10 10 9 8 7 7 7 7 7 6 6 6 6 6 6 6 6 6 6 6 6 6
9 9 6 7 9 11 13 15 16 15 14 14 12 12 13 13 12 12 11 11 11 12 12 11 11 10 10 10 9 8 8 7 6 6 6 6 6 6 6 6 6 6 6 6 6 5 5 5 5
8 8 6 8 10 12 12 14 15 14 13 13 13 13 12 12 12 11 11 11 11 11 11 11 10 10 10 10 9 8 8 7 7 6 6 6 6 6 6 6 6 5 5 5 5 5 4 5 5
8 7 7 9 10 11 13 14 14 14 13 12 12 13 12 12 11 10 10 11 11 11 11 10 10 10 10 9 9 8 7 7 7 7 6 6 6 5 5 5 5 5 5 5 5 4 4 4 4
8 7 7 9 11 12 13 14 14 13 13 12 12 12 12 11 11 10 10 11 11 11 10 10 9 9 9 9 9 8 8 7 7 7 7 6 6 5 5 5 5 5 5 4 4 4 4 4 4
5 7 8 9 11 12 13 14 13 13 12 12 11 11 12 11 10 10 10 10 10 11 10 9 9 9 8 8 8 8 8 7 7 7 7 6 6 5 5 5 5 5 4 4 4 4 4 4 4
5 6 8 9 10 11 12 13 12 12 12 12 12 11 12 11 10 10 11 10 10 10 10 9 9 9 8 8 8 8 8 7 7 7 7 7 6 6 5 5 5 5 4 4 4 4 4 3 2
5 5 7 8 9 11 12 12 12 11 11 11 12 11 11 11 10 10 10 10 10 10 10 9 9 9 8 8 8 8 8 8 7 7 7 7 6 6 6 5 5 5 5 4 4 4 4 3 3
5 5 7 8 9 10 11 12 12 11 10 11 11 11 10 10 10 10 10 10 10 10 10 9 9 9 8 8 8 8 8 8 7 7 7 7 6 6 6 5 5 5 4 4 4 4 4 4 3
5 6 7 8 9 9 10 11 12 11 11 10 11 10 9 9 10 10 10 9 10 10 10 9 9 9 8 8 8 8 8 7 7 7 7 7 6 6 6 6 5 5 5 4 4 4 4 4 4
5 5 6 7 8 9 10 10 11 10 10 10 11 10 9 9 8 9 9 8 8 9 9 9 9 9 8 8 9 8 8 7 7 7 7 7 7 6 6 6 5 5 5 4 4 4 4 3 3
5 6 6 7 7 7 8 8 9 9 9 10 10 10 9 8 8 8 8 8 8 8 8 8 9 9 9 8 8 8 9 7 7 7 7 7 7 6 6 5 5 5 5 4 4 4 4 3 3
5 6 6 7 7 7 7 7 8 8 8 9 8 9 9 8 8 8 8 8 8 8 8 8 8 9 9 9 8 8 8 8 7 7 7 7 7 6 6 6 5 5 4 4 4 4 4 3 3
4 5 6 7 7 7 7 7 7 7 7 7 9 7 8 8 8 8 8 8 8 8 8 8 8 7 8 9 8 8 8 8 8 7 7 7 7 6 6 6 5 5 4 4 4 4 4 3 3
4 4 5 6 7 7 7 7 7 7 7 7 7 7 8 7 7 8 8 8 8 8 8 8 8 7 8 8 8 8 8 8 8 8 7 7 7 6 6 6 6 5 5 4 4 4 4 3 3
3 4 5 5 6 7 7 6 7 7 8 8 8 8 7 7 7 8 8 8 8 8 8 8 7 7 8 8 8 8 8 8 8 7 7 7 7 6 6 6 6 6 5 5 4 4 4 3 3
3 4 5 6 7 7 7 7 7 7 7 8 8 8 8 8 8 8 8 8 8 8 8 8 7 7 7 8 8 8 8 8 8 7 7 7 7 7 6 6 6 6 6 5 4 4 3 3 2
3 5 6 6 6 7 7 7 7 8 7 8 9 8 8 8 8 8 8 8 7 7 7 7 7 6 6 8 8 7 7 8 8 7 7 7 7 7 7 6 6 6 6 5 4 3 3 2 2
2 4 5 7 7 5 5 6 7 8 7 8 8 8 8 8 8 8 7 7 7 7 7 7 7 6 6 7 7 7 7 7 8 7 7 7 8 7 7 6 6 6 6 5 5 3 3 3 2
2 3 5 6 6 1 3 4 5 6 7 8 8 8 8 7 7 7 7 7 7 7 7 6 6 6 6 6 6 7 7 7 8 8 8 8 8 7 7 6 6 6 6 6 5 4 3 3 2
3 4 4 5 4 -1 2 4 4 5 6 7 7 7 8 7 7 7 8 7 6 5 6 6 6 6 6 6 6 7 8 7 8 8 8 8 8 8 7 7 6 6 6 6 5 4 2 2 2
3 4 4 4 2 -0 1 2 3 4 5 5 6 7 7 7 6 7 7 6 4 3 3 3 6 6 6 6 6 7 7 7 7 8 8 8 8 8 7 7 6 6 6 5 5 4 2 2 1
3 3 2 2 1 1 1 2 4 4 5 6 7 7 7 6 6 6 5 4 3 3 3 2 4 5 5 6 6 6 7 7 7 7 8 8 8 7 7 7 6 6 6 5 4 4 3 2 1
2 2 1 -0 1 1 2 2 3 6 6 6 7 7 6 5 4 4 3 3 3 3 2 1 4 5 5 6 5 6 7 7 7 7 8 8 8 8 7 7 6 6 6 5 4 3 2 2 2
1 1 1 1 1 2 3 4 4 5 6 6 6 5 4 3 3 3 2 2 2 2 3 3 4 5 5 5 6 6 6 7 7 6 7 8 8 8 7 7 6 6 6 5 4 3 2 2 1
1 1 1 2 1 3 4 4 6 6 5 5 5 4 3 3 3 2 1 1 1 3 3 3 4 5 5 5 5 6 6 6 6 6 7 8 8 7 7 6 6 6 6 5 4 3 2 2 1
1 1 1 1 2 2 1 5 4 5 4 4 1 4 3 3 2 1 1 0 2 3 3 3 4 4 4 5 5 6 6 6 6 6 6 7 8 7 7 6 6 6 6 5 4 3 2 2 1
1 2 2 2 3 3 3 1 4 3 4 3 3 3 3 2 1 1 1 1 2 2 3 3 4 4 4 5 5 6 6 5 6 6 5 6 7 7 7 6 6 6 6 5 4 3 2 1 1
2 2 2 2 3 4 3 2 2 3 4 3 2 1 2 -0 1 1 1 1 0 1 2 3 4 5 5 5 5 6 5 5 5 5 4 6 6 6 6 6 6 6 5 4 4 3 2 2 1

GFSSGP_700_temp_117.txt.gz
Temp
9 9 9 9 9 9 9 14 15 16 14 15 15 15 14 14 14 14 13 11 11 12 12 12 12 12 11 11 11 10 9 8 8 7 7 7 7 7 6 7 7 6 6 6 6 6 6 6 6
9 9 9 8 8 8 10 14 13 14 14 15 15 15 14 14 13 13 12 11 12 12 12 12 12 11 11 11 11 10 9 8 7 7 6 7 7 6 6 6 6 6 6 6 6 6 6 6 6
9 9 9 9 8 9 11 14 13 14 14 14 15 14 14 13 12 12 12 12 12 12 12 12 12 11 11 11 11 10 9 8 7 7 6 6 6 6 6 6 6 6 6 6 6 5 5 5 6
7 8 9 9 10 12 12 14 13 13 14 14 14 14 13 13 12 12 12 12 12 12 12 12 12 11 11 11 11 10 9 8 7 6 6 6 6 6 6 5 5 5 5 5 5 5 5 5 5
7 7 7 8 10 12 12 13 11 12 13 13 13 13 13 12 12 11 12 11 11 12 12 12 11 11 10 10 10 10 9 8 8 7 7 6 6 6 5 5 5 5 5 5 5 5 5 5 4
7 7 6 7 10 11 12 13 13 13 13 13 13 13 12 12 12 12 12 12 11 11 11 11 11 10 10 10 10 9 9 8 8 7 7 7 6 6 5 5 5 5 5 5 5 4 5 4 4
7 7 7 7 8 10 12 12 12 13 13 13 12 13 11 11 11 11 11 11 11 11 11 11 10 10 10 9 9 9 8 8 8 8 7 7 7 6 6 6 5 5 4 4 4 4 4 4 4
6 7 7 6 7 8 11 12 12 13 13 12 12 12 12 11 11 11 11 11 11 10 10 10 10 10 9 9 9 9 8 8 7 7 7 7 7 6 6 6 5 5 5 4 4 4 4 4 4
5 4 5 6 7 9 10 11 11 12 12 12 12 11 11 11 10 10 10 10 10 10 10 10 10 9 9 9 8 8 8 8 7 7 7 7 7 6 6 6 6 5 5 4 4 4 4 4 4
4 5 6 7 8 9 9 11 11 10 11 11 11 11 11 11 10 10 9 10 10 10 10 10 10 9 9 9 9 8 8 8 8 7 7 7 7 7 6 6 6 5 5 5 4 4 4 4 4
5 6 5 6 6 8 9 9 10 10 11 11 11 11 11 11 10 9 9 10 10 10 10 10 10 9 9 9 9 9 8 8 8 7 7 7 7 7 7 6 6 6 5 5 5 4 4 4 4
4 6 5 6 6 7 8 9 10 10 10 11 11 11 10 11 11 11 9 9 9 10 10 10 10 9 9 9 9 9 8 8 7 7 7 7 7 7 7 6 6 6 5 5 5 4 4 4 4
4 3 4 5 5 7 8 8 9 10 10 10 10 10 10 10 10 10 9 9 8 8 9 9 9 9 9 9 9 9 9 8 8 7 7 7 7 7 6 6 6 6 6 5 5 4 4 4 4
4 4 4 4 5 6 6 7 7 9 9 9 10 10 9 9 9 9 9 8 8 8 8 8 8 8 8 8 9 9 9 8 8 8 7 7 7 7 6 6 6 6 6 5 5 4 4 4 4
2 2 3 4 5 5 6 7 7 8 9 8 9 10 10 9 8 8 8 9 8 8 8 8 8 8 8 8 8 8 9 9 8 8 7 7 7 7 6 6 6 6 6 5 5 5 4 4 3
1 1 3 8 5 5 6 6 7 7 7 8 9 9 9 9 9 8 8 9 9 8 8 8 8 8 8 8 8 8 8 8 8 8 8 7 7 7 7 6 6 6 6 6 6 5 5 4 4
-0 0 3 5 4 4 5 6 6 7 7 7 8 8 9 9 9 9 8 8 9 8 8 8 8 8 8 8 7 8 8 8 8 8 8 7 7 7 7 6 6 6 6 6 6 5 5 4 4
-0 -0 1 2 3 4 5 6 6 7 7 7 7 7 8 8 8 9 9 8 8 8 8 8 8 8 8 7 7 7 7 7 8 8 8 7 7 7 7 7 6 6 6 6 6 5 4 4 4
-2 -1 1 2 3 5 5 6 6 6 7 7 7 7 8 8 8 8 8 8 8 8 8 8 8 8 7 7 7 7 7 7 7 7 7 7 7 7 7 7 6 6 6 6 5 5 5 4 4
-3 -2 -0 2 4 5 5 5 6 6 6 7 7 7 8 8 8 8 8 8 8 8 8 8 8 7 7 7 7 7 7 7 7 7 7 7 7 7 7 7 7 6 6 6 5 6 5 4 4
-3 -3 -1 1 3 4 3 5 5 6 7 7 7 8 8 8 8 8 8 8 8 7 7 7 7 7 7 6 6 7 7 7 7 7 7 7 7 7 7 7 7 6 6 6 5 5 5 5 4
-3 -2 -1 1 1 2 2 2 4 5 6 6 7 7 8 8 8 8 7 7 7 7 7 7 7 7 7 6 6 6 6 7 7 7 7 7 7 7 7 7 7 7 6 6 5 5 5 5 4
-2 -1 -1 1 2 1 -0 -1 3 4 5 7 7 7 7 7 7 7 7 7 6 7 7 7 7 7 7 6 6 6 6 7 7 6 6 6 6 7 7 7 7 7 6 5 5 5 5 5 3
-2 -2 -1 2 1 -2 0 1 2 4 5 6 6 7 7 6 6 6 5 5 5 5 5 6 6 6 6 6 6 5 5 5 6 6 6 6 6 7 7 8 7 7 6 5 5 5 5 4 3
-1 -1 -1 -2 -2 -2 2 1 3 5 5 6 6 7 6 6 5 5 4 4 4 3 3 4 4 6 6 6 6 5 5 5 6 6 6 6 7 7 7 8 8 7 6 5 5 5 5 4 2
0 1 -1 -2 -2 -1 2 1 3 5 6 5 5 5 5 6 5 4 4 4 3 3 2 2 3 4 4 4 5 5 5 5 6 6 5 6 6 7 7 8 7 7 6 5 5 5 5 4 3
0 0 1 1 1 1 2 2 4 5 4 4 5 4 4 4 4 4 4 4 3 3 2 3 3 3 4 5 5 5 5 5 6 6 5 5 6 7 7 7 7 7 6 5 5 5 5 4 3
2 1 1 -0 -1 -0 1 3 4 3 3 3 3 3 2 2 3 3 3 2 2 3 3 3 3 3 3 4 4 5 5 6 6 5 5 5 6 6 7 7 7 6 5 5 6 5 4 4 3
1 1 0 -2 0 0 -1 -0 1 2 3 1 2 1 -1 1 2 2 2 2 3 2 2 3 3 3 3 3 4 4 5 5 5 5 5 5 5 6 7 6 6 6 5 5 6 5 4 4 3
-0 0 1 -0 0 2 1 -2 -1 1 0 2 3 2 -1 0 1 2 1 2 2 2 1 2 2 2 3 3 4 4 5 5 5 5 5 4 4 6 5 6 5 5 5 6 5 5 4 3 3

GFSSGP_700_temp_120.txt.gz
Temp
10 10 10 9 9 9 10 13 13 13 13 13 14 15 16 15 15 14 14 13 12 12 12 12 12 12 12 11 11 11 10 9 8 8 7 7 7 7 7 6 6 6 6 6 6 6 7 6 6
9 9 9 9 9 9 12 14 13 12 13 14 14 15 15 15 15 14 13 13 12 11 12 12 12 12 12 11 11 11 10 9 8 7 7 7 6 6 6 6 6 6 6 6 6 6 6 6 6
8 8 8 8 9 10 13 14 13 12 12 13 14 14 14 15 15 14 13 13 12 12 12 12 12 12 11 11 11 11 10 9 8 7 7 6 6 6 6 6 6 6 6 6 6 6 5 5 5
8 8 7 7 9 12 13 14 13 12 12 13 14 14 14 14 14 13 13 12 11 11 12 12 12 12 11 11 11 11 10 9 8 7 7 6 6 6 6 6 6 6 6 6 6 5 5 5 5
7 8 8 7 9 11 12 13 13 13 12 12 12 14 14 14 13 13 13 12 11 12 12 12 12 12 11 11 11 11 10 9 8 8 7 6 6 6 6 6 6 6 6 5 5 5 5 5 5
6 7 7 8 9 11 11 12 11 12 12 12 12 13 13 13 12 12 12 12 12 11 11 11 11 11 11 11 11 10 10 9 8 8 8 7 6 6 6 6 6 5 5 5 5 5 4 4 4
6 7 7 8 9 9 11 12 11 11 12 13 12 13 13 12 11 12 12 12 11 11 11 11 11 11 11 11 10 10 9 9 9 8 7 7 7 7 6 6 6 6 5 5 5 5 4 4 4
6 6 6 6 7 8 11 12 11 11 11 12 12 12 12 13 11 11 11 11 11 11 11 11 11 11 11 10 10 9 9 9 8 8 7 7 7 6 6 6 6 6 6 5 5 5 4 4 4
5 5 5 6 6 9 11 11 11 11 10 11 12 12 12 12 11 11 11 11 11 10 11 10 10 10 10 10 10 9 9 8 8 8 7 7 7 6 6 6 6 6 5 5 5 5 4 4 4
5 5 5 5 7 8 9 10 11 10 10 10 11 12 11 11 11 11 11 11 10 10 10 10 10 10 10 10 9 9 8 8 8 7 7 7 7 6 6 6 6 6 6 5 5 5 5 4 4
5 6 5 5 6 7 7 9 9 9 10 10 10 11 11 11 11 10 11 11 11 10 10 10 10 10 10 10 9 9 8 8 8 7 7 7 7 7 6 6 6 6 5 5 5 5 4 4 4
4 5 5 6 6 7 7 8 10 9 9 9 9 9 10 11 11 11 10 10 11 10 9 9 9 9 9 9 9 9 9 8 8 7 7 7 7 7 7 6 6 6 6 5 5 5 5 4 4
4 5 6 5 5 6 6 7 7 9 9 8 9 8 9 10 10 10 11 10 10 10 10 9 9 9 9 9 9 9 9 9 8 7 7 7 7 7 6 6 6 6 6 5 5 5 5 4 4
4 4 4 5 7 5 5 6 5 9 8 8 9 8 8 9 9 10 10 10 10 10 9 9 9 9 9 9 9 9 9 9 8 8 8 7 7 7 6 6 6 6 6 5 5 5 5 4 4
1 0 3 5 8 6 3 3 6 8 7 7 8 8 8 8 9 9 9 10 9 9 9 8 8 8 8 8 8 8 8 8 8 8 8 7 7 7 7 6 6 6 6 6 6 5 5 5 4
-1 -1 0 9 4 5 2 3 8 7 6 8 8 8 8 8 8 8 8 9 9 8 8 8 8 8 8 8 8 8 8 8 8 8 8 8 7 7 7 7 6 6 6 6 6 6 5 5 5
-3 -3 -2 1 2 1 2 3 8 6 6 7 7 7 8 8 9 8 8 8 8 8 8 8 8 8 8 8 7 7 8 8 8 8 8 8 8 7 7 7 6 6 6 6 6 5 5 5 5
-1 -3 -2 -2 2 0 1 3 5 4 5 6 7 7 8 8 9 9 8 8 8 8 8 8 8 8 8 8 8 7 7 7 7 8 8 8 7 7 7 7 7 6 6 6 6 5 5 5 5
-5 -5 -5 -3 -0 -1 0 2 4 4 5 6 6 7 8 8 9 9 9 8 8 8 8 8 8 8 8 8 8 7 7 7 7 7 7 7 7 7 7 7 6 6 6 6 6 5 5 5 5
-6 -6 -5 -5 -2 -1 0 2 3 4 5 6 6 7 8 8 8 8 8 8 8 8 8 8 8 8 8 7 7 7 6 6 6 6 7 7 7 7 7 7 6 6 6 6 6 5 5 5 5
-6 -5 -6 -6 -3 -1 -1 2 4 4 5 5 6 6 7 7 7 8 8 8 8 7 7 8 8 8 7 7 7 6 6 6 6 7 6 6 7 7 6 6 6 6 6 6 6 5 5 5 4
-7 -6 -6 -6 -4 -3 -1 -0 2 4 5 5 6 6 6 7 7 7 8 8 8 7 7 7 7 7 7 7 6 6 6 6 6 6 6 6 6 6 6 6 6 6 6 6 6 5 5 5 5
-4 -6 -6 -5 -3 -3 -1 -1 1 3 4 5 6 6 6 7 7 7 8 7 8 7 7 7 6 7 7 7 7 6 6 6 6 6 6 6 6 6 6 6 6 6 7 6 6 5 5 5 4
-4 -5 -4 -4 -3 -3 -2 -1 1 3 4 5 6 6 6 6 7 7 6 6 7 7 6 6 6 6 6 6 6 6 6 6 6 6 6 6 6 6 6 6 6 7 7 6 6 5 5 5 5
-4 -4 -4 -4 -4 -2 -1 -2 1 3 3 5 6 6 5 5 5 5 5 5 6 6 5 5 5 4 4 4 5 5 5 6 6 6 6 6 5 6 6 6 6 7 7 6 6 5 5 5 4
-2 -3 -3 -3 -1 -2 -0 -1 2 4 4 5 4 4 3 3 2 4 4 4 4 4 4 5 6 6 6 5 6 6 5 5 5 6 5 5 5 4 5 6 6 7 7 7 6 5 5 4 4
-1 -2 -0 -1 -1 -1 0 2 3 4 4 3 3 3 3 1 2 3 4 4 3 3 3 3 3 4 5 5 5 6 6 4 5 5 5 5 4 5 5 5 6 6 7 7 6 5 5 5 5
-1 -0 -1 -2 -2 -1 -1 1 0 1 3 3 3 3 3 3 3 2 2 3 2 2 2 2 2 3 3 4 4 5 5 5 4 5 5 5 4 5 5 5 6 6 7 7 6 5 5 5 5
-1 -0 0 -1 -2 -2 -1 -1 -1 -0 1 3 1 2 2 2 2 1 1 2 2 2 3 3 3 3 3 3 4 4 4 4 5 5 5 5 3 3 5 5 5 5 6 6 6 5 5 5 5
-3 -2 -2 -1 -3 -3 -2 -3 -1 -1 -0 -0 -0 0 2 2 2 1 1 2 2 2 3 3 3 3 3 4 4 4 3 3 4 5 4 4 3 3 4 5 5 3 5 6 5 5 5 5 4